[[{"header":{"parameterUnit":"m.s-1","parameterCategory":1,"la1":30.6,"la2":29.2853,"lo1":-89.7004,"lo2":-87.6739,"dy":0.0162,"dx":0.0183,"nx":112,"ny":82,"refTime":"2023-03-14T06:00:00:Z","depth":0,"parameterNumber":2,"parameterNumberName":"U-component_of_WINDS"},"data":[0.0,0.0,0.0,0.0,0.0,0.0,0.0,0.0,0.0,0.0,0.0,0.0,0.0,0.0,0.0,0.0,0.0,0.0,0.0,0.0,0.0,0.0,0.0,0.0,0.0,0.0,0.0,0.0,0.0,0.0,0.0,0.0,0.0,0.0,0.0,0.0,0.0,0.0,0.0,0.0,0.0,0.0,0.0,0.0,0.0,0.0,0.0,0.0,0.0,0.0,0.0,0.0,0.0,0.0,0.0,0.0,0.0,0.0,0.0,0.0,0.0,0.0,0.0,0.0,0.0,0.0,0.0,0.0,0.0,0.0,0.0,0.0,0.0,0.0,0.0,0.0,0.0,0.0,0.0,0.0,0.0,0.0,0.0,0.0,0.0,0.0,0.0,0.0,0.0,0.0,0.0,5.1479,5.7534,6.1197,6.052,5.8567,5.3594,4.4674,0.0,0.0,0.0,0.0,0.0,0.0,0.0,0.0,0.0,0.0,0.0,0.0,0.0,0.0,0.0,0.0,0.0,0.0,0.0,0.0,0.0,0.0,0.0,0.0,0.0,0.0,0.0,0.0,0.0,0.0,0.0,0.0,0.0,0.0,0.0,0.0,0.0,0.0,0.0,0.0,0.0,0.0,0.0,0.0,0.0,0.0,0.0,0.0,0.0,0.0,0.0,0.0,0.0,0.0,0.0,0.0,0.0,0.0,0.0,0.0,0.0,0.0,0.0,0.0,0.0,0.0,0.0,0.0,0.0,0.0,0.0,0.0,0.0,0.0,0.0,0.0,0.0,0.0,0.0,0.0,0.0,0.0,0.0,0.0,0.0,0.0,0.0,0.0,0.0,0.0,0.0,0.0,0.0,0.0,0.0,0.0,0.0,0.0,0.0,0.0,0.0,0.0,0.0,0.0,4.7023,5.5826,6.0058,6.2188,6.2052,5.7789,5.2841,4.7541,0.0,0.0,0.0,0.0,0.0,0.0,0.0,0.0,0.0,0.0,0.0,0.0,0.0,0.0,0.0,0.0,0.0,0.0,0.0,0.0,0.0,0.0,0.0,0.0,0.0,0.0,0.0,0.0,0.0,0.0,0.0,0.0,0.0,0.0,0.0,0.0,0.0,0.0,0.0,0.0,0.0,0.0,0.0,0.0,0.0,0.0,0.0,0.0,0.0,0.0,0.0,0.0,0.0,0.0,0.0,0.0,0.0,0.0,0.0,0.0,0.0,0.0,0.0,0.0,0.0,0.0,0.0,0.0,0.0,0.0,0.0,0.0,0.0,0.0,0.0,0.0,0.0,0.0,0.0,0.0,0.0,0.0,0.0,0.0,0.0,0.0,0.0,0.0,0.0,0.0,0.0,0.0,0.0,0.0,0.0,0.0,0.0,0.0,0.0,0.0,0.0,0.0,0.0,4.5912,4.9882,5.8776,6.1342,6.2255,6.1849,5.7746,5.2765,4.7083,4.349,0.0,0.0,0.0,0.0,0.0,0.0,0.0,0.0,0.0,0.0,0.0,0.0,0.0,0.0,0.0,0.0,0.0,0.0,0.0,0.0,0.0,0.0,0.0,0.0,0.0,0.0,0.0,0.0,0.0,0.0,0.0,0.0,0.0,0.0,0.0,0.0,0.0,0.0,0.0,0.0,0.0,0.0,0.0,0.0,0.0,0.0,0.0,0.0,0.0,0.0,0.0,0.0,0.0,0.0,0.0,0.0,0.0,0.0,0.0,0.0,0.0,0.0,0.0,0.0,0.0,0.0,0.0,0.0,0.0,0.0,0.0,0.0,0.0,0.0,0.0,0.0,0.0,0.0,0.0,0.0,0.0,0.0,0.0,0.0,0.0,0.0,0.0,0.0,0.0,0.0,0.0,0.0,0.0,0.0,0.0,0.0,0.0,0.0,0.0,0.0,0.0,0.0,5.1069,5.449,6.0867,6.2042,6.2018,6.1095,5.679,5.1716,4.6068,4.1191,0.0,0.0,0.0,0.0,0.0,0.0,0.0,0.0,0.0,0.0,0.0,0.0,0.0,0.0,0.0,0.0,0.0,0.0,0.0,0.0,0.0,0.0,0.0,0.0,0.0,0.0,0.0,0.0,0.0,0.0,0.0,0.0,0.0,0.0,0.0,0.0,0.0,0.0,0.0,0.0,0.0,0.0,0.0,0.0,0.0,0.0,0.0,0.0,0.0,0.0,0.0,0.0,0.0,0.0,0.0,0.0,0.0,0.0,0.0,0.0,0.0,0.0,0.0,0.0,0.0,0.0,0.0,0.0,0.0,0.0,0.0,0.0,0.0,0.0,0.0,0.0,0.0,0.0,0.0,0.0,0.0,0.0,0.0,0.0,0.0,0.0,0.0,0.0,0.0,0.0,0.0,0.0,0.0,0.0,0.0,0.0,0.0,0.0,0.0,0.0,0.0,0.0,5.3721,5.9381,6.2038,6.2357,6.1815,6.0317,5.3585,4.8402,4.5865,3.8255,0.0,0.0,0.0,0.0,0.0,0.0,0.0,0.0,0.0,0.0,0.0,0.0,0.0,0.0,0.0,0.0,0.0,0.0,0.0,0.0,0.0,0.0,0.0,0.0,0.0,0.0,0.0,0.0,0.0,0.0,0.0,0.0,0.0,0.0,0.0,0.0,0.0,0.0,0.0,0.0,0.0,0.0,0.0,0.0,0.0,0.0,0.0,0.0,0.0,0.0,0.0,0.0,0.0,0.0,0.0,0.0,0.0,0.0,0.0,0.0,0.0,0.0,0.0,0.0,0.0,0.0,0.0,0.0,0.0,0.0,0.0,0.0,0.0,0.0,0.0,0.0,0.0,0.0,0.0,0.0,0.0,0.0,0.0,0.0,0.0,0.0,0.0,0.0,0.0,0.0,0.0,0.0,0.0,0.0,0.0,0.0,0.0,0.0,0.0,0.0,0.0,0.0,5.2189,5.7825,0.0,6.2391,6.1603,5.9564,5.5175,5.0346,4.5338,0.0,0.0,0.0,0.0,0.0,0.0,0.0,0.0,0.0,0.0,0.0,0.0,0.0,0.0,0.0,0.0,0.0,0.0,0.0,0.0,0.0,0.0,0.0,0.0,0.0,0.0,0.0,0.0,0.0,0.0,0.0,0.0,0.0,0.0,0.0,0.0,0.0,0.0,0.0,0.0,0.0,0.0,0.0,0.0,0.0,0.0,0.0,0.0,0.0,0.0,0.0,0.0,0.0,0.0,0.0,0.0,0.0,0.0,0.0,0.0,0.0,0.0,0.0,0.0,0.0,0.0,0.0,0.0,0.0,0.0,0.0,0.0,0.0,0.0,0.0,0.0,0.0,0.0,0.0,0.0,0.0,0.0,0.0,0.0,0.0,0.0,0.0,0.0,0.0,0.0,0.0,0.0,0.0,0.0,0.0,0.0,0.0,0.0,0.0,0.0,0.0,0.0,4.6226,5.2526,5.8186,0.0,6.2188,6.1129,5.8853,5.4431,4.95,4.4195,0.0,0.0,0.0,0.0,0.0,0.0,0.0,0.0,0.0,0.0,0.0,0.0,0.0,0.0,0.0,0.0,0.0,0.0,0.0,0.0,0.0,0.0,0.0,0.0,0.0,0.0,0.0,0.0,0.0,0.0,0.0,0.0,0.0,0.0,0.0,0.0,0.0,0.0,0.0,0.0,0.0,0.0,0.0,0.0,0.0,0.0,0.0,0.0,0.0,0.0,0.0,0.0,0.0,0.0,0.0,0.0,0.0,0.0,0.0,0.0,0.0,0.0,0.0,0.0,0.0,0.0,0.0,0.0,0.0,0.0,0.0,0.0,0.0,0.0,0.0,0.0,0.0,0.0,0.0,0.0,0.0,0.0,0.0,0.0,0.0,0.0,0.0,0.0,0.0,0.0,0.0,0.0,0.0,0.0,0.0,0.0,0.0,0.0,0.0,0.0,0.0,0.0,4.7348,5.5553,6.1603,6.2323,6.1738,6.0385,5.8094,5.0439,4.4756,0.0,0.0,0.0,0.0,0.0,0.0,0.0,0.0,0.0,0.0,0.0,0.0,0.0,0.0,0.0,0.0,0.0,0.0,0.0,0.0,0.0,0.0,0.0,0.0,0.0,0.0,0.0,0.0,0.0,0.0,0.0,0.0,0.0,0.0,0.0,0.0,0.0,0.0,0.0,0.0,0.0,0.0,0.0,0.0,0.0,0.0,0.0,0.0,0.0,0.0,0.0,0.0,0.0,0.0,0.0,0.0,0.0,0.0,0.0,0.0,0.0,0.0,0.0,0.0,0.0,0.0,0.0,0.0,0.0,0.0,0.0,0.0,0.0,0.0,0.0,0.0,0.0,0.0,0.0,0.0,0.0,0.0,0.0,0.0,0.0,0.0,0.0,0.0,0.0,0.0,0.0,0.0,0.0,0.0,0.0,0.0,0.0,0.0,0.0,0.0,0.0,0.0,0.0,4.7009,5.5813,6.2154,6.2391,6.1738,6.0182,5.7374,5.2494,4.7278,4.188,0.0,0.0,0.0,0.0,0.0,0.0,0.0,0.0,0.0,0.0,0.0,0.0,0.0,0.0,0.0,0.0,0.0,0.0,0.0,0.0,0.0,0.0,0.0,0.0,0.0,0.0,0.0,0.0,0.0,0.0,0.0,0.0,0.0,0.0,0.0,0.0,0.0,0.0,0.0,0.0,0.0,0.0,0.0,0.0,0.0,0.0,0.0,0.0,0.0,0.0,0.0,0.0,0.0,0.0,0.0,0.0,0.0,0.0,0.0,0.0,0.0,0.0,0.0,0.0,0.0,0.0,0.0,0.0,0.0,0.0,0.0,0.0,0.0,0.0,0.0,0.0,0.0,0.0,0.0,0.0,0.0,0.0,0.0,0.0,0.0,0.0,0.0,0.0,0.0,0.0,0.0,0.0,0.0,0.0,0.0,0.0,0.0,0.0,0.0,0.0,0.0,0.0,4.7258,5.6097,6.2391,6.2391,6.1434,5.9742,5.7036,5.3078,4.803,4.1603,0.0,0.0,0.0,0.0,0.0,0.0,0.0,0.0,0.0,0.0,0.0,0.0,0.0,0.0,0.0,0.0,0.0,0.0,0.0,0.0,0.0,0.0,0.0,0.0,0.0,0.0,0.0,0.0,0.0,0.0,0.0,0.0,0.0,0.0,0.0,0.0,0.0,0.0,0.0,0.0,0.0,0.0,0.0,0.0,0.0,0.0,0.0,0.0,0.0,0.0,0.0,0.0,0.0,0.0,0.0,0.0,0.0,0.0,0.0,0.0,0.0,0.0,0.0,0.0,0.0,0.0,0.0,0.0,0.0,0.0,0.0,0.0,0.0,0.0,0.0,0.0,0.0,0.0,0.0,0.0,0.0,0.0,0.0,0.0,0.0,0.0,0.0,0.0,0.0,0.0,0.0,0.0,0.0,0.0,0.0,0.0,0.0,0.0,0.0,0.0,0.0,0.0,4.7846,5.6393,6.2391,6.2391,6.1028,5.9201,5.7002,5.268,4.7571,4.1671,0.0,0.0,0.0,0.0,0.0,0.0,0.0,0.0,0.0,0.0,0.0,0.0,0.0,0.0,0.0,0.0,0.0,0.0,0.0,0.0,0.0,0.0,0.0,0.0,0.0,0.0,0.0,0.0,0.0,0.0,0.0,0.0,0.0,0.0,0.0,0.0,0.0,0.0,0.0,0.0,0.0,0.0,0.0,0.0,0.0,0.0,0.0,0.0,0.0,0.0,0.0,0.0,0.0,0.0,0.0,0.0,0.0,0.0,0.0,0.0,3.7074,0.0,0.0,0.0,0.0,0.0,0.0,0.0,0.0,0.0,0.0,0.0,0.0,0.0,0.0,0.0,0.0,0.0,0.0,0.0,0.0,0.0,0.0,0.0,0.0,0.0,0.0,0.0,0.0,0.0,0.0,0.0,0.0,0.0,0.0,0.0,0.0,0.0,0.0,0.0,0.0,0.0,4.7834,5.6393,6.2391,6.2391,6.1028,5.9201,5.7002,5.268,4.7808,4.2394,3.8746,0.0,0.0,0.0,0.0,0.0,0.0,0.0,0.0,0.0,0.0,0.0,0.0,0.0,0.0,0.0,0.0,0.0,0.0,0.0,0.0,0.0,0.0,0.0,0.0,0.0,0.0,0.0,0.0,0.0,0.0,0.0,0.0,0.0,0.0,0.0,0.0,0.0,0.0,0.0,0.0,0.0,0.0,0.0,0.0,0.0,0.0,0.0,0.0,0.0,0.0,0.0,0.0,0.0,0.0,0.0,0.0,0.0,0.0,0.0,0.0,3.6953,0.0,0.0,0.0,0.0,0.0,0.0,0.0,0.0,0.0,0.0,0.0,0.0,0.0,0.0,0.0,0.0,0.0,0.0,0.0,0.0,0.0,0.0,0.0,0.0,0.0,0.0,0.0,0.0,0.0,0.0,0.0,0.0,0.0,0.0,0.0,0.0,0.0,0.0,0.0,0.0,4.9755,5.7273,6.2391,6.2391,6.1028,5.9201,5.7002,5.3315,4.8924,4.3721,4.0242,0.0,0.0,0.0,0.0,0.0,0.0,0.0,0.0,0.0,0.0,0.0,0.0,0.0,0.0,0.0,0.0,0.0,0.0,0.0,0.0,0.0,0.0,0.0,0.0,0.0,0.0,0.0,0.0,0.0,0.0,0.0,0.0,0.0,0.0,0.0,0.0,0.0,0.0,0.0,0.0,0.0,0.0,0.0,0.0,0.0,0.0,0.0,0.0,0.0,0.0,0.0,0.0,0.0,4.4011,4.4198,4.5318,4.4412,4.3488,4.2467,4.0169,3.9182,3.9064,3.8021,0.0,0.0,0.0,0.0,0.0,0.0,0.0,0.0,0.0,0.0,0.0,0.0,0.0,0.0,0.0,0.0,0.0,0.0,0.0,0.0,0.0,0.0,0.0,0.0,4.4756,4.2597,0.0,0.0,0.0,0.0,0.0,0.0,0.0,0.0,0.0,0.0,0.0,0.0,5.1683,5.8127,6.2391,6.2391,6.1028,5.9302,5.734,5.4431,5.065,4.586,4.2611,3.9423,0.0,0.0,0.0,0.0,0.0,0.0,0.0,0.0,0.0,0.0,0.0,0.0,0.0,0.0,0.0,0.0,0.0,0.0,0.0,0.0,0.0,0.0,0.0,0.0,0.0,0.0,0.0,0.0,0.0,0.0,0.0,0.0,3.3163,3.5673,0.0,0.0,0.0,0.0,0.0,0.0,0.0,0.0,0.0,0.0,0.0,0.0,0.0,4.3094,4.6584,4.7199,4.8045,4.9114,4.8853,4.8885,4.9107,4.7507,4.7399,4.8368,4.6123,0.0,4.0959,4.1096,0.0,0.0,0.0,0.0,0.0,0.0,0.0,0.0,0.0,0.0,0.0,0.0,0.0,0.0,0.0,0.0,0.0,0.0,0.0,0.0,0.0,0.0,4.7008,4.7481,4.7861,4.78,0.0,4.2903,3.9208,3.7527,3.6903,0.0,0.0,0.0,0.0,0.0,0.0,0.0,5.1201,5.7814,6.2391,6.2391,6.1028,5.9708,5.8786,5.5987,5.2883,4.9567,4.5995,4.3484,4.2273,3.7871,0.0,0.0,0.0,0.0,0.0,0.0,0.0,0.0,0.0,0.0,0.0,0.0,0.0,0.0,0.0,0.0,0.0,0.0,0.0,0.0,0.0,0.0,0.0,0.0,0.0,0.0,0.0,0.0,0.0,3.2894,3.5509,3.4387,3.652,3.7257,0.0,0.0,0.0,0.0,0.0,0.0,0.0,0.0,0.0,4.4786,4.5033,4.685,5.0503,5.0976,5.2239,5.421,5.3988,5.4082,5.4463,5.373,5.3543,5.3747,5.2437,5.0397,4.7782,4.5074,4.3896,4.3728,0.0,0.0,0.0,0.0,4.393,4.4599,4.5324,4.5805,0.0,4.638,0.0,0.0,0.0,0.0,0.0,0.0,0.0,0.0,0.0,0.0,5.0694,5.1979,5.252,5.2562,5.1818,4.8444,4.4599,0.0,4.0911,4.024,3.7809,0.0,0.0,0.0,0.0,5.1293,5.4532,5.9312,6.2391,6.2391,6.1028,5.9641,5.849,5.6427,5.3915,5.0913,4.7639,4.5101,4.3484,4.0001,3.7803,0.0,0.0,0.0,0.0,0.0,0.0,0.0,0.0,0.0,0.0,0.0,0.0,0.0,0.0,0.0,0.0,0.0,0.0,0.0,0.0,0.0,0.0,0.0,0.0,0.0,0.0,0.0,0.0,3.4958,3.6892,3.3875,3.7345,3.882,0.0,0.0,0.0,0.0,0.0,0.0,4.3372,4.4496,4.6495,4.9616,4.9904,5.1578,5.49,5.5116,5.6322,5.8484,5.8254,5.8367,5.8863,5.8863,5.8487,5.7855,5.7377,5.6252,5.4308,4.9196,4.7237,4.7413,4.6969,4.6711,4.6766,4.8199,4.8868,4.9138,4.989,5.0025,4.9856,4.9882,4.9044,4.753,4.5034,0.0,0.0,0.0,0.0,4.7691,5.0312,5.2198,5.4016,5.6283,5.6824,5.6689,5.6131,5.4101,5.0845,0.0,4.4722,4.3924,4.0946,0.0,0.0,0.0,0.0,5.3289,5.7383,6.053,6.2391,6.2391,6.1028,5.9674,5.8567,5.6925,5.5023,5.2757,4.9653,4.715,4.5486,4.2713,4.0109,3.7628,0.0,0.0,0.0,0.0,0.0,0.0,0.0,0.0,0.0,0.0,0.0,0.0,0.0,0.0,0.0,0.0,0.0,0.0,0.0,0.0,0.0,0.0,0.0,0.0,0.0,0.0,0.0,0.0,0.0,3.6314,4.0844,0.0,0.0,0.0,0.0,4.0244,4.2623,4.4739,4.6039,4.8494,5.1683,5.563,5.6933,5.8554,6.066,6.0697,6.0789,6.0934,6.0908,6.091,6.094,6.094,6.0581,5.9951,5.9921,5.9502,5.8418,5.324,5.1111,5.0955,4.8985,4.9734,5.1852,5.1235,5.148,5.2198,5.3002,5.2765,5.2461,5.4617,5.4761,5.3594,5.0616,4.9669,0.0,0.0,4.8706,5.1302,5.29,5.493,5.7137,5.9336,5.9877,5.9877,5.9844,5.9158,5.6409,0.0,4.6568,4.5365,4.4472,0.0,4.7718,4.868,5.3179,5.6799,5.7789,6.053,6.2391,6.2391,6.1028,6.008,6.0013,5.8017,5.6697,5.6528,5.3036,5.093,5.0829,4.6658,4.3951,4.3017,3.9635,0.0,0.0,0.0,0.0,0.0,0.0,0.0,0.0,0.0,0.0,0.0,0.0,0.0,0.0,0.0,0.0,0.0,0.0,0.0,0.0,0.0,0.0,0.0,0.0,0.0,0.0,0.0,0.0,4.1465,4.5075,0.0,4.2576,4.3874,4.4881,4.4831,4.8492,5.1449,5.3156,5.5359,5.7633,5.9921,6.0878,6.1852,6.2959,6.3393,6.3588,6.3588,6.3588,6.3588,6.3588,6.3588,6.3244,6.2614,6.2614,6.1762,6.025,5.8399,5.6506,5.4603,5.3025,5.3125,5.4253,5.4955,5.5667,5.6326,5.6658,5.6783,5.6758,5.6489,5.5277,5.3788,5.3188,5.2646,5.2401,5.3044,5.4329,5.5987,5.8017,5.9099,6.0139,6.1864,6.1941,6.1579,6.1579,6.0588,5.8786,5.5665,5.3078,5.1183,5.0439,5.0541,5.148,5.3678,5.6021,5.8127,5.9877,6.1443,6.2391,6.2391,6.1467,6.0486,5.9462,5.822,5.6697,5.4794,5.2029,5.0059,4.9138,4.6184,4.3789,4.2009,4.069,3.8599,0.0,0.0,0.0,0.0,0.0,0.0,0.0,0.0,0.0,0.0,0.0,0.0,0.0,0.0,0.0,0.0,0.0,0.0,0.0,0.0,0.0,0.0,0.0,0.0,0.0,0.0,4.5632,4.5653,4.9187,5.0504,4.7578,4.8716,4.9991,5.0888,5.4418,5.7393,5.9308,6.1118,6.2704,6.4051,6.4739,6.5278,6.5682,6.5892,6.5996,6.5996,6.5787,6.5667,6.5667,6.5667,6.5308,6.4665,6.4665,6.3812,6.2406,6.2167,6.0905,5.9008,5.8183,5.7967,5.8268,5.9935,6.0717,6.0902,6.0685,6.039,5.9934,5.9002,5.7543,5.6215,5.6706,5.6325,5.6089,5.7839,5.866,5.9447,6.1197,6.1873,6.2303,6.3284,6.3318,6.3067,6.2821,6.1772,6.0655,5.9936,5.7577,5.5387,5.4422,5.4025,5.4499,5.6494,5.7205,5.8263,6.0274,6.1163,6.1612,6.1612,6.1434,6.068,5.9124,5.7645,5.5861,5.3644,5.0879,4.8808,4.759,4.5643,4.3518,4.1231,4.0223,3.8267,3.5295,0.0,0.0,0.0,0.0,0.0,0.0,0.0,0.0,0.0,0.0,0.0,0.0,0.0,0.0,0.0,0.0,0.0,0.0,0.0,0.0,0.0,0.0,0.0,4.1493,4.6673,4.992,4.8787,5.3228,5.5623,5.3648,5.5264,5.6928,5.8175,6.0162,6.2107,6.4006,6.5383,6.67,6.7987,6.8645,6.9004,6.9004,6.8361,6.8047,6.8017,6.7373,6.7074,6.7074,6.7044,6.667,6.6056,6.6026,6.5637,6.4964,6.4336,6.4036,6.4028,6.4072,6.3902,6.3877,6.5905,6.6207,6.5494,6.4795,6.3271,6.1768,6.226,6.1975,6.14,6.1366,6.0858,6.0419,6.1197,6.14,6.1569,6.2255,6.2956,6.3521,6.3511,6.4062,6.4377,6.369,6.2956,6.2221,6.1467,5.9548,5.7586,5.6139,5.6452,5.6968,5.6968,5.6968,0.0,5.8912,5.9733,6.0148,6.0114,6.0858,6.068,5.9081,5.6325,5.4304,5.3441,4.9916,4.7522,4.6759,4.5345,4.3552,4.1339,3.8368,3.6897,3.6931,0.0,0.0,0.0,0.0,0.0,0.0,0.0,0.0,0.0,0.0,0.0,0.0,0.0,0.0,0.0,0.0,0.0,0.0,0.0,0.0,0.0,0.0,4.7942,4.7811,5.0866,5.385,5.5897,5.8693,6.007,5.9039,6.031,6.1537,6.2331,6.4246,6.5802,6.6835,6.7717,6.8345,6.8704,6.8884,6.9004,6.9004,6.8824,6.872,6.8704,6.8525,6.8435,6.8435,6.7942,6.7613,6.7433,6.6954,6.634,6.5697,6.5533,6.5159,6.4634,6.375,6.3027,6.2614,6.3194,6.3278,6.3174,6.3247,6.3278,6.3252,6.3212,6.3419,6.3599,6.3047,6.3115,6.3396,6.3632,6.37,6.3632,6.3284,6.3352,6.3622,6.4164,6.4028,6.3893,6.4231,6.3734,6.299,6.2255,6.1579,6.0868,5.9902,5.9945,6.025,6.08,6.0868,0.0,6.14,6.1646,6.1342,6.0216,6.1308,6.0825,5.7669,5.6664,5.4735,5.1251,4.8545,4.6522,4.5244,4.4811,4.4303,4.3687,4.0202,3.891,0.0,0.0,0.0,0.0,0.0,0.0,0.0,0.0,0.0,0.0,0.0,0.0,0.0,0.0,0.0,0.0,0.0,0.0,0.0,0.0,0.0,0.0,4.9917,5.3611,5.5692,5.6872,5.8411,6.0864,6.269,6.3707,6.3588,6.453,6.5398,6.6041,6.7433,6.8541,6.9169,6.9858,7.035,7.062,7.0649,7.0649,7.0649,7.0081,6.9812,6.9782,6.9243,6.9004,6.9004,6.86,6.8271,6.7987,6.7583,6.7044,6.643,6.643,6.6191,0.0,0.0,0.0,0.0,0.0,6.3623,6.3489,6.3955,6.4197,6.4289,6.4053,6.4231,6.4512,6.4096,6.4275,6.4546,6.4231,6.413,6.3961,6.3217,6.3284,6.369,6.441,6.4265,6.4096,6.4512,6.4028,6.3284,6.2526,6.2391,0.0,6.1839,6.1231,6.0858,6.096,6.0689,6.0631,6.0926,6.124,6.1095,6.0182,6.1197,6.0655,5.7543,5.6122,0.0,0.0,0.0,4.5406,4.3274,4.2868,0.0,0.0,0.0,4.0047,4.1197,0.0,0.0,0.0,3.8814,3.8436,0.0,0.0,0.0,0.0,0.0,0.0,0.0,0.0,0.0,0.0,0.0,0.0,0.0,0.0,0.0,0.0,5.4255,5.8125,6.3677,6.3528,6.3258,6.4336,6.5562,6.661,6.7284,6.7852,6.8481,6.9153,6.9917,7.0546,7.0979,0.0,0.0,0.0,0.0,7.3133,7.3133,7.1876,7.1188,7.1128,6.9901,6.9303,6.9213,6.9153,6.878,6.8227,6.8167,6.7732,6.7104,6.7104,6.7074,6.7062,6.7693,6.6784,6.5187,6.5676,6.5574,6.5278,6.5745,0.0,0.0,6.495,6.4918,6.4952,6.4783,6.4783,6.4715,6.4062,6.3815,6.3589,6.2821,6.3115,6.3758,6.4333,6.4478,6.4478,6.4478,6.3893,6.3183,6.2526,6.2292,6.2213,6.2213,6.1056,5.9972,5.9477,5.8693,5.8496,5.9274,5.9936,6.0283,6.0114,0.0,0.0,5.7992,5.5378,5.2841,5.0379,4.7462,4.4613,4.1948,4.1123,4.0176,3.8931,4.0041,4.1022,4.184,4.3051,4.437,4.5594,4.1711,4.094,0.0,0.0,0.0,0.0,0.0,0.0,0.0,0.0,0.0,0.0,0.0,0.0,0.0,0.0,0.0,5.3953,5.8877,6.3438,6.6745,6.7493,6.7553,6.7269,6.7926,6.8675,6.9349,6.9482,6.9796,7.047,7.165,7.2146,7.1743,7.3359,7.4138,7.3732,7.4227,7.4497,7.4497,7.3719,7.3043,7.2488,0.0,0.0,7.053,7.0037,6.9738,6.9588,6.9049,6.8421,6.7808,6.7808,6.7493,6.694,6.6598,6.6176,6.5709,6.4747,6.5062,6.5929,6.602,6.6684,6.7371,6.6611,6.6768,6.7049,6.5842,6.5899,0.0,6.6193,6.573,6.5097,6.4377,6.4275,6.4265,6.3825,6.3714,6.3714,6.3714,6.3115,6.256,6.2424,6.1625,6.0943,6.0943,6.0711,6.0776,6.1611,6.0772,6.0487,6.1607,6.1883,6.1477,6.0216,6.0825,6.0148,5.7273,5.6494,5.4659,5.1209,4.8206,4.6319,4.5737,4.5026,4.4756,4.5067,4.4188,4.4398,4.571,4.5399,4.5425,4.5696,4.5406,4.5507,0.0,0.0,0.0,0.0,0.0,0.0,0.0,0.0,0.0,0.0,0.0,4.3752,0.0,0.0,5.5233,5.8178,6.251,6.6445,6.9079,6.9722,6.9722,6.9079,6.9558,7.0201,7.0875,7.1517,7.2056,7.2385,7.3625,7.427,7.3911,7.5138,7.5707,7.536,7.5677,7.5856,7.5856,7.5228,7.4569,7.3881,7.324,7.2355,7.1398,7.1085,7.0606,6.9977,6.9648,6.9139,6.8481,6.8137,6.7583,6.6984,6.664,6.6311,6.5832,6.4485,6.5567,6.7539,6.6453,6.7675,6.9508,6.8332,6.8189,6.8368,6.7624,6.7387,6.7275,6.6903,6.6271,6.5537,6.4783,6.4613,6.4512,6.413,6.3758,6.3511,6.3511,6.2468,6.1614,6.1917,6.0765,5.9816,6.0151,5.9428,5.9193,6.0417,6.0586,6.0828,6.1419,6.203,6.2086,6.1332,6.0926,5.9936,5.8075,5.6562,5.4397,5.1404,4.9822,4.8503,4.7387,4.7015,4.6812,4.6793,4.6455,4.6609,4.7353,4.6974,4.6981,4.7353,4.7733,4.7503,0.0,0.0,0.0,0.0,0.0,0.0,0.0,0.0,4.1424,4.3988,4.6242,4.8596,5.1265,5.5029,5.8887,6.2465,6.5682,6.8615,7.1128,7.1607,7.1564,7.1204,7.1218,7.1607,7.2402,7.3479,7.4168,7.427,7.5527,7.6155,7.5916,7.6706,7.7125,7.7006,7.7125,7.7185,7.7185,7.6587,7.5916,7.5275,7.4599,7.3599,7.2282,7.2282,7.1593,7.0366,7.0097,6.9678,6.9123,6.8331,6.7673,6.7194,6.7044,6.667,6.6041,6.4844,6.6202,6.841,6.6716,6.7934,7.009,6.8896,6.8696,6.8897,6.8728,6.832,6.7793,6.7377,6.6609,6.5808,6.5358,6.5121,6.4986,6.485,6.4231,6.3664,6.3407,6.1918,6.0742,6.1153,5.9742,5.861,5.9148,5.7809,5.7146,5.8587,5.9621,6.0342,6.0565,6.1656,6.2391,6.2391,6.1028,5.98,5.9056,5.6562,5.4296,5.2596,5.1945,5.0863,4.907,4.8698,4.8259,4.7673,4.8097,4.8394,4.8522,4.8394,4.8638,4.9221,4.9349,4.8714,3.5154,3.3844,3.3888,3.6528,3.7956,4.0019,0.0,0.0,4.9471,5.157,5.4491,5.6769,5.7158,6.0462,6.3871,6.6086,6.8704,7.1188,7.3283,7.4078,7.4646,7.5168,7.3715,7.3163,7.4437,7.4706,7.5035,7.5647,7.6874,7.7095,7.5976,7.7592,7.831,7.7694,7.828,7.8579,7.8579,7.7921,7.7245,7.6587,7.5958,7.4958,7.3672,7.3672,7.297,7.1623,7.0486,6.9947,6.9798,6.8511,6.7958,6.7838,6.7224,6.6954,6.6789,6.6041,6.6027,6.6337,6.6147,6.6359,6.6645,6.6492,6.7232,6.8097,6.7437,6.7547,6.803,6.8673,6.7783,6.6802,6.7387,6.7039,6.6396,6.574,6.5019,6.4169,6.3018,6.1638,6.0465,6.0071,5.8489,5.7217,5.731,5.6268,5.617,5.8451,5.8913,5.939,6.0459,6.1656,6.2391,6.2391,6.1028,5.98,5.9056,5.75,5.6731,5.7112,5.4702,5.3137,5.2866,5.1573,5.0795,5.0694,5.0135,5.0168,5.0829,5.0168,4.9906,4.9973,5.0634,5.0499,3.9167,3.8409,3.8571,0.0,4.4416,4.6679,5.044,5.2803,5.479,5.6808,5.9518,6.1778,6.2556,6.5323,6.8002,0.0,7.1427,7.3223,7.4839,7.4976,7.4856,7.4749,7.433,7.4569,7.5886,7.6365,7.6874,7.7532,7.8071,7.831,7.8172,7.8579,7.8669,7.84,7.8639,7.8807,7.8807,7.8519,7.8041,7.7365,7.7125,7.6125,7.4497,7.4497,7.3539,7.1863,7.1354,7.0696,6.9947,6.9409,6.869,6.7987,6.7688,6.7343,6.6909,6.6251,6.7342,6.8893,6.7243,6.7805,6.9039,6.7747,6.7444,6.765,6.8143,6.8162,6.8259,6.9422,6.8977,6.8222,6.8504,6.8368,6.7817,6.6643,6.554,6.4284,6.2506,6.0783,5.9548,5.9332,5.8073,5.7188,5.7557,5.661,5.6111,5.7156,5.7561,5.7946,5.843,5.99,6.0973,6.1204,6.1739,6.1424,5.9766,5.9496,5.8964,5.7958,5.674,5.5683,5.4828,5.3754,5.2968,5.2562,5.1792,5.1311,5.1201,5.0473,5.0312,5.0736,5.1066,5.1277,4.0844,0.0,0.0,4.6969,4.9991,5.2594,5.5466,5.7603,5.9621,6.1836,6.3917,6.5832,6.7358,6.9363,7.1278,7.2744,7.4121,7.5377,7.6544,7.6125,7.5395,7.454,7.4557,7.5138,7.6437,7.7125,7.7981,7.8998,7.9088,7.9357,8.0027,7.9627,7.9357,7.9357,7.9178,7.9088,7.9088,7.8878,7.8549,7.8071,7.8071,7.7143,7.5425,7.4856,7.3719,7.2192,7.1983,7.1264,7.0217,6.9858,6.9139,6.8241,6.8077,6.7583,6.6984,6.6879,6.8263,6.9841,6.7584,6.8074,6.9404,6.7615,6.698,6.7063,6.8052,6.8369,6.8623,6.9867,6.9827,6.9451,6.9654,6.9266,6.8517,6.7174,6.5569,6.3796,6.1915,6.0119,5.8857,5.8709,5.7803,5.7244,5.7739,5.7064,5.6402,5.6222,5.6532,5.6903,5.7222,5.8899,6.0232,6.0671,6.2083,6.2371,6.0873,6.1095,6.0588,5.8939,5.8229,5.7417,5.635,5.5412,5.4668,5.4118,5.3543,5.2866,5.2122,5.1792,5.1826,5.2156,5.2351,5.2731,0.0,0.0,4.28,4.8652,5.3084,5.6868,6.0133,6.2376,6.4545,6.7194,6.8331,6.9423,7.1384,7.2325,7.3445,7.5467,7.6844,7.7921,7.8609,7.813,7.7263,7.6006,7.4719,7.445,0.0,7.6467,7.7664,7.9608,7.9758,8.0057,8.0734,8.0764,8.0734,8.0734,8.0087,7.9758,7.9758,7.9118,7.8807,7.8759,7.8759,7.8071,7.6676,7.4809,7.3552,7.2817,7.2176,7.1517,7.0769,6.9542,6.9004,6.8914,6.8241,6.7583,6.7164,6.8435,6.8168,6.7032,6.6282,6.5682,6.5097,6.4363,6.5057,6.6144,6.6185,6.7539,6.924,7.0004,7.0183,7.0342,7.1064,6.9707,6.7956,6.7246,6.4938,6.2541,6.1276,5.9904,5.8748,5.8223,5.7556,5.7094,5.7137,5.7094,5.6868,5.6282,5.6201,5.6655,5.7819,5.9546,6.0885,6.1501,6.163,6.1853,6.2302,6.1704,6.1264,6.1197,5.9109,5.7891,5.7832,5.6452,5.5665,5.5631,5.5597,5.5234,5.4507,5.52,5.5166,5.4507,5.5234,5.5564,0.0,0.0,5.0552,5.6064,5.9428,6.2135,6.5009,6.652,6.7463,6.7928,6.7478,6.7073,6.7283,6.7851,6.9407,7.2714,7.5108,7.7083,7.8597,7.8627,7.7173,7.3659,7.4018,0.0,0.0,0.0,0.0,8.0255,8.0057,8.0266,8.1411,8.1033,8.0794,8.0794,8.0584,8.0237,7.9788,7.9578,7.9238,7.8807,7.7921,7.7245,7.6749,7.5258,7.4197,7.3522,7.2864,7.2176,7.1487,7.062,6.9752,6.9034,6.9183,6.8615,6.7762,6.8675,6.8704,6.8286,6.8076,6.791,6.7607,6.6388,6.5696,6.5541,6.6495,6.7252,6.8195,7.0313,7.0226,6.9651,7.043,6.9403,6.7871,6.6713,6.5027,6.3321,6.1952,6.098,6.0166,5.954,5.9249,5.9219,5.9697,5.8291,5.6898,5.6282,5.582,5.5986,5.7232,5.8721,5.9862,6.0399,6.2452,6.3463,6.2659,6.3164,6.3057,6.2086,6.0868,5.9708,5.8684,5.7679,5.6934,5.6452,5.5936,5.5564,5.5336,5.5564,5.5564,5.5336,5.5564,5.5699,0.0,5.1618,5.591,6.1479,6.3977,6.5787,6.8421,6.884,6.86,6.8391,6.6565,6.4844,6.4411,6.4291,6.5518,6.9498,7.1803,7.418,7.7322,7.6951,7.5514,7.324,7.3479,7.3419,0.0,0.0,0.0,7.9507,7.9758,8.0405,8.174,8.162,8.153,8.153,8.1272,8.0823,8.0147,7.9907,7.9459,7.8807,7.7664,7.7018,7.6749,7.5736,7.4629,7.3522,7.3343,7.2624,7.1534,7.1338,7.05,6.9423,7.0005,6.9482,6.8451,6.9363,6.9542,6.9303,6.9093,6.8893,6.8571,6.738,6.643,6.5832,6.6519,6.7061,6.782,6.9646,6.9653,6.9227,6.9746,6.8852,6.7529,6.6359,6.5057,6.3683,6.2313,6.1742,6.1194,6.028,6.01,6.025,6.0685,5.9308,5.7885,5.7017,5.6496,5.6526,5.7363,5.8412,5.9405,6.0224,6.2226,6.3386,6.3133,6.3606,6.36,6.2825,6.1839,6.0849,5.9868,5.9099,5.8355,5.7602,5.7119,5.6612,5.608,5.635,5.635,5.6105,5.635,5.6486,5.1582,5.5611,5.9023,6.4844,6.6759,6.7867,7.038,6.9409,6.8137,6.8585,6.5488,6.2644,0.0,0.0,6.2167,6.6221,6.7703,7.0187,7.5437,7.3971,7.306,0.0,0.0,0.0,0.0,0.0,0.0,7.7682,0.0,8.0356,8.177,8.2447,8.2806,8.2806,8.2189,8.153,8.0853,8.0147,7.9477,7.8819,7.813,7.7454,7.6779,7.6185,7.4822,7.3027,7.3612,7.2774,7.1098,7.1683,7.1174,7.0097,7.0709,7.0171,6.9213,7.044,7.053,6.9947,6.9303,6.863,6.7958,6.7313,6.7074,6.6879,6.6236,6.6982,6.8057,6.8143,6.8572,6.8994,6.9029,6.8027,6.6832,6.6183,6.5002,6.3677,6.245,6.2181,6.1822,6.0549,6.031,6.025,6.007,6.01,5.9668,5.8294,5.8115,5.8145,5.8085,5.8667,5.9519,6.0776,6.0951,6.1724,6.351,6.31,6.2972,6.3428,6.2172,6.139,6.1298,6.0554,5.98,5.9081,5.9056,5.838,5.6968,5.762,5.7586,5.6925,5.7586,5.7891,5.8544,6.2495,6.5428,6.9393,7.0141,7.0201,7.1368,6.9738,6.7359,6.5069,6.0669,5.6585,0.0,0.0,0.0,6.462,6.9782,0.0,7.8938,7.9387,0.0,7.6557,0.0,7.6664,7.5736,7.6365,0.0,0.0,7.8849,8.0094,8.2417,8.2717,8.2806,8.2806,8.2627,8.2219,8.156,8.0386,7.9698,7.9519,7.837,7.7454,7.6779,7.6185,7.5347,7.4347,7.3522,7.3163,7.3073,7.2252,7.1414,7.0739,7.1398,7.0875,6.9858,7.062,7.0799,7.0649,7.047,6.9692,6.8704,6.8555,6.7807,6.6984,6.6789,6.7004,6.7501,6.8591,6.8235,6.7683,6.8265,6.6975,6.5495,6.5314,6.46,6.3917,6.3588,6.3528,6.3408,6.3079,6.3019,6.2241,5.9787,6.0176,6.0222,5.8384,5.8517,5.8667,5.8145,5.8234,5.8664,5.9489,6.0432,6.1206,6.1662,6.2837,6.3342,6.2919,6.2911,6.2439,6.1366,6.1086,6.0612,5.9834,5.98,5.9631,5.9268,5.8887,5.8616,5.8447,5.8051,5.7891,6.3587,6.7164,6.9678,7.1787,7.1607,7.062,6.9542,6.7059,6.3617,5.886,5.4371,0.0,0.0,0.0,0.0,0.0,0.0,0.0,7.831,7.8878,7.8627,0.0,7.8519,0.0,7.7694,7.7981,7.8759,0.0,7.9836,8.0453,8.2268,8.2627,8.2806,8.2806,8.2806,8.2357,8.1362,8.0326,7.9638,7.9357,7.8609,7.7724,7.6779,7.6467,7.5617,7.4437,0.0,7.3672,7.3462,7.33,7.2491,7.1398,7.2086,7.1547,7.044,7.0769,7.0889,7.0889,7.0889,7.026,6.9393,6.9093,6.8495,6.7792,6.7194,6.7014,6.7168,6.8013,6.7653,6.7093,6.7542,6.6777,6.5877,6.5877,6.5592,6.5233,6.4934,6.4874,6.4635,6.3782,6.3602,6.2839,6.0416,6.1104,6.1283,5.9279,5.9548,5.9624,5.8667,5.8547,5.8697,5.9069,5.9732,6.064,6.1784,6.2558,6.3261,6.396,6.3985,6.3453,6.2303,6.2269,6.1762,6.0655,6.0622,6.0452,6.0114,5.9361,5.9013,5.8979,5.8254,5.7891,6.7523,7.0426,7.2372,7.3206,7.2339,7.038,6.6804,6.3184,5.8667,5.1923,0.0,4.5194,4.4127,4.6781,5.1492,5.859,0.0,6.9108,7.6557,7.6574,7.6921,7.9866,7.9686,7.9555,8.0147,7.9656,8.0064,8.18,8.1392,8.1302,8.189,8.2477,8.2806,8.2806,8.2806,8.2238,8.1063,8.0296,7.9656,7.9076,7.8897,7.816,7.6946,7.6838,7.5869,7.43,7.4616,7.4168,7.3253,7.4317,7.3629,7.1983,7.2654,7.2069,7.0889,7.0889,7.0889,7.0889,7.0889,7.056,7.0007,6.9333,6.9064,6.8794,6.7627,6.7284,6.7284,6.7284,6.7194,6.7134,6.7134,6.7014,6.6894,6.6984,6.6939,6.67,6.6131,6.5996,6.5443,6.3572,6.3273,6.2914,6.1493,6.2271,6.2435,6.0519,6.0745,6.0641,5.9398,5.9159,5.9099,5.9099,5.9099,6.0088,6.2512,6.2321,6.3023,6.5285,6.5015,6.441,6.369,6.3656,6.3014,6.1627,6.1603,6.1197,6.0385,5.9665,5.9327,5.9284,5.8457,5.8094,7.1607,7.321,7.3971,7.5689,7.4732,7.2086,6.7148,6.1732,0.0,0.0,4.4097,4.1534,4.1843,4.5494,5.169,6.1553,6.661,0.0,0.0,0.0,8.1022,0.0,0.0,0.0,0.0,0.0,0.0,0.0,8.2537,8.2507,8.2627,8.2747,8.2806,8.2806,8.2806,8.2687,8.2447,8.1242,8.0584,8.0434,7.9327,7.84,7.7604,7.7065,7.6617,7.6228,7.4719,0.0,7.4527,7.4197,7.321,7.1983,7.2654,7.2069,7.0889,7.0889,7.0889,7.0889,7.0889,7.0829,7.0649,7.0037,6.9453,6.8944,6.8734,6.8645,6.8645,6.8645,6.8271,6.7838,6.7838,6.7014,6.6311,6.6864,6.658,6.6131,6.6041,6.5996,6.5577,6.4126,6.4306,6.4082,6.2241,6.2584,6.2614,6.1164,6.103,6.0821,6.004,5.9428,5.9099,5.9099,5.9099,5.9722,6.1205,6.2258,6.3183,6.4079,6.4982,6.5189,6.4444,6.44,6.3994,6.3149,6.3115,6.2753,6.1985,6.1264,6.0892,6.0883,5.9462,5.9124,7.2774,7.4869,7.6425,7.6347,7.4313,7.032,6.2644,0.0,0.0,0.0,3.8362,3.7233,3.8589,4.289,0.0,5.7047,6.2614,6.875,7.7011,0.0,0.0,0.0,0.0,0.0,0.0,0.0,0.0,8.2806,8.2806,8.2806,8.2806,8.2806,8.2806,8.2806,8.2806,8.2627,8.2279,8.1302,8.0614,8.0285,7.9267,7.846,7.7801,7.7125,7.6779,7.6719,7.5497,7.5108,7.5395,7.5078,7.4151,7.2924,7.2907,7.2295,7.1368,7.1038,7.0889,7.0889,7.0889,7.0889,7.0859,7.056,7.0037,6.9468,6.9093,6.9004,6.9004,6.9004,6.8511,6.7987,6.7987,6.7254,6.661,6.6909,6.6759,6.652,6.652,6.652,6.6221,6.5233,6.5009,6.459,6.3318,6.3093,6.2764,6.1762,6.1598,6.1253,6.022,5.9831,5.9488,5.9129,5.9099,5.9891,6.1871,6.2621,6.3673,6.5267,6.5933,6.5933,6.5199,6.5165,6.4816,6.4096,6.369,6.3318,6.2956,6.1839,6.1298,6.1264,6.0105,5.9766,7.3894,7.6425,7.843,7.6904,7.3702,6.8315,5.8467,5.1361,0.0,0.0,3.3552,3.3724,3.5887,3.9858,4.5055,0.0,5.7154,6.3528,7.2445,7.4839,0.0,0.0,0.0,0.0,0.0,0.0,0.0,8.2806,8.2806,8.2806,8.2806,8.2806,8.2806,8.2806,8.2806,8.2477,8.18,8.1123,8.0464,7.9788,7.9118,7.8519,7.7981,7.7335,7.7095,7.7185,7.6407,7.6018,7.5916,7.5916,7.5018,7.3642,7.3266,7.2624,7.1833,7.1308,7.1009,7.0889,7.0889,7.0889,7.0889,7.0889,7.056,7.0097,6.9572,6.9423,6.9423,6.9423,6.8914,6.8391,6.8437,6.7822,6.7194,6.7029,6.7014,6.7014,6.7014,6.7014,6.6789,6.6131,6.5577,6.4949,6.4126,6.3602,6.3063,6.2405,6.2181,6.1702,6.0669,6.04,6.007,5.9398,5.9189,6.0154,6.2787,6.3016,6.4091,6.662,6.6802,6.6531,6.5977,6.5943,6.5605,6.485,6.4265,6.3825,6.3511,6.2337,6.1694,6.1535,6.0723,6.0452,7.7131,7.8519,7.8777,7.8579,7.4689,6.8315,5.8467,0.0,0.0,3.4464,3.2146,3.2467,3.5092,3.6917,4.1165,5.075,5.3773,5.9145,7.1291,7.4168,7.6921,8.2178,0.0,0.0,0.0,0.0,0.0,8.2806,8.2806,8.2806,8.2806,8.2806,8.2806,8.2806,8.2806,8.2477,8.18,8.1123,8.0464,7.9788,7.9118,7.8777,7.8687,7.8011,7.8041,7.8549,7.7275,7.6407,0.0,7.5916,7.4749,7.3057,7.3582,7.303,7.1893,7.1833,7.1427,7.0889,7.0889,7.0889,7.0889,7.0889,7.0859,7.0799,7.0739,7.0739,7.0739,7.0739,7.0244,6.9736,6.9798,6.8886,6.7748,6.7134,6.7014,6.7014,6.7014,6.7014,6.6789,6.6131,6.5936,6.5488,6.4216,6.3947,6.3722,6.3093,6.2495,6.2076,6.1942,6.1359,6.0731,6.007,5.9458,6.0154,6.2787,6.3016,6.4091,6.662,6.6802,6.6768,6.67,6.67,6.6328,6.5605,6.5537,6.485,6.3511,6.3342,6.2946,6.2289,6.1535,6.1535,7.5185,7.7891,7.9208,7.84,7.3642,6.6565,5.6641,0.0,4.0855,3.3432,3.1083,3.115,3.3814,3.5362,3.8212,4.4137,4.6879,5.1786,6.1973,6.5248,6.9602,7.7699,7.9297,0.0,0.0,0.0,8.2806,8.2806,8.2806,8.2806,8.2806,8.2806,8.2806,8.2806,8.2806,8.2847,8.2929,8.1512,8.0853,8.0973,7.9507,7.8998,7.9387,7.8699,7.8759,7.9327,7.7963,7.6826,0.0,7.5916,7.4958,7.3522,7.3791,7.3343,7.2445,7.2042,7.1474,7.0889,7.0889,7.0889,7.0889,7.0889,7.0889,7.0889,7.0889,7.0889,7.0889,7.0889,7.044,6.9871,6.9498,6.8391,6.7313,6.7074,6.7014,6.7014,6.7014,6.7014,6.6909,6.664,6.6281,6.5697,6.477,6.4276,6.3797,6.3183,6.2854,6.2555,6.2151,6.1882,6.1283,6.022,5.9861,6.0594,6.2819,6.3016,6.4091,6.662,6.6802,6.6802,6.6802,6.6802,6.6667,6.6373,6.5943,6.5402,6.4816,6.4377,6.3792,6.3057,6.3226,6.3226,7.2851,7.6724,7.898,7.8041,7.2415,6.462,0.0,0.0,3.899,3.2534,3.0485,3.0499,3.2519,3.3985,3.605,3.955,4.2162,4.68,5.5615,5.9115,6.3917,0.0,0.0,7.6784,0.0,8.1878,8.2806,8.2806,8.2806,8.2806,8.2806,8.2806,8.2806,8.2806,8.2806,8.2907,8.3138,8.1601,8.1033,8.15,7.9866,7.9447,8.0057,7.9417,7.9238,7.9429,7.8292,7.6963,0.0,7.5826,7.5108,7.3911,7.4138,7.3672,7.2847,7.2355,7.1637,7.0889,7.0889,7.0889,7.0889,7.0889,7.0889,7.0889,7.0889,7.0889,7.0889,7.0889,7.059,7.0127,6.9453,6.8451,6.7537,6.7343,6.7134,6.7014,6.7014,6.7014,6.7014,6.7014,6.661,6.6086,6.5428,6.4889,6.4366,6.3752,6.3482,6.3213,6.272,6.2525,6.1882,6.0535,6.0386,6.11,6.2851,6.3016,6.4091,6.662,6.6802,6.6802,6.6802,6.6802,6.6802,6.6802,6.6305,6.5909,6.5706,6.5189,6.4546,6.3825,6.4367,6.4333,7.0962,7.53,7.7831,7.7801,7.1351,6.2781,0.0,0.0,3.7716,3.1742,3.0485,3.0695,3.1391,3.2609,3.4801,3.8763,4.1094,4.5645,5.4905,5.8467,6.1836,0.0,0.0,7.1354,7.4646,7.9723,8.2806,8.2806,8.2806,0.0,8.2806,8.2806,8.2806,8.2806,8.2806,8.2477,8.183,8.1123,8.0794,8.0794,8.0117,8.0147,8.0764,8.0087,7.9429,7.8759,7.81,7.6694,0.0,7.5617,7.5108,7.3988,7.4616,7.4061,7.2907,7.2877,7.2056,7.0889,7.0889,7.0889,7.0889,7.0889,7.0889,7.0889,7.0889,7.0889,7.0889,7.0889,7.0889,7.0739,7.0157,6.9498,6.8794,6.8167,6.7493,6.7014,6.7014,6.7014,6.7014,6.7014,6.6999,6.6759,6.6101,6.5966,6.5757,6.5084,6.4411,6.3977,6.3977,6.3452,6.2584,6.1239,6.109,6.1622,6.2883,6.3016,6.4091,6.662,6.6802,6.6802,6.6802,6.6802,6.6802,6.6802,6.6791,6.644,6.5706,6.5672,6.53,6.458,6.4613,6.4613,6.013,6.3887,6.6056,6.468,6.0625,5.5149,4.8356,0.0,3.7285,3.2206,3.0807,3.0837,3.1974,3.3275,3.5476,3.9439,4.1403,4.4677,5.1187,0.0,0.0,6.7014,7.4244,7.9154,0.0,0.0,8.2806,8.2806,8.2806,8.2806,8.2806,8.2806,8.2806,8.2806,8.2357,8.2219,8.2477,8.1381,8.1033,8.1471,8.0794,8.0823,8.1471,8.0794,8.0375,8.0075,7.8489,7.6694,7.4933,7.5125,7.442,7.3343,7.4467,7.4078,7.2907,7.2907,7.2039,7.0889,7.0889,7.0889,7.0889,7.0889,7.0889,7.0889,7.0889,7.0889,7.0889,7.0889,7.059,7.0157,6.9498,6.881,6.8151,6.7493,6.7164,6.7014,6.7014,6.7014,6.7014,6.7014,6.7014,6.6789,6.6131,6.5996,6.5757,6.5084,6.4815,6.4665,6.4665,6.4126,6.3378,6.2555,6.2061,6.211,6.2934,6.3016,6.4091,6.662,6.6802,6.6802,6.6802,6.6802,6.6802,6.6802,6.6802,6.67,6.643,6.643,6.6328,6.6092,6.5595,6.5628,0.0,5.6526,5.9069,5.8308,5.488,0.0,0.0,0.0,3.6507,3.2348,3.1585,3.1742,3.2056,3.3626,3.5827,3.8781,4.0834,4.3858,4.9123,0.0,0.0,6.7209,0.0,0.0,0.0,8.1789,8.2806,8.2806,8.2806,8.2806,8.2806,8.2567,8.2537,8.2776,8.2417,8.2387,8.2806,8.171,8.153,8.2159,8.15,8.1411,8.177,8.1111,8.0375,7.9597,7.8083,7.6335,0.0,7.4796,7.4257,7.3402,7.4467,7.4078,7.2907,7.2907,7.2039,7.0889,7.0889,7.0889,7.0889,7.0889,7.0889,7.0889,7.0889,7.0889,7.0889,7.0889,7.062,7.0247,6.9842,6.9049,6.8271,6.7837,6.7373,6.7014,6.7014,6.7014,6.7014,6.7014,6.7014,6.6864,6.646,6.637,6.6251,6.5817,6.5547,6.5398,6.5398,6.456,6.3955,6.3849,6.2806,6.2632,6.4018,6.3665,6.4361,6.6654,6.6802,6.6802,6.6802,6.6802,6.6802,6.6802,6.6802,6.6802,6.6802,6.6802,6.6802,6.6802,6.6339,6.6373,0.0,0.0,0.0,0.0,0.0,0.0,0.0,0.0,0.0,3.2168,3.2482,3.3028,3.1906,3.3738,3.593,3.7426,3.9858,0.0,0.0,5.378,0.0,0.0,7.2671,0.0,7.6125,8.0184,8.2806,8.2806,8.2806,8.2776,8.2747,8.2189,8.2129,8.2717,8.2776,8.2776,8.2717,8.2069,8.2039,8.2657,8.2069,8.177,8.171,8.0973,7.9656,0.0,7.7006,7.5629,7.4018,7.4587,7.4467,7.3941,7.4587,7.4031,7.2877,7.2847,7.2026,7.0889,7.0889,7.0889,7.0889,7.0889,7.0889,7.0889,7.0889,7.0889,7.0889,7.0889,7.0889,7.0889,7.0859,6.9931,6.9004,6.8944,6.7986,6.7074,6.7074,6.7074,6.7074,6.7074,6.7029,6.7014,6.7014,6.7014,6.7014,6.7014,6.646,6.6056,6.6056,6.4904,6.4377,6.518,6.3386,6.3256,6.5907,6.4818,6.4793,6.6688,6.6802,6.6802,6.6802,6.6802,6.6802,6.6802,6.6802,6.6802,6.6802,6.6802,6.6802,6.6802,6.6802,6.6802,0.0,0.0,0.0,0.0,0.0,0.0,0.0,0.0,0.0,0.0,0.0,3.2325,3.3582,3.4308,3.5985,0.0,0.0,4.4427,4.8689,0.0,0.0,7.3954,7.8418,8.0393,7.901,8.1261,8.2806,8.2806,8.2806,8.2567,8.2069,8.2368,8.2417,8.2039,8.2537,8.2567,8.2039,8.1362,8.1093,8.1272,8.162,8.153,8.0973,7.9806,7.8998,7.843,7.6275,7.5095,7.4646,7.4287,7.4031,7.3911,7.4061,7.3642,7.2847,7.2325,7.1607,7.0889,7.0889,7.0889,7.0889,7.0889,7.0889,7.0889,7.0889,7.0889,7.0889,7.0889,7.0889,7.0799,7.0336,6.9602,6.8854,6.8361,6.7972,6.7778,6.7778,6.7778,6.7778,6.7778,6.7343,6.7014,6.7014,6.7014,6.7014,6.7014,6.6864,6.6759,6.6759,6.5577,6.5238,6.6481,6.4357,6.4163,6.7338,6.538,6.4793,6.6688,6.6802,6.6802,6.6802,6.6802,6.6802,6.6802,6.6802,6.6802,6.6802,6.6802,6.6802,6.6802,6.6802,6.6802,2.9535,3.2317,3.4861,0.0,0.0,0.0,0.0,0.0,0.0,0.0,0.0,0.0,3.3395,3.5086,0.0,0.0,4.3639,0.0,0.0,0.0,7.0995,7.6587,7.9716,8.1381,0.0,8.2159,8.2806,8.2806,8.2806,8.2627,8.2297,8.2309,8.2327,8.2249,8.2009,8.2009,8.2249,8.159,8.1242,8.1242,8.1302,8.0823,7.9866,7.9118,7.831,7.7382,7.5634,7.4886,7.4856,7.4197,7.4061,7.4317,7.4001,7.3492,7.2817,7.2162,7.1474,7.0889,7.0889,7.0889,7.0889,7.0889,7.0889,7.0889,7.0889,7.0889,7.0889,7.0889,7.0889,7.0829,7.0516,6.9947,6.9379,6.899,6.869,6.8361,6.8077,6.7987,6.7928,6.7583,6.7254,6.7014,6.7014,6.7014,6.7014,6.7014,6.7014,6.7014,6.7014,6.6086,6.6137,6.7839,6.5878,6.5728,6.8802,6.6804,6.5934,6.7237,6.7005,6.6802,6.6802,6.6802,6.6802,6.6802,6.6802,6.6802,6.6802,6.6802,6.6802,6.6802,6.6802,6.6802,2.8094,3.1351,3.4607,3.4472,0.0,0.0,0.0,0.0,0.0,0.0,0.0,0.0,0.0,3.6686,0.0,0.0,0.0,0.0,6.3438,6.8211,7.2491,7.7233,7.9249,0.0,8.2189,8.2627,8.2806,8.2806,8.2806,8.2717,8.2507,8.2129,8.2129,8.2477,8.15,8.15,8.2627,8.1979,8.165,8.165,8.0853,7.9836,7.8639,7.843,7.7442,7.5856,0.0,0.0,7.4856,7.4197,7.4317,7.4826,7.4031,7.3402,7.2817,7.2026,7.1398,7.0889,7.0889,7.0889,7.0889,7.0889,7.0889,7.0889,7.0889,7.0889,7.0889,7.0889,7.0889,7.0889,7.0889,7.044,7.0007,7.0007,6.9558,6.8974,6.8301,6.8227,6.8107,6.7433,6.7208,6.7164,6.7164,6.7074,6.7014,6.7014,6.7014,6.7014,6.7014,6.64,6.6721,6.8604,6.6989,6.695,6.9815,6.7978,6.7089,6.8012,6.7275,6.6802,6.6802,6.6802,6.6802,6.6802,6.6802,6.6802,6.6802,6.6802,6.6802,6.6802,6.6802,6.6802,3.0299,3.3088,3.4442,3.0612,0.0,0.0,0.0,0.0,0.0,0.0,0.0,0.0,0.0,4.1036,4.3868,0.0,0.0,6.0086,0.0,0.0,7.5065,7.7502,0.0,8.18,8.0405,8.18,8.2806,8.2806,8.2806,8.2297,8.1171,8.2069,8.2159,8.1123,8.1471,8.174,8.1949,8.1291,8.0943,8.0943,7.9686,7.8699,7.7921,7.6844,7.6185,7.5826,0.0,7.4377,7.4856,7.4197,7.4317,7.4766,7.3552,7.2997,7.2757,7.1517,7.0979,7.0889,7.0889,7.0889,7.0889,7.0889,7.0889,7.0889,7.0889,7.0889,7.0889,7.0889,7.0889,7.0889,7.0889,7.044,7.0007,7.0007,6.9917,6.9678,6.8974,6.9289,6.9498,6.8824,6.8241,6.7868,6.7868,6.7373,6.7014,6.7014,6.7014,6.7014,6.7014,6.64,6.6354,6.7302,6.5568,6.5682,6.907,6.6802,6.6273,6.8768,6.758,6.6802,6.6802,6.6802,6.6802,6.6802,6.6802,6.6802,6.6802,6.6802,6.6802,6.6802,6.6802,6.6802,2.9062,3.1323,3.317,3.249,0.0,0.0,0.0,0.0,0.0,0.0,0.0,0.0,0.0,0.0,4.9729,5.7949,0.0,6.6251,7.1474,7.4078,7.6305,0.0,0.0,8.1242,8.1411,8.2249,8.2806,8.2806,8.2806,8.2537,8.1919,8.2477,8.2357,8.1362,8.165,8.162,8.1242,8.0584,8.0266,8.0237,7.8908,7.7921,7.7245,7.6317,7.5707,7.5305,0.0,7.4287,7.4856,7.4197,7.4061,7.4257,7.3266,7.2684,7.2235,7.1248,7.0889,7.0889,7.0889,7.0889,7.0889,7.0889,7.0889,7.0889,7.0889,7.0889,7.0889,7.0889,7.0889,7.0889,7.0889,7.0679,7.0486,7.0486,7.0486,7.032,6.9678,6.9798,6.9798,6.9123,6.8734,6.8541,6.8541,6.7972,6.7523,6.7523,6.7224,6.7014,6.7014,6.6729,6.6808,6.7565,6.6459,6.6765,6.9526,6.7826,6.6968,6.7811,6.7208,6.6802,6.6802,6.6802,6.6802,6.6802,6.6802,6.6802,6.6802,6.6802,6.6802,6.6802,6.6802,6.6802,2.8567,3.0552,3.2983,0.0,0.0,0.0,0.0,0.0,0.0,0.0,0.0,0.0,0.0,5.0368,0.0,6.5757,6.9243,7.2056,7.5574,7.6754,7.8071,8.0255,8.0494,8.1093,8.2657,8.2806,8.2747,8.2567,8.2717,8.2657,8.2357,8.2477,8.2249,8.159,8.1261,8.0872,8.0345,7.9519,7.9249,7.9548,7.8202,7.7215,7.6587,7.5946,7.5395,7.4856,7.4377,7.4437,7.4856,7.4197,7.3881,7.3821,7.2984,7.2265,7.1593,7.1098,7.0889,7.0889,7.0889,7.0889,7.0889,7.0889,7.0889,7.0889,7.0889,7.0889,7.0889,7.0889,7.0889,7.0889,7.0889,7.0889,7.0889,7.0889,7.0889,7.0739,7.0127,7.0097,7.0037,6.9363,6.9243,6.9183,6.9034,6.8451,6.7958,6.7808,6.7313,6.7014,6.7014,6.7014,6.7291,6.8059,6.736,6.7537,6.9297,6.8615,6.7881,6.737,6.7005,6.6802,6.6802,6.6802,6.6802,6.6802,6.6802,6.6802,6.6802,6.6802,6.6802,6.6802,6.6802,6.6802,3.1502,3.3656,3.54,3.6216,0.0,0.0,4.3449,0.0,0.0,0.0,0.0,0.0,0.0,5.8786,6.48,6.7493,7.2595,7.7006,7.913,0.0,8.168,8.2507,8.2597,8.2627,8.2776,8.2806,8.2537,8.1919,8.2447,8.2249,8.1003,8.153,8.156,8.0883,7.9656,7.8986,7.8956,7.7664,7.7634,7.8867,7.7514,7.6557,7.5929,7.5275,7.4946,7.4886,7.4856,7.4873,7.4856,7.4197,7.3881,7.3762,7.2491,7.1547,7.0979,7.0919,7.0889,7.0889,7.0889,7.0889,7.0889,7.0889,7.0889,7.0889,7.0889,7.0889,7.0889,7.0889,7.0889,7.0889,7.0889,7.0889,7.0889,7.0889,7.0889,7.0739,7.0127,7.044,7.0649,7.0037,6.9917,6.9738,6.9123,6.8451,6.7808,6.7164,6.7044,6.7014,6.7014,6.7014,6.7291,6.8114,6.6905,6.6403,6.7168,6.7753,6.8324,6.8901,6.758,6.6802,6.6802,6.6802,6.6802,6.6802,6.6802,6.6802,6.6802,6.6802,6.6802,6.6802,6.6802,6.6802,2.9804,3.3036,3.6567,3.8461,0.0,0.0,0.0,0.0,0.0,0.0,0.0,0.0,0.0,0.0,6.9467,7.1909,7.5527,7.8759,8.0764,8.1471,8.189,8.2129,8.2567,8.2477,8.165,8.1919,8.2069,8.183,8.2039,8.2129,8.2039,8.189,8.15,8.0823,7.9477,7.8579,7.819,7.7275,7.6886,7.6993,7.6467,7.6108,7.5886,7.5215,7.4886,7.4886,7.4467,7.4287,7.4227,7.3552,7.3043,7.2565,7.1637,7.1128,7.0889,7.0889,7.0889,7.0889,7.0889,7.0889,7.0889,7.0889,7.0889,7.0889,7.0889,7.0889,7.0889,7.0889,7.0889,7.0889,7.0889,7.0889,7.0889,7.0889,7.0889,7.0829,7.062,7.0739,7.0829,7.059,7.056,7.047,7.0231,6.9303,6.8541,6.8286,6.7537,6.7014,6.7014,6.7014,6.7123,6.7425,6.699,6.6611,6.6434,6.7449,6.8217,6.8463,6.7844,6.7489,6.7489,6.7039,6.6802,6.6802,6.6802,6.6802,6.6802,6.6802,6.6802,6.6802,6.6802,6.6802,2.8973,3.2325,3.6464,0.0,0.0,0.0,0.0,0.0,0.0,0.0,0.0,0.0,0.0,0.0,0.0,0.0,7.6861,7.9656,8.1261,8.15,8.15,8.15,8.189,8.18,8.0883,8.1231,8.15,8.15,8.168,8.1919,8.2178,8.174,8.1081,8.0195,7.8878,7.7861,7.7203,7.6544,7.6006,7.5587,7.5587,7.5587,7.5557,7.5095,7.4766,7.4557,7.4108,7.3762,7.3522,7.2864,7.2176,7.1534,7.1068,7.0889,7.0889,7.0889,7.0889,7.0889,7.0889,7.0889,7.0889,7.0889,7.0889,7.0889,7.0889,7.0889,7.0889,7.0889,7.0889,7.0889,7.0889,7.0889,7.0889,7.0889,7.0889,7.0889,7.0889,7.0889,7.0889,7.0889,7.0739,7.056,7.035,6.9393,6.8615,6.8405,6.7597,6.7014,6.7014,6.7014,6.7014,6.7014,6.7088,6.6942,6.6463,6.7273,6.7992,6.8433,6.8328,6.8166,6.7895,6.7411,6.7039,6.6802,6.6802,6.6802,6.6802,6.6802,6.6802,6.6802,6.7039,6.714,2.9788,3.204,0.0,0.0,0.0,0.0,0.0,0.0,0.0,0.0,0.0,0.0,0.0,0.0,0.0,7.1713,7.6335,7.9997,8.0704,8.0794,8.0794,8.0794,8.0794,8.0794,8.0764,8.0794,8.0794,8.0794,8.1411,8.15,8.0853,8.0794,8.0165,7.8819,7.7484,7.6497,7.5916,7.5245,7.4886,7.4886,7.4886,7.4886,7.4886,7.4886,7.4527,7.3881,7.3881,7.3492,7.2847,7.2192,7.1487,7.0889,7.0889,7.0889,7.0889,7.0889,7.0889,7.0889,7.0889,7.0889,7.0889,7.0889,7.0889,7.0889,7.0889,7.0889,7.0889,7.0889,7.0889,7.0889,7.0889,7.0889,7.0889,7.0889,7.0889,7.0889,7.0889,7.0889,7.0889,7.0889,7.0426,6.9798,6.9123,6.8451,6.7762,6.7134,6.7014,6.7014,6.7014,6.7014,6.7014,6.7014,6.7117,6.7153,6.7086,6.7155,6.7761,6.9109,6.9143,6.8741,6.7929,6.7895,6.7557,6.6791,6.6802,6.6802,6.6791,6.6791,6.6791,6.6836,6.7557,6.7895,3.1226,3.5078,0.0,4.293,0.0,0.0,0.0,0.0,0.0,0.0,0.0,0.0,0.0,0.0,0.0,7.2624,7.545,7.8262,7.9878,8.0087,8.0087,8.0087,8.0524,8.0434,7.9477,8.0255,8.0794,8.0794,8.0973,8.1231,8.15,8.0154,7.9208,7.8807,7.7083,7.6078,7.5916,7.4779,7.4197,7.4197,7.3702,7.3732,7.4197,7.4197,7.3821,7.3163,7.2684,7.2372,7.2146,7.1457,7.1068,7.0889,7.0889,7.0889,7.0889,7.0889,7.0889,7.0889,7.0889,7.0889,7.0889,7.0889,7.0889,7.0889,7.0889,7.0889,7.0889,7.0889,7.0889,7.0889,7.0889,7.0889,7.0889,7.0889,7.0889,7.0889,7.0889,7.0889,7.0889,7.0889,7.0769,7.056,7.038,6.9423,6.8645,6.8435,6.7597,6.7014,6.7014,6.7014,6.7014,6.7014,6.6628,6.6171,6.5658,6.7007,6.785,6.7793,6.9086,6.953,6.8774,6.7681,6.7005,6.6802,6.6802,6.7072,6.7557,6.7557,6.7557,6.759,6.8368,6.8436,3.3701,3.8114,0.0,4.7627,5.3132,5.9039,6.4695,0.0,0.0,0.0,0.0,7.3283,7.1996,7.2924,0.0,7.4074,7.5839,7.7634,7.883,7.9219,7.9417,7.9417,7.9776,7.9686,7.8878,7.9537,8.0016,8.0016,8.0255,8.0345,8.0225,7.9316,7.843,7.7682,7.6514,7.5647,7.5108,7.43,7.3762,7.3492,7.3086,7.2984,7.3103,7.3373,7.3133,7.2475,7.1787,7.1487,7.1457,7.1068,7.0889,7.0889,7.0889,7.0889,7.0889,7.0889,7.0889,7.0889,7.0889,7.0889,7.0889,7.0889,7.0889,7.0889,7.0889,7.0889,7.0889,7.0889,7.0889,7.0889,7.0889,7.0889,7.0889,7.0889,7.0889,7.0889,7.0889,7.0889,7.0889,7.0889,7.0709,7.053,7.053,6.9692,6.8914,6.8645,6.7703,6.7014,6.7014,6.7014,6.7014,6.7014,6.64,6.5847,6.5413,6.7121,6.804,6.7631,6.8711,6.9165,6.8718,6.8075,6.7715,6.7715,6.7715,6.7918,6.8368,6.8368,6.8368,6.8402,6.918,6.9282,3.6798,4.1106,0.0,5.1528,5.7543,0.0,6.8405,7.1936,7.442,7.5347,0.0,7.5365,7.5736,7.4899,7.454,7.5707,7.6856,7.7652,7.7694,7.822,7.8627,7.8627,7.8669,7.8669,7.8609,7.8747,7.8759,7.8699,7.9249,7.907,7.7873,7.828,7.7682,7.5886,7.5766,7.5108,7.3821,7.3732,7.3402,7.2817,7.2757,7.2415,7.1833,7.2505,7.2445,7.1773,7.1158,7.0889,7.0889,7.0889,7.0889,7.0889,7.0889,7.0889,7.0889,7.0889,7.0889,7.0889,7.0889,7.0889,7.0889,7.0889,7.0889,7.0889,7.0889,7.0889,7.0889,7.0889,7.0889,7.0889,7.0889,7.0889,7.0889,7.0889,7.0889,7.0889,7.0889,7.0889,7.0889,7.0889,7.044,7.0067,7.0067,6.9512,6.8824,6.8107,6.7433,6.7014,6.7014,6.7014,6.7014,6.7014,6.646,6.6026,6.5906,6.7246,6.8054,6.794,6.7914,6.7937,6.8003,6.8481,6.8717,6.8717,6.8717,6.875,6.8818,6.8962,6.9016,6.9016,6.9914,7.0274,3.902,4.3509,0.0,0.0,6.4021,7.0306,7.3,7.4958,7.551,7.3223,7.5527,7.737,7.5455,7.5707,7.6108,7.5946,7.6125,7.6467,7.6946,7.7155,7.7245,7.7245,7.7694,7.7813,7.7275,7.819,7.8579,7.8041,7.816,7.8083,7.7831,7.6993,7.6096,7.5155,7.4599,7.3941,7.3116,7.2595,7.2252,7.2132,7.1577,7.1248,7.1128,7.1816,7.1757,7.1098,7.0949,7.0889,7.0889,7.0889,7.0889,7.0889,7.0889,7.0889,7.0889,7.0889,7.0889,7.0889,7.0889,7.0889,7.0889,7.0889,7.0889,7.0889,7.0889,7.0889,7.0889,7.0889,7.0889,7.0889,7.0889,7.0889,7.0889,7.0889,7.0889,7.0889,7.0889,7.0889,7.0889,7.0889,7.0799,7.0709,7.0709,7.0187,6.9379,6.8167,6.7433,6.7014,6.7014,6.7014,6.7014,6.7014,6.6879,6.637,6.5293,6.6533,6.6903,6.5825,6.6249,6.6787,6.7384,6.637,6.5801,6.5801,6.5801,6.6116,6.6756,6.7802,6.8317,6.8352,7.022,7.0737,4.1504,0.0,0.0,6.2974,0.0,7.4091,7.5155,7.6365,7.6796,7.5078,7.6904,7.8298,7.6604,7.6844,7.6976,7.6066,7.6138,7.6347,7.6377,7.6617,7.6706,7.6407,7.6676,7.6736,7.6407,7.6993,7.7263,7.6933,7.7155,7.7065,7.6425,7.5766,7.5108,7.4437,7.3762,7.3103,7.2415,7.2056,7.1743,7.1414,7.1068,7.0889,7.0919,7.1248,7.1218,7.0889,7.0889,7.0889,7.0889,7.0889,7.0889,7.0889,7.0889,7.0889,7.0889,7.0889,7.0889,7.0889,7.0889,7.0889,7.0889,7.0889,7.0889,7.0889,7.0889,7.0889,7.0889,7.0889,7.0889,7.0889,7.0889,7.0889,7.0889,7.0889,7.0679,7.056,7.0829,7.0679,7.056,7.0829,7.0889,7.0889,7.0889,7.0141,6.9273,6.8571,6.7643,6.7014,6.7014,6.7014,6.7014,6.7014,6.7014,6.67,6.6011,6.666,6.679,6.6092,6.5772,6.5789,6.6162,6.48,6.4677,6.5968,6.5993,6.6198,6.6639,6.7332,6.7997,6.8645,6.9783,7.0442,4.2611,5.0032,5.8454,6.8405,7.3163,0.0,7.5677,7.6634,7.7472,7.7472,7.8011,7.831,7.7891,7.7604,7.7083,7.5916,7.6048,7.6078,7.5467,7.5899,7.6108,7.5617,7.5766,7.5856,7.5736,7.5826,7.5856,7.5736,7.6198,7.5976,7.4796,7.4736,7.4377,7.3582,7.3013,7.2415,7.1743,7.1743,7.1457,7.0889,7.0889,7.0889,7.0889,7.0889,7.0889,7.0889,7.0889,7.0889,7.0889,7.0889,7.0889,7.0889,7.0889,7.0889,7.0889,7.0889,7.0889,7.0889,7.0889,7.0889,7.0889,7.0889,7.0889,7.0889,7.0889,7.0889,7.0889,7.0889,7.0889,7.0889,7.0889,7.0889,7.0889,7.0769,7.026,7.0037,7.0739,7.0426,7.0187,7.0769,7.0889,7.0889,7.0889,6.9842,6.9004,6.9004,6.7867,6.7014,6.7014,6.7014,6.7014,6.7014,6.7014,6.6954,6.6819,6.6885,6.6872,6.6749,6.5716,6.5069,6.5069,6.3903,6.435,6.6602,6.6559,6.6496,6.6496,6.6712,6.7407,6.8515,6.8967,6.981,3.9002,4.9613,6.1297,6.8974,7.2099,7.3595,0.0,0.0,7.6155,7.6155,7.6647,7.7215,7.7694,7.6904,7.5916,7.5155,7.4599,7.4061,7.3386,7.3881,7.427,7.418,7.5198,7.5677,7.5095,7.5557,7.5647,7.5065,7.5095,7.4826,7.4061,7.4031,7.3479,7.2222,7.2072,7.1697,7.1038,7.1038,7.0979,7.0889,7.0889,7.0889,7.0889,7.0889,7.0889,7.0889,7.0889,7.0889,7.0889,7.0889,7.0889,7.0889,7.0889,7.0889,7.0889,7.0889,7.0889,7.0889,7.0889,7.0889,7.0889,7.0889,7.0889,7.0889,7.0889,7.0889,7.0889,7.0889,7.0889,7.0889,7.0889,7.0889,7.0769,7.0247,6.9602,6.9453,7.0649,7.0426,7.0187,7.0769,7.0889,7.0889,7.0889,6.9842,6.9004,6.9004,6.7867,6.7014,6.7014,6.7014,6.7014,6.7014,6.7014,6.6759,6.6176,6.6132,6.5892,6.5306,6.5095,6.5005,6.5005,6.4289,6.4061,6.4436,6.3907,6.3649,6.3649,6.4813,6.5477,6.5701,6.8074,6.9301,4.3728,5.3192,6.2241,6.8764,7.1936,7.3702,7.4676,7.5407,7.5916,7.5916,7.5826,7.5946,7.6604,7.6275,7.5677,7.5006,7.4347,7.3911,7.4001,7.3941,7.3881,7.3881,7.442,7.4659,7.4377,7.4599,7.4809,7.4886,7.4557,7.4227,7.3911,7.321,7.2521,7.1923,7.1534,7.1188,7.0889,7.0889,7.0889,7.0889,7.0889,7.0709,7.0396,7.0396,7.059,7.0889,7.0889,7.0709,7.0396,7.0396,7.0396,7.0396,7.0396,7.0396,7.044,7.0769,7.0679,7.0396,7.0396,7.062,7.0769,7.0081,7.0081,7.0396,7.0396,7.0396,7.0486,7.0799,7.0889,7.0889,7.0889,7.0649,7.0336,7.0067,6.9498,6.9153,6.9722,6.9632,6.9722,7.0709,7.0889,7.0799,7.044,6.9602,6.8884,6.8511,6.7613,6.7014,6.7014,6.7014,6.7014,6.7014,6.7014,6.6894,6.658,6.6221,6.5877,6.5577,6.5203,6.4994,6.4994,6.474,6.4381,6.4006,6.3393,6.3108,6.3108,6.3706,6.436,6.5124,6.6351,6.7723,4.6311,5.3431,5.9518,6.6505,7.0217,7.2491,7.3838,7.4779,7.5407,7.5407,7.4988,7.4796,7.5288,7.5407,7.5108,7.4257,7.3719,7.3509,7.3838,7.3599,7.3432,7.3642,7.3791,7.3881,7.3881,7.3881,7.4031,7.4377,7.3911,7.3582,7.3402,7.2432,7.1833,7.1653,7.1158,7.0889,7.0889,7.0889,7.0829,7.0679,7.0829,7.05,6.9738,6.9917,7.0157,7.041,7.041,7.0171,6.9738,6.9738,6.9738,6.9738,6.9738,6.9738,6.9828,7.044,7.026,6.9798,7.0127,7.032,7.032,6.9692,6.9722,7.0007,7.0007,7.0097,7.0306,7.059,7.0679,7.0709,7.0859,7.044,7.0007,7.0007,6.9618,6.9243,6.9243,6.9243,6.9572,7.0679,7.0889,7.0709,7.0097,6.9423,6.8764,6.8107,6.7433,6.7014,6.7014,6.7014,6.7014,6.7014,6.7014,6.7014,6.7014,6.655,6.6251,6.6251,6.5787,6.5518,6.5518,6.5323,6.5009,6.4515,6.3887,6.3422,6.3108,6.3108,6.362,6.4609,6.495,6.6404,4.1753,4.6332,5.1301,6.1028,6.5428,6.8181,7.1354,7.309,7.4001,7.4001,7.3971,7.3941,7.4001,7.4001,7.3599,7.2282,7.2042,7.1803,7.1188,7.1637,7.2235,7.2894,7.3522,7.3881,7.3881,7.3881,7.3642,7.3057,7.2967,7.2684,7.2042,7.1953,7.1623,7.0979,7.0919,7.0889,7.0889,7.0889,7.062,7.0037,7.062,7.026,6.9064,6.9708,6.9678,6.9093,6.9093,6.9093,6.9064,6.9064,6.9064,6.9064,6.9064,6.9064,6.9123,6.9798,6.9618,6.9213,7.044,7.0081,6.9303,7.044,7.044,7.0007,7.0007,7.038,7.0739,7.0217,7.0037,7.0187,7.0739,7.044,7.0007,7.0007,6.9977,6.9947,6.9947,6.9947,7.0157,7.0769,7.0889,7.0709,7.0097,6.9423,6.8764,6.8107,6.7433,6.7014,6.7014,6.7014,6.7014,6.7014,6.7014,6.7014,6.7014,6.6984,6.6954,6.6954,6.6924,6.6894,6.6894,6.6281,6.5936,6.5892,6.5248,6.4291,6.3108,6.3108,6.3137,6.3222,6.4512,6.5888,3.9029,4.3219,4.8158,5.5538,6.001,6.3333,6.6161,6.9199,7.1414,7.1414,7.2385,7.3133,7.2701,7.2984,7.3103,7.2624,7.2176,7.1983,7.2176,7.2368,7.2804,7.3462,7.4121,7.4377,7.3941,7.3881,7.3432,7.2325,7.2265,7.1966,7.1278,7.1248,7.1158,7.0919,7.0889,7.0889,7.0889,7.05,7.0217,7.0007,6.9782,6.9213,6.8361,6.8616,6.8361,6.7717,6.7717,6.7972,6.8361,6.8361,6.8361,6.8361,6.8361,6.8361,6.8451,6.9109,6.893,6.8421,6.887,6.9289,6.9498,6.8675,6.9139,6.9917,6.9498,6.9512,6.9812,7.041,7.0306,7.0037,7.0277,7.0157,6.9977,6.9961,6.9319,6.9065,7.0306,7.056,7.053,7.0366,7.062,7.056,6.9542,6.9153,6.8615,6.7523,6.7164,6.7014,6.7014,6.7014,6.7014,6.7014,6.7014,6.7014,6.7014,6.7014,6.7014,6.7014,6.7014,6.7014,6.7014,6.6759,6.643,6.5996,6.5757,6.5218,6.4321,6.4321,6.4321,6.4306,6.4378,6.514,3.6553,0.0,4.4526,5.0942,5.4533,5.7676,6.2301,6.5757,6.8241,6.9139,7.0859,7.2176,7.1953,7.2086,7.2219,7.2219,7.1846,7.1727,7.2176,7.2219,7.2475,7.3133,7.3629,7.3719,7.327,7.324,7.2791,7.1653,7.1547,7.1368,7.0919,7.0889,7.0799,7.059,7.038,7.026,7.026,6.9842,6.9558,6.9319,6.9109,6.8525,6.7673,6.7898,6.7613,6.7014,6.7014,6.7254,6.7643,6.7643,6.7643,6.7643,6.7643,6.7643,6.7748,6.8421,6.8241,6.7732,6.8181,6.863,6.884,6.7956,6.8571,6.9588,6.9123,6.9153,6.9512,7.035,7.0141,6.9768,7.0187,7.0306,7.029,7.0244,6.9602,6.9259,7.035,7.041,7.026,7.0306,7.062,7.056,6.9512,6.9333,6.8944,6.7837,6.7493,6.7343,6.7343,6.7134,6.7014,6.7014,6.7014,6.7014,6.7014,6.7014,6.7014,6.7014,6.7014,6.7014,6.7014,6.7014,6.6789,6.634,6.634,6.6131,6.5667,6.5203,6.4994,6.4994,6.453,6.4971,0.0,0.0,0.0,4.7151,4.8989,5.1253,5.9771,6.269,6.4395,6.7269,6.9349,7.0919,7.1713,7.1308,7.0889,7.0889,7.0889,7.0889,7.0889,7.0889,7.1128,7.1803,7.1893,7.1893,7.1863,7.1893,7.1623,7.0919,7.0889,7.0889,7.0889,7.0889,7.062,7.0007,6.9333,6.9004,6.9004,6.8974,6.863,6.7987,6.86,6.8226,6.6954,6.7643,6.7583,6.6969,6.6984,6.6984,6.6969,6.6969,6.6969,6.7014,6.6984,6.6969,6.7074,6.7748,6.7553,6.7194,6.8495,6.8106,6.7238,6.8555,6.9004,6.9034,6.9034,6.9453,6.9977,7.0007,6.9512,6.9303,7.056,7.0889,7.0889,7.0889,7.0889,7.0709,7.0157,6.9498,6.9393,7.062,7.0889,7.0709,7.0097,7.0007,6.9768,6.9093,6.8451,6.8047,6.8047,6.7433,6.7044,6.7044,6.7014,6.7014,6.7014,6.7014,6.7014,6.7014,6.7014,6.7014,6.7014,6.7014,6.7014,6.7014,6.7014,6.7014,6.7014,6.5697,6.5054,6.5054,6.5024,6.5351,3.3574,0.0,0.0,0.0,0.0,0.0,5.0702,5.3102,5.5991,6.3003,6.4889,6.6326,6.9858,7.0366,7.0247,7.0247,7.062,7.0889,7.0889,7.0889,7.0979,7.1158,7.1593,7.1713,7.1218,7.1623,7.1444,7.0336,7.0649,7.0709,7.0277,7.0247,7.0157,7.0007,6.9333,6.9004,6.9004,6.8511,6.7942,6.7284,6.6969,6.6385,6.5577,6.6251,6.646,6.6311,6.6789,6.6729,6.6281,6.6281,6.655,6.6954,6.646,6.658,6.7014,6.7224,6.7164,6.7059,6.7418,6.7643,6.7762,6.8151,6.893,6.9738,6.9738,6.9512,6.9453,7.038,6.9842,6.9303,7.056,7.056,7.0366,7.0799,7.056,7.032,7.059,7.0141,6.9828,7.0187,7.059,7.0709,7.0097,7.0007,6.9768,6.9093,6.8824,6.8704,6.8704,6.8151,6.7703,6.7703,6.7284,6.7014,6.7014,6.7014,6.7014,6.7014,6.7014,6.7014,6.7014,6.7014,6.7014,6.7014,6.7014,6.7014,6.7014,6.664,6.646,6.643,6.5458,6.4616,0.0,0.0,0.0,0.0,0.0,0.0,4.6901,4.8865,5.1606,5.9398,6.1477,6.3093,6.7148,6.7703,6.7852,6.899,6.9229,6.9572,7.041,7.029,7.0201,7.05,7.0875,7.0965,7.056,7.1115,7.1158,7.0426,7.0709,7.0739,7.038,6.9887,6.9572,6.9572,6.8645,6.8016,6.7747,6.7358,6.6835,6.6161,6.5757,6.5398,6.5024,6.5697,6.5996,6.6026,6.67,6.661,6.5966,6.5697,6.5817,6.6131,6.5727,6.5996,6.658,6.658,6.6759,6.7014,6.7014,6.7254,6.7583,6.7583,6.8301,6.9185,6.9185,6.9079,6.9213,7.0231,7.0171,6.9961,7.0709,7.0649,7.044,7.0829,7.062,7.047,7.0829,7.062,7.0396,7.0396,7.0649,7.0799,7.044,7.0396,7.0231,6.9842,6.9572,6.9319,6.9034,6.8421,6.7898,6.7613,6.7224,6.7014,6.7014,6.7014,6.7014,6.7014,6.7014,6.7014,6.7014,6.7014,6.7014,6.7014,6.7014,6.7014,6.7014,6.7014,6.7014,6.6984,6.5637,6.459,0.0,0.0,0.0,0.0,0.0,0.0,4.6003,4.7529,4.9415,5.6051,5.8338,6.0146,6.3603,6.3872,6.4306,6.6535,6.6775,6.7463,6.9678,6.9379,6.9093,6.9708,6.9828,6.9887,6.9887,7.05,7.0889,7.0889,7.0829,7.0769,7.0709,6.9542,6.8884,6.8884,6.7597,6.661,6.6011,6.5936,6.5547,6.4874,6.4874,6.4845,6.4815,6.5488,6.5817,6.5906,6.652,6.643,6.5847,6.5159,6.4934,6.4994,6.4904,6.5308,6.5906,6.5966,6.637,6.6894,6.6969,6.7014,6.7014,6.7104,6.7493,6.8017,6.8107,6.8481,6.9034,6.9708,7.038,7.0889,7.0889,7.0889,7.0889,7.0889,7.0889,7.0889,7.0889,7.0889,7.0889,7.0889,7.0889,7.0889,7.0889,7.0889,7.0889,7.0889,7.044,6.9887,6.9303,6.8571,6.7882,6.7284,6.7089,6.7014,6.7014,6.7014,6.7014,6.7014,6.7014,6.7014,6.7014,6.7014,6.7014,6.7014,6.7014,6.7014,6.7014,6.7014,6.6954,6.6849,6.5667,6.5024,0.0,0.0,0.0,0.0,0.0,0.0,4.2062,4.275,4.4746,5.1887,5.3132,5.4269,5.8623,6.0236,6.0699,6.0103,6.26,6.5832,6.9498,6.896,6.8257,6.8377,6.887,6.9183,6.9183,7.0231,7.0889,7.0889,7.044,6.9947,6.9393,6.863,6.8181,6.8181,6.6879,6.6116,6.5996,6.5458,6.4859,6.4216,6.4216,6.3947,6.3482,6.4096,6.468,6.5203,6.5323,6.5338,6.5144,6.447,6.45,6.4934,6.4411,6.459,6.5263,6.5787,6.6086,6.6281,6.6819,6.7014,6.7104,6.7628,6.7898,6.8107,6.8645,6.8511,6.8331,6.9019,7.0021,7.0889,7.0889,7.0889,7.0889,7.0889,7.0889,7.0889,7.0889,7.0889,7.0889,7.0889,7.0889,7.0889,7.0889,7.0889,7.0889,7.0889,7.0799,7.0679,7.056,6.9512,6.8734,6.8615,6.7627,6.7014,6.7014,6.7014,6.7014,6.7014,6.7014,6.7014,6.7014,6.7014,6.7014,6.7014,6.7014,6.7014,6.7014,6.7014,6.6729,6.6191,6.5936,6.5218,0.0,0.0,0.0,3.8859,0.0,0.0,0.0,4.1124,4.2282,4.8906,4.8427,4.8327,5.324,5.3628,5.397,5.6273,5.8321,6.0984,6.4994,6.6954,6.8257,6.8916,6.9019,6.9123,6.9468,6.9782,6.9961,6.9961,6.9662,6.9333,6.9004,6.8361,6.7868,6.7493,6.652,6.5667,6.5024,6.468,6.4171,6.3542,6.3542,6.3393,6.3123,6.3707,6.4171,6.453,6.4845,6.4815,6.447,6.4126,6.4006,6.4006,6.3677,6.3947,6.459,6.5248,6.5697,6.6086,6.6775,6.7014,6.7074,6.7373,6.7493,6.7553,6.7897,6.8002,6.8227,6.9229,6.9722,7.0111,7.0739,7.0679,7.044,7.044,7.044,7.035,7.0021,6.9961,7.0051,7.038,7.044,7.056,7.0859,7.0649,7.056,7.0859,7.0649,7.044,7.044,6.9602,6.8854,6.8541,6.7613,6.7014,6.7014,6.7014,6.7014,6.7014,6.7014,6.7014,6.7014,6.7014,6.7014,6.7014,6.7014,6.7014,6.7014,6.7014,6.6835,6.649,6.6161,6.5652,0.0,0.0,0.0,0.0,0.0,4.0896,0.0,0.0,0.0,4.5853,4.4427,4.3678,4.7927,4.7078,4.7228,5.181,5.3593,5.5448,5.8411,6.2824,6.6281,6.7732,6.7418,6.7508,6.8571,6.8301,6.8196,6.8585,6.8136,6.8016,6.8405,6.7792,6.7224,6.6819,6.6041,6.5114,6.4006,6.3887,6.3572,6.3108,6.3108,6.3108,6.3108,6.3602,6.3887,6.4006,6.4441,6.4381,6.3977,6.3857,6.3542,6.3108,6.3108,6.3393,6.3917,6.471,6.5338,6.5906,6.6729,6.7014,6.7014,6.7014,6.7014,6.7014,6.7014,6.7463,6.8227,6.9289,6.9409,6.9423,7.047,7.0366,7.0007,7.0007,6.9887,6.9678,6.9123,6.9004,6.9153,6.9708,6.9798,7.0007,7.062,7.032,7.0127,7.047,7.0127,6.9798,6.9798,6.9333,6.8794,6.8241,6.7703,6.7403,6.7403,6.7284,6.7194,6.7194,6.7074,6.7014,6.7014,6.7014,6.7014,6.7014,6.7014,6.7014,6.7014,6.7014,6.7014,6.6984,6.643,6.6116,0.0,0.0,0.0,0.0,4.305,0.0,0.0,0.0,4.2562,4.1504,0.0,4.258,4.3179,0.0,0.0,4.304,4.7848,5.1427,5.0744,5.4606,5.8228,6.0116,6.0266,6.1194,6.3647,6.429,6.5293,6.7089,6.5069,6.453,6.6251,6.5697,6.5577,6.6086,6.4904,6.4156,6.4006,6.3482,6.3168,6.3108,6.3108,6.3108,6.3108,6.3168,6.3482,6.3977,6.3512,6.3572,6.3947,6.3422,6.3168,6.3108,6.3108,6.3123,6.3333,6.456,6.5054,6.5293,6.655,6.7014,6.7014,6.7014,6.7014,6.7014,6.7014,6.7463,6.8047,6.8197,6.9019,6.9917,7.0067,7.0037,7.0007,7.0007,6.9558,6.9093,6.9004,6.9004,6.9034,6.9093,6.9123,6.9303,6.9977,7.0037,6.9828,6.9303,6.9153,6.9123,6.9123,6.9064,6.8974,6.8884,6.8824,6.8764,6.8764,6.8241,6.7898,6.7898,6.7313,6.7014,6.7014,6.7014,6.7014,6.7014,6.7014,6.7014,6.7014,6.7014,6.7014,6.7014,6.6909,6.658,0.0,0.0,0.0,0.0,0.0,0.0,0.0,0.0,4.0576,0.0,0.0,0.0,0.0,0.0,0.0,0.0,4.4337,4.6689,4.6931,4.8308,5.1588,5.7799,5.7171,5.7154,5.9412,6.0206,6.109,6.2331,6.1044,6.106,6.3034,6.3647,6.4186,6.4814,6.4306,6.3827,6.3482,6.3227,6.3108,6.3108,6.3108,6.3108,6.3108,6.3108,6.3257,6.3452,6.3213,6.3243,6.3452,6.3183,6.3108,6.3108,6.3108,6.3108,6.3213,6.4096,6.468,6.5144,6.6101,6.667,6.7014,6.7014,6.7014,6.7014,6.7014,6.7194,6.7493,6.7898,6.8137,6.8541,6.9708,6.9409,6.893,6.9319,6.89,6.8301,6.7926,6.7837,6.7956,6.8331,6.8421,6.8511,6.8796,6.8856,6.887,6.8974,6.866,6.8571,6.8944,6.866,6.8421,6.8421,6.8421,6.8421,6.8421,6.8511,6.8571,6.8571,6.7942,6.7583,6.7583,6.7224,6.7014,6.7014,6.7014,6.7014,6.7014,6.7014,6.7014,6.7014,6.7014,6.6849,4.68,0.0,0.0,0.0,0.0,0.0,0.0,0.0,0.0,0.0,0.0,0.0,0.0,0.0,0.0,0.0,0.0,4.299,4.3599,4.312,4.5593,5.3389,5.3611,5.379,5.5568,5.6034,5.6782,5.8201,5.6842,5.7218,6.0133,6.1194,6.2285,6.3438,6.3662,6.3542,6.3108,6.3108,6.3108,6.3108,6.3108,6.3108,6.3108,6.3108,6.3108,6.3108,6.3108,6.3108,6.3108,6.3108,6.3108,6.3108,6.3108,6.3108,6.3168,6.3782,6.4291,6.4829,6.5488,6.6161,6.6775,6.6954,6.7014,6.7014,6.7014,6.7014,6.7104,6.7583,6.7493,6.7643,6.9289,6.8886,6.8227,6.9079,6.8481,6.7643,6.7343,6.7134,6.7134,6.7613,6.7748,6.7748,6.7748,6.8032,6.8301,6.8435,6.8181,6.8092,6.8405,6.8181,6.8077,6.8241,6.8437,6.8616,6.878,6.9079,6.9183,6.9004,6.8541,6.8197,6.8017,6.7523,6.7194,6.7014,6.7014,6.7014,6.7014,6.7014,6.7014,6.7014,6.7014,6.7014,0.0,0.0,0.0,4.8536,0.0,0.0,0.0,0.0,4.2711,0.0,0.0,0.0,0.0,0.0,0.0,0.0,0.0,0.0,0.0,3.902,4.0127,4.4247,4.8065,5.0877,5.2247,5.1786,5.2773,5.6042,5.2683,5.2719,5.7905,5.8234,5.9474,6.2061,6.2794,6.3123,6.3108,6.3108,6.3108,6.3108,6.3108,6.3108,6.3108,6.3108,6.3108,6.3108,6.3108,6.3108,6.3108,6.3108,6.3108,6.3108,6.3108,6.3108,6.3168,6.3782,6.4006,6.4126,6.4785,6.5488,6.6131,6.6789,6.7014,6.7014,6.7014,6.7014,6.7014,6.7044,6.7493,6.8137,6.8854,6.8511,6.8347,6.9648,6.8451,6.7194,6.7822,6.7463,6.7014,6.7044,6.7029,6.7029,6.7029,6.8106,6.8525,6.7254,6.7583,6.7762,6.7134,6.7613,6.8257,6.8884,6.9558,7.0187,7.0769,7.0306,6.9678,6.9034,6.8974,6.869,6.8017,6.7987,6.7643,6.7014,6.7014,6.7014,6.7014,6.7014,6.7014,6.7014,6.7014,6.7014,0.0,0.0,5.859,5.3755,0.0,0.0,0.0,0.0,0.0,0.0,0.0,0.0,0.0,0.0,0.0,0.0,0.0,0.0,0.0,3.6784,3.6784,3.943,4.3619,0.0,4.63,4.651,4.7478,4.9482,4.7557,4.8794,5.4551,5.5286,5.735,6.1299,6.1672,6.2181,6.3108,6.3108,6.3108,6.3108,6.3108,6.3108,6.3108,6.3108,6.3108,6.3108,6.3108,6.3108,6.3108,6.3108,6.3108,6.3108,6.3108,6.3108,6.3123,6.3333,6.3662,6.4096,6.477,6.5458,6.6026,6.6251,6.664,6.7014,6.7014,6.7014,6.7014,6.7014,6.7164,6.7583,6.8704,6.8166,6.7673,6.9004,6.8151,6.7074,6.7284,6.7164,6.7014,6.7014,6.7014,6.7014,6.7014,6.8106,6.8525,6.7194,6.7194,6.7254,6.7044,6.7194,6.7583,6.8271,6.893,6.9602,7.0247,7.047,7.05,7.026,6.9871,6.9558,6.9319,6.8466,6.8092,6.8315,6.7882,6.7643,6.7643,6.7643,6.7433,6.7014,6.7014,6.7014,5.8949,6.0639,0.0,5.7855,5.5581,0.0,4.8506,0.0,0.0,0.0,0.0,0.0,0.0,0.0,0.0,0.0,0.0,0.0,0.0,3.5715,3.5775,3.7216,4.0657,0.0,4.3309,4.3289,4.3718,4.4825,4.3678,4.5304,5.0822,5.2606,5.5495,5.9893,6.094,6.1972,6.3108,6.3108,6.3108,6.3108,6.3108,6.3108,6.3108,6.3108,6.3108,6.3108,6.3108,6.2944,6.2764,6.3003,6.2944,6.2764,6.3003,6.3108,6.3108,6.3108,6.3333,6.3797,6.468,6.5129,6.5413,6.6131,6.649,6.67,6.6924,6.7014,6.7044,6.7284,6.7194,6.7313,6.8645,6.8032,6.7328,6.8675,6.7986,6.7074,6.7313,6.7164,6.7014,6.7014,6.7014,6.7014,6.7014,6.7717,6.7986,6.7134,6.7403,6.7537,6.7074,6.7014,6.7254,6.7928,6.86,6.9363,7.0247,7.0679,7.0889,7.0889,7.053,7.0217,7.0007,6.9185,6.89,6.9333,6.8451,6.8137,6.8361,6.7898,6.7433,6.7014,6.7014,6.7014]},{"header":{"parameterUnit":"m.s-1","parameterCategory":1,"la1":30.6,"la2":29.2853,"lo1":-89.7004,"lo2":-87.6739,"dy":0.0162,"dx":0.0183,"nx":112,"ny":82,"refTime":"2023-03-14T06:00:00:Z","depth":0,"parameterNumber":3,"parameterNumberName":"V-component_of_WINDS"},"data":[0.0,0.0,0.0,0.0,0.0,0.0,0.0,0.0,0.0,0.0,0.0,0.0,0.0,0.0,0.0,0.0,0.0,0.0,0.0,0.0,0.0,0.0,0.0,0.0,0.0,0.0,0.0,0.0,0.0,0.0,0.0,0.0,0.0,0.0,0.0,0.0,0.0,0.0,0.0,0.0,0.0,0.0,0.0,0.0,0.0,0.0,0.0,0.0,0.0,0.0,0.0,0.0,0.0,0.0,0.0,0.0,0.0,0.0,0.0,0.0,0.0,0.0,0.0,0.0,0.0,0.0,0.0,0.0,0.0,0.0,0.0,0.0,0.0,0.0,0.0,0.0,0.0,0.0,0.0,0.0,0.0,0.0,0.0,0.0,0.0,0.0,0.0,0.0,0.0,0.0,0.0,2.5965,3.181,3.5332,3.4941,3.3793,3.0923,2.5825,0.0,0.0,0.0,0.0,0.0,0.0,0.0,0.0,0.0,0.0,0.0,0.0,0.0,0.0,0.0,0.0,0.0,0.0,0.0,0.0,0.0,0.0,0.0,0.0,0.0,0.0,0.0,0.0,0.0,0.0,0.0,0.0,0.0,0.0,0.0,0.0,0.0,0.0,0.0,0.0,0.0,0.0,0.0,0.0,0.0,0.0,0.0,0.0,0.0,0.0,0.0,0.0,0.0,0.0,0.0,0.0,0.0,0.0,0.0,0.0,0.0,0.0,0.0,0.0,0.0,0.0,0.0,0.0,0.0,0.0,0.0,0.0,0.0,0.0,0.0,0.0,0.0,0.0,0.0,0.0,0.0,0.0,0.0,0.0,0.0,0.0,0.0,0.0,0.0,0.0,0.0,0.0,0.0,0.0,0.0,0.0,0.0,0.0,0.0,0.0,0.0,0.0,0.0,0.0,2.404,3.1344,3.4413,3.5881,3.5803,3.3344,3.0508,2.75,0.0,0.0,0.0,0.0,0.0,0.0,0.0,0.0,0.0,0.0,0.0,0.0,0.0,0.0,0.0,0.0,0.0,0.0,0.0,0.0,0.0,0.0,0.0,0.0,0.0,0.0,0.0,0.0,0.0,0.0,0.0,0.0,0.0,0.0,0.0,0.0,0.0,0.0,0.0,0.0,0.0,0.0,0.0,0.0,0.0,0.0,0.0,0.0,0.0,0.0,0.0,0.0,0.0,0.0,0.0,0.0,0.0,0.0,0.0,0.0,0.0,0.0,0.0,0.0,0.0,0.0,0.0,0.0,0.0,0.0,0.0,0.0,0.0,0.0,0.0,0.0,0.0,0.0,0.0,0.0,0.0,0.0,0.0,0.0,0.0,0.0,0.0,0.0,0.0,0.0,0.0,0.0,0.0,0.0,0.0,0.0,0.0,0.0,0.0,0.0,0.0,0.0,0.0,2.2331,2.675,3.3742,3.5393,3.592,3.5686,3.334,3.0483,2.72,2.5141,0.0,0.0,0.0,0.0,0.0,0.0,0.0,0.0,0.0,0.0,0.0,0.0,0.0,0.0,0.0,0.0,0.0,0.0,0.0,0.0,0.0,0.0,0.0,0.0,0.0,0.0,0.0,0.0,0.0,0.0,0.0,0.0,0.0,0.0,0.0,0.0,0.0,0.0,0.0,0.0,0.0,0.0,0.0,0.0,0.0,0.0,0.0,0.0,0.0,0.0,0.0,0.0,0.0,0.0,0.0,0.0,0.0,0.0,0.0,0.0,0.0,0.0,0.0,0.0,0.0,0.0,0.0,0.0,0.0,0.0,0.0,0.0,0.0,0.0,0.0,0.0,0.0,0.0,0.0,0.0,0.0,0.0,0.0,0.0,0.0,0.0,0.0,0.0,0.0,0.0,0.0,0.0,0.0,0.0,0.0,0.0,0.0,0.0,0.0,0.0,0.0,0.0,2.6338,2.9643,3.4965,3.582,3.5784,3.5273,3.2808,2.9877,2.6614,2.3811,0.0,0.0,0.0,0.0,0.0,0.0,0.0,0.0,0.0,0.0,0.0,0.0,0.0,0.0,0.0,0.0,0.0,0.0,0.0,0.0,0.0,0.0,0.0,0.0,0.0,0.0,0.0,0.0,0.0,0.0,0.0,0.0,0.0,0.0,0.0,0.0,0.0,0.0,0.0,0.0,0.0,0.0,0.0,0.0,0.0,0.0,0.0,0.0,0.0,0.0,0.0,0.0,0.0,0.0,0.0,0.0,0.0,0.0,0.0,0.0,0.0,0.0,0.0,0.0,0.0,0.0,0.0,0.0,0.0,0.0,0.0,0.0,0.0,0.0,0.0,0.0,0.0,0.0,0.0,0.0,0.0,0.0,0.0,0.0,0.0,0.0,0.0,0.0,0.0,0.0,0.0,0.0,0.0,0.0,0.0,0.0,0.0,0.0,0.0,0.0,0.0,0.0,2.7928,3.2178,3.5593,3.5979,3.5667,3.4824,3.0937,2.7962,2.6497,2.21,0.0,0.0,0.0,0.0,0.0,0.0,0.0,0.0,0.0,0.0,0.0,0.0,0.0,0.0,0.0,0.0,0.0,0.0,0.0,0.0,0.0,0.0,0.0,0.0,0.0,0.0,0.0,0.0,0.0,0.0,0.0,0.0,0.0,0.0,0.0,0.0,0.0,0.0,0.0,0.0,0.0,0.0,0.0,0.0,0.0,0.0,0.0,0.0,0.0,0.0,0.0,0.0,0.0,0.0,0.0,0.0,0.0,0.0,0.0,0.0,0.0,0.0,0.0,0.0,0.0,0.0,0.0,0.0,0.0,0.0,0.0,0.0,0.0,0.0,0.0,0.0,0.0,0.0,0.0,0.0,0.0,0.0,0.0,0.0,0.0,0.0,0.0,0.0,0.0,0.0,0.0,0.0,0.0,0.0,0.0,0.0,0.0,0.0,0.0,0.0,0.0,0.0,2.8558,3.257,0.0,3.5999,3.5566,3.4411,3.1855,2.9049,2.6159,0.0,0.0,0.0,0.0,0.0,0.0,0.0,0.0,0.0,0.0,0.0,0.0,0.0,0.0,0.0,0.0,0.0,0.0,0.0,0.0,0.0,0.0,0.0,0.0,0.0,0.0,0.0,0.0,0.0,0.0,0.0,0.0,0.0,0.0,0.0,0.0,0.0,0.0,0.0,0.0,0.0,0.0,0.0,0.0,0.0,0.0,0.0,0.0,0.0,0.0,0.0,0.0,0.0,0.0,0.0,0.0,0.0,0.0,0.0,0.0,0.0,0.0,0.0,0.0,0.0,0.0,0.0,0.0,0.0,0.0,0.0,0.0,0.0,0.0,0.0,0.0,0.0,0.0,0.0,0.0,0.0,0.0,0.0,0.0,0.0,0.0,0.0,0.0,0.0,0.0,0.0,0.0,0.0,0.0,0.0,0.0,0.0,0.0,0.0,0.0,0.0,0.0,2.4887,2.9642,3.3594,0.0,3.5881,3.5293,3.4,3.1426,2.8561,2.5484,0.0,0.0,0.0,0.0,0.0,0.0,0.0,0.0,0.0,0.0,0.0,0.0,0.0,0.0,0.0,0.0,0.0,0.0,0.0,0.0,0.0,0.0,0.0,0.0,0.0,0.0,0.0,0.0,0.0,0.0,0.0,0.0,0.0,0.0,0.0,0.0,0.0,0.0,0.0,0.0,0.0,0.0,0.0,0.0,0.0,0.0,0.0,0.0,0.0,0.0,0.0,0.0,0.0,0.0,0.0,0.0,0.0,0.0,0.0,0.0,0.0,0.0,0.0,0.0,0.0,0.0,0.0,0.0,0.0,0.0,0.0,0.0,0.0,0.0,0.0,0.0,0.0,0.0,0.0,0.0,0.0,0.0,0.0,0.0,0.0,0.0,0.0,0.0,0.0,0.0,0.0,0.0,0.0,0.0,0.0,0.0,0.0,0.0,0.0,0.0,0.0,0.0,2.5441,3.1351,3.5566,3.5959,3.5644,3.4863,3.3519,2.9121,2.584,0.0,0.0,0.0,0.0,0.0,0.0,0.0,0.0,0.0,0.0,0.0,0.0,0.0,0.0,0.0,0.0,0.0,0.0,0.0,0.0,0.0,0.0,0.0,0.0,0.0,0.0,0.0,0.0,0.0,0.0,0.0,0.0,0.0,0.0,0.0,0.0,0.0,0.0,0.0,0.0,0.0,0.0,0.0,0.0,0.0,0.0,0.0,0.0,0.0,0.0,0.0,0.0,0.0,0.0,0.0,0.0,0.0,0.0,0.0,0.0,0.0,0.0,0.0,0.0,0.0,0.0,0.0,0.0,0.0,0.0,0.0,0.0,0.0,0.0,0.0,0.0,0.0,0.0,0.0,0.0,0.0,0.0,0.0,0.0,0.0,0.0,0.0,0.0,0.0,0.0,0.0,0.0,0.0,0.0,0.0,0.0,0.0,0.0,0.0,0.0,0.0,0.0,0.0,2.6461,3.2001,3.5862,3.5999,3.5644,3.4746,3.3125,3.0327,2.733,2.418,0.0,0.0,0.0,0.0,0.0,0.0,0.0,0.0,0.0,0.0,0.0,0.0,0.0,0.0,0.0,0.0,0.0,0.0,0.0,0.0,0.0,0.0,0.0,0.0,0.0,0.0,0.0,0.0,0.0,0.0,0.0,0.0,0.0,0.0,0.0,0.0,0.0,0.0,0.0,0.0,0.0,0.0,0.0,0.0,0.0,0.0,0.0,0.0,0.0,0.0,0.0,0.0,0.0,0.0,0.0,0.0,0.0,0.0,0.0,0.0,0.0,0.0,0.0,0.0,0.0,0.0,0.0,0.0,0.0,0.0,0.0,0.0,0.0,0.0,0.0,0.0,0.0,0.0,0.0,0.0,0.0,0.0,0.0,0.0,0.0,0.0,0.0,0.0,0.0,0.0,0.0,0.0,0.0,0.0,0.0,0.0,0.0,0.0,0.0,0.0,0.0,0.0,2.713,3.2367,3.5999,3.5999,3.5469,3.4492,3.293,3.0644,2.7747,2.4035,0.0,0.0,0.0,0.0,0.0,0.0,0.0,0.0,0.0,0.0,0.0,0.0,0.0,0.0,0.0,0.0,0.0,0.0,0.0,0.0,0.0,0.0,0.0,0.0,0.0,0.0,0.0,0.0,0.0,0.0,0.0,0.0,0.0,0.0,0.0,0.0,0.0,0.0,0.0,0.0,0.0,0.0,0.0,0.0,0.0,0.0,0.0,0.0,0.0,0.0,0.0,0.0,0.0,0.0,0.0,0.0,0.0,0.0,0.0,0.0,0.0,0.0,0.0,0.0,0.0,0.0,0.0,0.0,0.0,0.0,0.0,0.0,0.0,0.0,0.0,0.0,0.0,0.0,0.0,0.0,0.0,0.0,0.0,0.0,0.0,0.0,0.0,0.0,0.0,0.0,0.0,0.0,0.0,0.0,0.0,0.0,0.0,0.0,0.0,0.0,0.0,0.0,2.7519,3.2559,3.5999,3.5999,3.5234,3.418,3.291,3.0396,2.7448,2.4074,0.0,0.0,0.0,0.0,0.0,0.0,0.0,0.0,0.0,0.0,0.0,0.0,0.0,0.0,0.0,0.0,0.0,0.0,0.0,0.0,0.0,0.0,0.0,0.0,0.0,0.0,0.0,0.0,0.0,0.0,0.0,0.0,0.0,0.0,0.0,0.0,0.0,0.0,0.0,0.0,0.0,0.0,0.0,0.0,0.0,0.0,0.0,0.0,0.0,0.0,0.0,0.0,0.0,0.0,0.0,0.0,0.0,0.0,0.0,0.0,2.2029,0.0,0.0,0.0,0.0,0.0,0.0,0.0,0.0,0.0,0.0,0.0,0.0,0.0,0.0,0.0,0.0,0.0,0.0,0.0,0.0,0.0,0.0,0.0,0.0,0.0,0.0,0.0,0.0,0.0,0.0,0.0,0.0,0.0,0.0,0.0,0.0,0.0,0.0,0.0,0.0,0.0,2.7617,3.2559,3.5999,3.5999,3.5234,3.418,3.291,3.0396,2.7585,2.4461,2.2342,0.0,0.0,0.0,0.0,0.0,0.0,0.0,0.0,0.0,0.0,0.0,0.0,0.0,0.0,0.0,0.0,0.0,0.0,0.0,0.0,0.0,0.0,0.0,0.0,0.0,0.0,0.0,0.0,0.0,0.0,0.0,0.0,0.0,0.0,0.0,0.0,0.0,0.0,0.0,0.0,0.0,0.0,0.0,0.0,0.0,0.0,0.0,0.0,0.0,0.0,0.0,0.0,0.0,0.0,0.0,0.0,0.0,0.0,0.0,0.0,2.3274,0.0,0.0,0.0,0.0,0.0,0.0,0.0,0.0,0.0,0.0,0.0,0.0,0.0,0.0,0.0,0.0,0.0,0.0,0.0,0.0,0.0,0.0,0.0,0.0,0.0,0.0,0.0,0.0,0.0,0.0,0.0,0.0,0.0,0.0,0.0,0.0,0.0,0.0,0.0,0.0,2.8744,3.3066,3.5999,3.5999,3.5234,3.418,3.291,3.0781,2.8229,2.521,2.319,0.0,0.0,0.0,0.0,0.0,0.0,0.0,0.0,0.0,0.0,0.0,0.0,0.0,0.0,0.0,0.0,0.0,0.0,0.0,0.0,0.0,0.0,0.0,0.0,0.0,0.0,0.0,0.0,0.0,0.0,0.0,0.0,0.0,0.0,0.0,0.0,0.0,0.0,0.0,0.0,0.0,0.0,0.0,0.0,0.0,0.0,0.0,0.0,0.0,0.0,0.0,0.0,0.0,3.1665,3.2668,3.319,3.3296,3.2901,3.1983,2.9707,2.7739,2.5979,2.4721,0.0,0.0,0.0,0.0,0.0,0.0,0.0,0.0,0.0,0.0,0.0,0.0,0.0,0.0,0.0,0.0,0.0,0.0,0.0,0.0,0.0,0.0,0.0,0.0,2.584,2.4578,0.0,0.0,0.0,0.0,0.0,0.0,0.0,0.0,0.0,0.0,0.0,0.0,2.9858,3.3539,3.5999,3.5999,3.5234,3.4238,3.3105,3.1426,2.9224,2.6427,2.4555,2.2732,0.0,0.0,0.0,0.0,0.0,0.0,0.0,0.0,0.0,0.0,0.0,0.0,0.0,0.0,0.0,0.0,0.0,0.0,0.0,0.0,0.0,0.0,0.0,0.0,0.0,0.0,0.0,0.0,0.0,0.0,0.0,0.0,2.3397,2.5328,0.0,0.0,0.0,0.0,0.0,0.0,0.0,0.0,0.0,0.0,0.0,0.0,0.0,3.0934,3.3171,3.4057,3.4687,3.5073,3.6751,3.6838,3.5617,3.7725,3.8297,3.7641,3.7391,0.0,2.9486,2.7719,0.0,0.0,0.0,0.0,0.0,0.0,0.0,0.0,0.0,0.0,0.0,0.0,0.0,0.0,0.0,0.0,0.0,0.0,0.0,0.0,0.0,0.0,2.7174,2.7448,2.765,2.7598,0.0,2.372,2.0615,1.9614,1.9121,0.0,0.0,0.0,0.0,0.0,0.0,0.0,2.9598,3.3379,3.5999,3.5999,3.5234,3.4473,3.3961,3.2324,3.0513,2.86,2.6505,2.5074,2.4437,2.1906,0.0,0.0,0.0,0.0,0.0,0.0,0.0,0.0,0.0,0.0,0.0,0.0,0.0,0.0,0.0,0.0,0.0,0.0,0.0,0.0,0.0,0.0,0.0,0.0,0.0,0.0,0.0,0.0,0.0,2.5212,2.6743,2.6731,2.7802,2.7601,0.0,0.0,0.0,0.0,0.0,0.0,0.0,0.0,0.0,3.2726,3.4031,3.5384,3.6819,3.9314,4.0745,4.1129,4.2944,4.3576,4.3225,4.4316,4.4482,4.3865,4.3612,4.1544,3.8007,3.3716,3.0611,2.8414,0.0,0.0,0.0,0.0,2.5395,2.5798,2.6184,2.6445,0.0,2.6777,0.0,0.0,0.0,0.0,0.0,0.0,0.0,0.0,0.0,0.0,2.9305,3.0048,3.0361,3.0366,2.9936,2.7496,2.4849,0.0,2.2721,2.232,2.0904,0.0,0.0,0.0,0.0,2.9595,3.1484,3.4222,3.5999,3.5999,3.5234,3.4434,3.3769,3.2578,3.1147,2.9394,2.7487,2.6023,2.5153,2.3138,2.1867,0.0,0.0,0.0,0.0,0.0,0.0,0.0,0.0,0.0,0.0,0.0,0.0,0.0,0.0,0.0,0.0,0.0,0.0,0.0,0.0,0.0,0.0,0.0,0.0,0.0,0.0,0.0,0.0,2.8025,2.9609,2.8299,3.0292,3.0637,0.0,0.0,0.0,0.0,0.0,0.0,3.2925,3.4027,3.5657,3.7943,3.9606,4.089,4.1771,4.4782,4.6454,4.6703,4.8101,4.9003,4.9446,4.9446,4.9104,4.852,4.8118,4.7149,4.5394,3.9242,3.4735,3.1624,3.0666,2.8888,2.6967,2.7845,2.8249,2.8406,2.8822,2.89,2.8803,2.8836,2.8334,2.7441,2.5984,0.0,0.0,0.0,0.0,2.7552,2.9029,3.0137,3.1206,3.2515,3.2828,3.275,3.2387,3.1216,2.9355,0.0,2.582,2.5328,2.361,0.0,0.0,0.0,0.0,3.0747,3.3109,3.4925,3.5999,3.5999,3.5234,3.4453,3.3793,3.2887,3.1807,3.0497,2.8685,2.7239,2.6294,2.4691,2.3186,2.1779,0.0,0.0,0.0,0.0,0.0,0.0,0.0,0.0,0.0,0.0,0.0,0.0,0.0,0.0,0.0,0.0,0.0,0.0,0.0,0.0,0.0,0.0,0.0,0.0,0.0,0.0,0.0,0.0,0.0,3.0437,3.4215,0.0,0.0,0.0,0.0,3.1353,3.332,3.5746,3.8354,4.0534,4.3175,4.637,4.7614,4.9024,5.0646,5.0846,5.0979,5.0988,5.108,5.1138,5.1163,5.1163,5.0862,5.0277,5.0252,4.99,4.8883,4.2753,3.8493,3.5513,3.2576,3.0832,2.9955,2.9618,2.9741,3.0137,3.062,3.0483,3.0307,3.1573,3.1636,3.0923,2.9205,2.8658,0.0,0.0,2.8138,2.9657,3.0561,3.1734,3.2988,3.4258,3.457,3.457,3.4551,3.4176,3.2609,0.0,2.692,2.6191,2.5628,0.0,2.7585,2.8105,3.0703,3.2793,3.3344,3.4925,3.5999,3.5999,3.5234,3.4687,3.4648,3.3496,3.2734,3.2637,3.0639,2.9442,2.9383,2.6921,2.5359,2.4867,2.2912,0.0,0.0,0.0,0.0,0.0,0.0,0.0,0.0,0.0,0.0,0.0,0.0,0.0,0.0,0.0,0.0,0.0,0.0,0.0,0.0,0.0,0.0,0.0,0.0,0.0,0.0,0.0,0.0,3.4812,3.7802,0.0,3.4941,3.6007,3.6874,3.6812,3.9863,4.26,4.4579,4.6451,4.836,5.0252,5.1055,5.19,5.2829,5.3223,5.3416,5.3416,5.3416,5.3416,5.3416,5.3416,5.3097,5.2511,5.2511,5.1825,5.0528,4.8355,4.5048,4.1193,3.9259,3.7588,3.6293,3.672,3.713,3.748,3.7545,3.6568,3.4995,3.3171,3.1914,3.1055,3.0689,3.0376,3.0254,3.0625,3.1367,3.2324,3.3496,3.4121,3.4743,3.5739,3.5762,3.553,3.553,3.498,3.3961,3.2179,3.0644,2.9551,2.9121,2.918,2.9741,3.1011,3.2344,3.3539,3.457,3.5452,3.5999,3.5999,3.5488,3.4922,3.4352,3.3613,3.2734,3.1655,3.0039,2.892,2.8406,2.6647,2.5249,2.4269,2.3507,2.2285,0.0,0.0,0.0,0.0,0.0,0.0,0.0,0.0,0.0,0.0,0.0,0.0,0.0,0.0,0.0,0.0,0.0,0.0,0.0,0.0,0.0,0.0,0.0,0.0,0.0,0.0,3.8353,3.8329,4.1227,4.2331,3.9923,4.0877,4.197,4.2724,4.5688,4.8159,4.9766,5.1256,5.2586,5.3715,5.4293,5.4745,5.5114,5.529,5.5408,5.5408,5.5232,5.5132,5.5132,5.5132,5.483,5.426,5.426,5.3575,5.2394,5.2193,5.029,4.7174,4.4294,4.1898,4.0047,4.0094,4.0188,4.0262,4.0024,3.9335,3.8021,3.4907,3.3223,3.2476,3.2719,3.2519,3.2383,3.3414,3.3867,3.43,3.5332,3.5723,3.5993,3.656,3.658,3.6389,3.6269,3.5664,3.5019,3.4626,3.3242,3.1957,3.1441,3.1191,3.1465,3.2617,3.3027,3.3617,3.4821,3.5312,3.555,3.555,3.5469,3.5056,3.4157,3.3281,3.2231,3.0991,2.9375,2.8197,2.7493,2.6335,2.5093,2.382,2.3223,2.2079,2.0352,0.0,0.0,0.0,0.0,0.0,0.0,0.0,0.0,0.0,0.0,0.0,0.0,0.0,0.0,0.0,0.0,0.0,0.0,0.0,0.0,0.0,0.0,0.0,3.2546,3.8261,4.1934,4.0914,4.4614,4.6622,4.4966,4.6321,4.7741,4.8868,5.051,5.2143,5.3708,5.4863,5.5968,5.6985,5.76,5.7901,5.7901,5.733,5.7035,5.701,5.6502,5.6251,5.6251,5.6226,5.5942,5.5458,5.5433,5.5107,5.4572,5.3984,5.3733,5.3133,4.7249,4.3433,4.1063,3.9575,3.8683,3.8123,3.7693,3.8347,3.9067,3.6765,3.5781,3.5449,3.543,3.5137,3.4883,3.5332,3.5449,3.5547,3.592,3.6348,3.6697,3.6714,3.701,3.7168,3.6795,3.6348,3.5901,3.5488,3.4359,3.3226,3.2452,3.2613,3.2891,3.2891,3.2891,0.0,3.4055,3.4508,3.4726,3.4707,3.5137,3.5056,3.4153,3.2519,3.1333,3.0874,2.8855,2.7454,2.6979,2.6147,2.5113,2.3867,2.2138,2.1249,2.1268,0.0,0.0,0.0,0.0,0.0,0.0,0.0,0.0,0.0,0.0,0.0,0.0,0.0,0.0,0.0,0.0,0.0,0.0,0.0,0.0,0.0,0.0,3.9608,3.9522,4.2446,4.5211,4.6903,4.9222,5.0377,4.954,5.0578,5.1607,5.2302,5.3909,5.5214,5.605,5.6821,5.7349,5.765,5.7801,5.7901,5.7901,5.775,5.7631,5.765,5.7499,5.7424,5.7424,5.6979,5.6702,5.6552,5.615,5.5666,5.5157,5.4988,5.4705,5.4114,5.1624,4.9965,4.8974,4.8545,4.6877,4.4621,4.2937,4.1413,3.9789,3.7304,3.6638,3.6719,3.6423,3.6462,3.6601,3.6738,3.6777,3.6738,3.656,3.6599,3.6756,3.7068,3.699,3.6912,3.7107,3.6797,3.6367,3.592,3.553,3.512,3.4606,3.4609,3.4785,3.5081,3.512,0.0,3.5449,3.5569,3.5393,3.4766,3.5374,3.5117,3.3316,3.2715,3.1601,2.959,2.8027,2.6843,2.6089,2.5823,2.553,2.5191,2.3181,2.245,0.0,0.0,0.0,0.0,0.0,0.0,0.0,0.0,0.0,0.0,0.0,0.0,0.0,0.0,0.0,0.0,0.0,0.0,0.0,0.0,0.0,0.0,4.0897,4.501,4.6783,4.7747,4.9012,5.1071,5.2603,5.3457,5.3356,5.4117,5.4845,5.5415,5.6552,5.7481,5.8008,5.8585,5.9031,5.9257,5.9282,5.9282,5.9282,5.8805,5.8579,5.8554,5.8102,5.7901,5.7901,5.7531,5.7255,5.6985,5.6677,5.6226,5.5742,5.5742,5.5541,0.0,0.0,0.0,0.0,0.0,4.8434,4.6392,4.4186,4.229,4.0416,3.78,3.7107,3.7246,3.7029,3.7109,3.7266,3.7107,3.7049,3.6951,3.6521,3.656,3.6795,3.7187,3.7127,3.7029,3.7246,3.699,3.656,3.6077,3.5999,0.0,3.5703,3.5351,3.5137,3.5195,3.5039,3.4983,3.5176,3.5335,3.5273,3.4746,3.5332,3.5019,3.3223,3.2402,0.0,0.0,0.0,2.6198,2.4969,2.4734,0.0,0.0,0.0,2.3136,2.38,0.0,0.0,0.0,2.2381,2.2177,0.0,0.0,0.0,0.0,0.0,0.0,0.0,0.0,0.0,0.0,0.0,0.0,0.0,0.0,0.0,0.0,4.4601,4.8746,5.3432,5.3306,5.308,5.3984,5.5013,5.5892,5.6426,5.6903,5.743,5.8027,5.8635,5.9162,5.9558,0.0,0.0,0.0,0.0,6.1366,6.1366,6.0311,5.9734,5.9684,5.8654,5.8152,5.8077,5.8027,5.7681,5.7186,5.7136,5.6803,5.6276,5.6276,5.6251,5.5961,5.3574,5.1885,5.0502,4.81,4.6774,4.5841,4.349,0.0,0.0,3.8354,3.748,3.75,3.7402,3.7402,3.7363,3.701,3.689,3.6736,3.6269,3.6462,3.6834,3.7166,3.7226,3.7226,3.7226,3.6912,3.6502,3.6077,3.6169,3.6304,3.6304,3.5652,3.4953,3.4404,3.4121,3.4071,3.4287,3.4626,3.4805,3.4707,0.0,0.0,3.3461,3.1973,3.0508,2.9068,2.7402,2.5774,2.4219,2.3772,2.3225,2.2491,2.3147,2.3714,2.4172,2.4887,2.5649,2.634,2.4082,2.3622,0.0,0.0,0.0,0.0,0.0,0.0,0.0,0.0,0.0,0.0,0.0,0.0,0.0,0.0,0.0,4.4599,4.9185,5.3231,5.5974,5.6602,5.6652,5.6383,5.6997,5.7625,5.8158,5.8303,5.8598,5.9131,6.0155,6.0537,6.0166,6.1522,6.2174,6.1868,6.225,6.2476,6.2476,6.1823,6.1291,6.0858,0.0,0.0,5.9182,5.8736,5.8485,5.8359,5.7907,5.738,5.6835,5.6835,5.6602,5.6107,5.5174,5.4642,5.4227,5.2812,5.1233,4.9399,4.655,4.4478,4.2559,3.9384,3.8573,3.8711,3.799,3.8047,0.0,3.8241,3.7949,3.756,3.7168,3.7109,3.7127,3.6873,3.6832,3.6832,3.6832,3.6462,3.6096,3.6018,3.7143,3.8104,3.8104,3.796,3.7335,3.5863,3.6742,3.7135,3.5793,3.5706,3.5471,3.4766,3.5117,3.4726,3.3066,3.2617,3.1577,2.9584,2.7832,2.6726,2.6406,2.5996,2.584,2.6003,2.5496,2.5601,2.6374,2.6211,2.6243,2.6399,2.6198,2.6257,0.0,0.0,0.0,0.0,0.0,0.0,0.0,0.0,0.0,0.0,0.0,3.5786,0.0,0.0,4.5379,4.8682,5.2452,5.5723,5.7932,5.8504,5.8504,5.7932,5.8334,5.8905,5.9438,6.001,6.0462,6.0738,6.1813,6.232,6.2019,6.3048,6.3525,6.327,6.35,6.3651,6.3651,6.3124,6.2571,6.1994,6.1421,6.0713,5.991,5.9614,5.9212,5.8685,5.8409,5.7983,5.743,5.7111,5.6677,5.6175,5.5917,5.5641,5.5239,5.411,5.198,4.9324,4.7155,4.4608,4.1997,3.9925,3.9394,3.9473,3.9043,3.8906,3.8866,3.8651,3.8262,3.7814,3.7402,3.7305,3.7246,3.7049,3.6834,3.6714,3.6714,3.7026,3.7388,3.7641,3.8898,3.9991,4.0263,4.0772,4.0563,3.8861,3.8597,3.8287,3.7408,3.6539,3.5823,3.541,3.5176,3.4626,3.3551,3.2656,3.1406,2.9715,2.8783,2.8021,2.7376,2.7161,2.7044,2.6999,2.6804,2.6927,2.7357,2.7154,2.7142,2.7357,2.7559,2.7409,0.0,0.0,0.0,0.0,0.0,0.0,0.0,0.0,3.4739,3.6849,3.8781,4.0777,4.3065,4.6175,4.9357,5.2385,5.5114,5.7575,5.9684,6.0085,6.0016,5.9714,5.9759,6.0085,6.0719,6.1622,6.2199,6.232,6.3375,6.3902,6.3701,6.44,6.4752,6.4651,6.4752,6.4802,6.4802,6.43,6.3701,6.3128,6.2596,6.1723,6.0618,6.0618,6.0041,5.9012,5.8786,5.8434,5.8001,5.7305,5.6753,5.6351,5.6226,5.5942,5.5415,5.4411,5.2248,4.9589,4.7863,4.5419,4.2846,4.1576,4.0921,4.0583,4.0484,3.9868,3.9141,3.8925,3.8457,3.797,3.7734,3.7598,3.7519,3.7441,3.7107,3.6918,3.728,3.8013,3.886,3.9737,4.0868,4.1806,4.2263,4.3364,4.3529,4.1501,4.0002,3.8977,3.863,3.7092,3.5999,3.5999,3.5234,3.4547,3.4118,3.2656,3.1348,3.0385,3.0028,2.9403,2.8367,2.8151,2.7897,2.7506,2.7786,2.7976,2.8067,2.7976,2.8099,2.8418,2.8509,2.8125,2.9449,2.8398,2.8467,3.0668,3.1884,3.3617,0.0,0.0,4.1557,4.3248,4.5723,4.7688,4.8014,5.0761,5.3565,5.5422,5.765,5.9734,6.1492,6.2124,6.2601,6.3073,6.1888,6.1391,6.2425,6.2651,6.2927,6.3475,6.4505,6.4726,6.3751,6.5107,6.571,6.5229,6.5685,6.5936,6.5936,6.5383,6.4852,6.43,6.3772,6.2898,6.1818,6.1818,6.1195,6.0066,5.9112,5.866,5.8535,5.7455,5.696,5.686,5.6376,5.615,5.6043,5.5415,5.4945,5.42,5.1303,5.0062,4.9287,4.6558,4.45,4.3018,4.2601,4.0938,3.9277,3.9648,3.9159,3.8592,3.8906,3.8729,3.8358,3.7931,3.7539,3.768,3.9354,3.9126,3.9219,4.1286,4.2641,4.3435,4.3506,4.4908,4.4905,4.1693,4.1036,4.0343,3.8795,3.7092,3.5999,3.5999,3.5234,3.4547,3.4118,3.3219,3.2754,3.2953,3.1582,3.0698,3.0542,2.9813,2.9364,2.9305,2.8945,2.8965,2.9383,2.8965,2.8795,2.8834,2.9252,2.9174,3.281,3.2194,3.2365,0.0,3.7311,3.9233,4.2347,4.4331,4.5974,4.7641,4.9941,5.1867,5.252,5.4813,5.7029,0.0,5.9935,6.1441,6.2797,6.2877,6.2777,6.2722,6.237,6.2571,6.3676,6.4078,6.4505,6.5057,6.5509,6.571,6.5631,6.5936,6.6011,6.5785,6.5986,6.609,6.609,6.5886,6.5484,6.4953,6.4752,6.3877,6.2476,6.2476,6.1672,6.0267,5.984,5.9288,5.866,5.8208,5.7606,5.6985,5.6734,5.6477,5.6143,5.5591,5.4077,5.2151,5.1481,4.9688,4.7616,4.7354,4.6489,4.5282,4.3963,4.2696,4.1497,4.0536,3.9824,3.9413,3.9551,3.9473,3.9179,3.8476,3.8968,3.9611,3.9581,4.1143,4.2844,4.3803,4.5142,4.6258,4.6609,4.6718,4.628,4.4856,4.3498,4.2391,4.1654,4.0356,3.9008,3.7759,3.6571,3.5485,3.4528,3.4372,3.4043,3.3441,3.2738,3.2148,3.1675,3.1035,3.06,3.0366,2.9902,2.9643,2.9598,2.9141,2.9029,2.9311,2.952,2.9623,3.4215,0.0,0.0,3.9434,4.197,4.4156,4.6567,4.8335,5.0001,5.1858,5.3632,5.5239,5.652,5.8202,5.9809,6.104,6.2195,6.3249,6.4228,6.3877,6.3229,6.2546,6.2526,6.3048,6.4174,6.4752,6.5434,6.6287,6.6363,6.6589,6.7188,6.6815,6.6589,6.6589,6.6438,6.6363,6.6363,6.6187,6.5911,6.5509,6.5509,6.4731,6.3254,6.2777,6.1823,6.0543,6.0367,5.9765,5.8886,5.8585,5.7983,5.723,5.706,5.6677,5.6175,5.6118,5.4238,5.1798,5.2447,5.0574,4.8119,4.9153,4.8831,4.7781,4.6362,4.4905,4.3429,4.2084,4.0927,4.0098,4.0215,4.0572,4.0688,3.989,4.0947,4.1976,4.1419,4.3454,4.5597,4.6231,4.7174,4.8033,4.8476,4.7883,4.7274,4.7124,4.5702,4.4483,4.4007,4.294,4.1396,3.9189,3.8044,3.6808,3.5189,3.5273,3.498,3.4007,3.3597,3.3129,3.2554,3.1992,3.1562,3.1265,3.0932,3.0542,3.0112,2.9902,2.9922,3.0131,3.0263,3.0464,0.0,0.0,3.5894,4.0892,4.4543,4.7691,5.0485,5.2369,5.416,5.6351,5.7305,5.8252,5.9865,6.0688,6.1662,6.3324,6.4479,6.5383,6.5961,6.5559,6.4831,6.3776,6.2697,6.2471,0.0,6.4199,6.5204,6.6836,6.6962,6.7213,6.7744,6.7769,6.7744,6.7744,6.7238,6.6962,6.6962,6.6388,6.609,6.6086,6.6086,6.5509,6.4375,6.2772,6.1718,6.1135,6.0563,6.001,5.9382,5.8353,5.7901,5.7826,5.723,5.6677,5.6326,5.7424,5.7073,5.5936,5.5432,5.487,5.4231,5.3708,5.2243,5.0668,5.0614,4.7649,4.435,4.4678,4.2693,4.0586,4.1054,4.2273,4.3241,4.2609,4.3364,4.4636,4.6227,4.5966,4.6054,4.8262,4.8269,4.7908,4.7917,4.7908,4.7691,4.7174,4.7028,4.6418,4.4768,4.3512,4.1894,3.963,3.9357,3.8416,3.6152,3.5625,3.5371,3.5332,3.4105,3.3402,3.3347,3.2613,3.2179,3.2159,3.214,3.191,3.145,3.189,3.187,3.145,3.191,3.212,0.0,0.0,4.2395,4.7069,4.9866,5.2109,5.4519,5.5817,5.6577,5.6935,5.662,5.6312,5.6488,5.6965,5.8271,6.1014,6.3023,6.468,6.5914,6.5939,6.4756,6.1773,6.2074,0.0,0.0,0.0,0.0,6.7342,6.7213,6.7389,6.8274,6.7995,6.7794,6.7794,6.7618,6.7364,6.6987,6.6811,6.6488,6.609,6.5383,6.4852,6.4471,6.3149,6.2225,6.1692,6.114,6.0563,5.9985,5.9257,5.8529,5.7926,5.8052,5.7575,5.6828,5.7625,5.765,5.7298,5.7123,5.5547,5.3807,5.5,5.4427,5.3074,5.1747,5.0305,4.8615,4.6072,4.5633,4.5584,4.393,4.4963,4.6211,4.5343,4.633,4.7473,4.7404,4.8397,4.9405,4.9794,4.9715,4.969,5.0092,4.8912,4.7716,4.7174,4.6813,4.6615,4.6761,4.539,4.427,4.3933,4.1951,4.0115,3.8822,3.7462,3.6406,3.5823,3.512,3.4473,3.3903,3.3301,3.2871,3.2613,3.2335,3.212,3.1968,3.212,3.212,3.1968,3.212,3.2198,0.0,4.3313,4.6888,5.1615,5.3683,5.5171,5.738,5.7732,5.7531,5.7355,5.5824,5.4411,5.4077,5.3976,5.5006,5.8284,6.0217,6.2245,6.4881,6.4534,6.3329,6.1421,6.1622,6.1572,0.0,0.0,0.0,6.6714,6.6962,6.7467,6.855,6.845,6.8374,6.8374,6.8196,6.7819,6.7288,6.7087,6.6711,6.609,6.5204,6.4697,6.4471,6.355,6.2621,6.1692,6.1542,6.0939,5.9991,5.9859,5.9156,5.8252,5.8774,5.8303,5.7405,5.8202,5.8353,5.8152,5.7976,5.6382,5.4666,5.5822,5.5742,5.4874,5.3417,5.2482,5.1368,4.8795,4.8376,4.8305,4.6575,4.7681,4.9006,4.8158,4.9387,5.0458,4.9483,5.0502,5.1348,5.0553,5.0402,5.0528,5.0921,4.9766,4.8545,4.7817,4.7405,4.7431,4.8134,4.7354,4.6673,4.6447,4.4539,4.2453,4.0487,3.9073,3.7721,3.634,3.5703,3.5153,3.4587,3.4121,3.3691,3.3277,3.3019,3.2726,3.2398,3.2554,3.2554,3.2433,3.2554,3.2633,4.3234,4.6637,4.9499,5.4411,5.6018,5.6947,5.9056,5.8208,5.7111,5.7549,5.492,5.2536,0.0,0.0,5.2193,5.5566,5.6778,5.8861,6.3299,6.2069,6.1271,0.0,0.0,0.0,0.0,0.0,0.0,6.5183,0.0,6.7464,6.8575,6.9105,6.9406,6.9406,6.8926,6.8374,6.7844,6.7288,6.6689,6.6137,6.5559,6.5028,6.4496,6.3927,6.2818,6.1311,6.1768,6.1065,5.9659,6.0116,5.9689,5.8786,5.9332,5.888,5.8077,5.9106,5.9182,5.866,5.8152,5.7556,5.696,5.6451,5.6251,5.6118,5.5609,5.415,5.2665,5.2554,5.0886,4.9043,4.8926,5.0309,5.1631,5.1129,5.2374,5.3432,5.2402,5.2176,5.1875,5.0779,5.0578,5.0528,5.0377,5.0402,5.0067,4.8969,4.8818,4.8843,4.8793,4.9254,4.89,4.7138,4.6848,4.5232,4.1343,4.0466,3.9206,3.7013,3.5986,3.5466,3.5391,3.4961,3.4547,3.4153,3.4118,3.3727,3.2891,3.3246,3.3226,3.2887,3.3226,3.3402,4.9097,5.241,5.487,5.8227,5.8855,5.8905,5.9885,5.8485,5.6458,5.4569,5.0879,4.7481,0.0,0.0,0.0,5.4253,5.8554,0.0,6.6237,6.6614,0.0,6.4274,0.0,6.4329,6.355,6.4078,0.0,0.0,6.6162,6.7169,6.908,6.9331,6.9406,6.9406,6.9255,6.8952,6.8399,6.7489,6.6912,6.6761,6.576,6.5028,6.4496,6.3927,6.3224,6.235,6.1692,6.1391,6.1316,6.0593,5.989,5.9357,5.991,5.9438,5.8585,5.9257,5.9408,5.9282,5.9131,5.8478,5.765,5.7524,5.6897,5.6175,5.6043,5.5664,5.4936,5.3379,5.3581,5.3838,5.1881,5.2592,5.381,5.3662,5.3668,5.3632,5.3356,5.3306,5.3206,5.2929,5.2879,5.2226,5.0167,5.0494,5.0561,4.9044,4.9129,4.9254,4.8843,4.8919,4.8953,4.8876,4.7641,4.6384,4.5316,4.2359,4.0159,3.9292,3.7428,3.6072,3.543,3.529,3.5016,3.4567,3.4547,3.445,3.4219,3.402,3.3864,3.3766,3.3516,3.3402,5.3296,5.6326,5.8434,6.0236,6.0085,5.9257,5.8353,5.6269,5.3381,4.9389,4.5623,0.0,0.0,0.0,0.0,0.0,0.0,0.0,6.571,6.6187,6.5939,0.0,6.5886,0.0,6.5229,6.5434,6.6086,0.0,6.699,6.7471,6.8954,6.9255,6.9406,6.9406,6.9406,6.9029,6.8271,6.7439,6.6861,6.6589,6.5961,6.5254,6.4496,6.4199,6.345,6.2425,0.0,6.1818,6.1642,6.1472,6.0794,5.991,6.0487,6.0035,5.9106,5.9382,5.9483,5.9483,5.9483,5.8956,5.8227,5.7976,5.7474,5.6853,5.6351,5.62,5.5956,5.48,5.5306,5.5862,5.439,5.465,5.5308,5.5308,5.5039,5.4737,5.4486,5.4436,5.4235,5.349,5.3339,5.2729,5.0695,5.1272,5.1423,4.9741,4.9967,5.0058,4.9254,4.9154,4.928,4.9565,4.864,4.7377,4.5744,4.3322,4.1082,3.9243,3.7761,3.6658,3.5993,3.5974,3.5681,3.5019,3.5,3.4902,3.4707,3.4293,3.4114,3.4095,3.3633,3.3402,5.6627,5.9062,6.0693,6.1461,6.0733,5.9056,5.6086,5.3047,4.9254,4.3617,0.0,3.7964,3.7048,3.9232,4.3159,4.9163,0.0,5.802,6.4274,6.4254,6.4509,6.7015,6.6865,6.6718,6.7288,6.684,6.7144,6.86,6.8296,6.8221,6.8675,6.913,6.9406,6.9406,6.9406,6.8929,6.802,6.7414,6.684,6.6316,6.6165,6.5584,6.4601,6.4547,6.3697,6.2345,6.2576,6.2199,6.1466,6.2325,6.1748,6.0367,6.0964,6.0507,5.9483,5.9483,5.9483,5.9483,5.9483,5.9207,5.871,5.8177,5.7951,5.7725,5.6746,5.6426,5.6426,5.6426,5.6351,5.6301,5.6301,5.62,5.61,5.6175,5.6168,5.5968,5.5491,5.5408,5.4913,5.3314,5.3063,5.2762,5.1599,5.2251,5.236,5.0754,5.0971,5.0912,4.9841,4.964,4.959,4.959,4.959,4.8199,4.4744,4.3866,4.2011,3.848,3.7702,3.7187,3.6795,3.6775,3.6404,3.5603,3.5566,3.5332,3.4863,3.4469,3.4274,3.4271,3.375,3.3519,6.0085,6.1396,6.2069,6.3546,6.2742,6.0487,5.6344,5.18,0.0,0.0,3.7022,3.4851,3.5091,3.8153,4.3349,5.1649,5.5892,0.0,0.0,0.0,6.7948,0.0,0.0,0.0,0.0,0.0,0.0,0.0,6.918,6.9155,6.9255,6.9356,6.9406,6.9406,6.9406,6.9306,6.9105,6.817,6.7618,6.7493,6.6564,6.5785,6.5153,6.4701,6.4325,6.3998,6.2697,0.0,6.2501,6.2225,6.1396,6.0367,6.0964,6.0507,5.9483,5.9483,5.9483,5.9483,5.9483,5.9433,5.9282,5.8736,5.8278,5.7851,5.7675,5.76,5.76,5.76,5.7255,5.686,5.686,5.62,5.5641,5.6075,5.5867,5.5491,5.5415,5.5408,5.5056,5.3808,5.3959,5.3801,5.2226,5.2485,5.2511,5.1322,5.1239,5.1063,5.0352,4.9866,4.959,4.959,4.959,4.8714,4.6515,4.4897,4.2894,4.0382,3.8684,3.7637,3.7207,3.7205,3.697,3.6482,3.6462,3.623,3.5764,3.5371,3.5156,3.5173,3.4352,3.4157,6.1065,6.2822,6.4128,6.4099,6.2391,5.9006,5.2536,0.0,0.0,0.0,3.219,3.1225,3.2344,3.5969,0.0,4.7842,5.2511,5.7656,6.4584,0.0,0.0,0.0,0.0,0.0,0.0,0.0,0.0,6.9406,6.9406,6.9406,6.9406,6.9406,6.9406,6.9406,6.9406,6.9255,6.9002,6.8221,6.7643,6.7367,6.6513,6.5835,6.5283,6.4752,6.4496,6.4446,6.335,6.3023,6.3229,6.2998,6.222,6.119,6.121,6.0663,5.9885,5.9608,5.9483,5.9483,5.9483,5.9483,5.9458,5.9207,5.8736,5.8259,5.7976,5.7901,5.7901,5.7901,5.7455,5.6985,5.6985,5.6401,5.5892,5.6143,5.6018,5.5817,5.5817,5.5817,5.5566,5.4737,5.4579,5.4228,5.313,5.2912,5.2636,5.1825,5.1716,5.1398,5.0503,5.0176,4.9916,4.9615,4.959,4.8445,4.5626,4.459,4.2796,3.98,3.8765,3.8066,3.7619,3.7599,3.7422,3.7029,3.6795,3.658,3.6348,3.5703,3.5391,3.5371,3.4723,3.4528,6.2039,6.4128,6.581,6.453,6.1843,5.7323,4.9006,4.3073,0.0,0.0,2.8138,2.8298,3.0096,3.3445,3.7826,0.0,4.7958,5.3306,6.0788,6.2797,0.0,0.0,0.0,0.0,0.0,0.0,0.0,6.9406,6.9406,6.9406,6.9406,6.9406,6.9406,6.9406,6.9406,6.913,6.86,6.807,6.7518,6.6987,6.6388,6.5886,6.5434,6.4927,6.4726,6.4802,6.4149,6.3822,6.3701,6.3701,6.2948,6.1793,6.1512,6.0939,6.0242,5.9834,5.9583,5.9483,5.9483,5.9483,5.9483,5.9483,5.9207,5.8786,5.8378,5.8252,5.8252,5.8252,5.7826,5.7355,5.7361,5.6878,5.6351,5.6244,5.62,5.62,5.62,5.62,5.6043,5.5491,5.5056,5.4529,5.3808,5.3339,5.2887,5.2335,5.2176,5.1774,5.0879,5.0653,5.0377,4.9841,4.9665,4.8117,4.4425,4.4099,4.2522,3.8827,3.8592,3.8436,3.8068,3.8048,3.7853,3.7441,3.7127,3.6873,3.6714,3.6013,3.5642,3.5527,3.5059,3.4902,6.4684,6.5886,6.6065,6.5936,6.2672,5.7323,4.9006,0.0,0.0,2.8935,2.7018,2.7304,2.9462,3.0994,3.4561,4.2585,4.5121,4.9656,5.9854,6.2199,6.4509,6.8879,0.0,0.0,0.0,0.0,0.0,6.9406,6.9406,6.9406,6.9406,6.9406,6.9406,6.9406,6.9406,6.913,6.86,6.807,6.7518,6.6987,6.6388,6.6065,6.599,6.5459,6.5484,6.5911,6.4877,6.4149,0.0,6.3701,6.2722,6.1336,6.1743,6.1246,6.0292,6.0242,5.9935,5.9483,5.9483,5.9483,5.9483,5.9483,5.9458,5.9408,5.9357,5.9357,5.9357,5.9357,5.8975,5.8548,5.8535,5.7738,5.6784,5.6301,5.62,5.62,5.62,5.62,5.6043,5.5491,5.5358,5.4981,5.3884,5.3658,5.3439,5.2912,5.241,5.2059,5.1975,5.1515,5.0987,5.0377,4.9891,4.8117,4.4425,4.4099,4.2522,3.8827,3.8592,3.8573,3.8534,3.8534,3.8319,3.7853,3.7814,3.7441,3.6714,3.6616,3.6365,3.594,3.5527,3.5527,6.3053,6.5358,6.6463,6.5785,6.1793,5.5824,4.7475,0.0,3.4262,2.8099,2.6097,2.6138,2.8373,2.9688,3.2064,3.7036,3.9358,4.3478,5.2059,5.478,5.8403,6.5161,6.6538,0.0,0.0,0.0,6.9406,6.9406,6.9406,6.9406,6.9406,6.9406,6.9406,6.9406,6.9406,6.9479,6.9624,6.8396,6.7844,6.7945,6.6714,6.6287,6.6614,6.6036,6.6086,6.6564,6.5455,6.45,0.0,6.3701,6.2898,6.1692,6.1918,6.1542,6.0788,6.0417,5.994,5.9483,5.9483,5.9483,5.9483,5.9483,5.9483,5.9483,5.9483,5.9483,5.9483,5.9483,5.9106,5.8629,5.8284,5.7355,5.6451,5.6251,5.62,5.62,5.62,5.62,5.6143,5.5917,5.5616,5.5157,5.4378,5.3934,5.3532,5.2988,5.2711,5.246,5.2151,5.1925,5.1423,5.0503,5.0201,4.8442,4.4447,4.4099,4.2522,3.8827,3.8592,3.8592,3.8592,3.8592,3.8514,3.832,3.8048,3.7736,3.7422,3.7168,3.6853,3.6406,3.6504,3.6504,6.1095,6.4379,6.6309,6.5484,6.0763,5.4192,0.0,0.0,3.2717,2.7345,2.5594,2.5578,2.7302,2.8533,3.0266,3.3205,3.5378,3.927,4.6692,4.9631,5.3632,0.0,0.0,6.4429,0.0,6.8628,6.9406,6.9406,6.9406,6.9406,6.9406,6.9406,6.9406,6.9406,6.9406,6.9529,6.98,6.8472,6.7995,6.8349,6.7015,6.6664,6.7213,6.6639,6.6488,6.6686,6.5731,6.458,0.0,6.3626,6.3023,6.2019,6.2174,6.1818,6.116,6.0713,6.0111,5.9483,5.9483,5.9483,5.9483,5.9483,5.9483,5.9483,5.9483,5.9483,5.9483,5.9483,5.9232,5.8811,5.8278,5.7405,5.6671,5.6477,5.6301,5.62,5.62,5.62,5.62,5.62,5.5892,5.5483,5.4931,5.4479,5.4009,5.3464,5.3239,5.3013,5.2628,5.2435,5.1925,5.0795,5.067,4.8874,4.447,4.4099,4.2522,3.8827,3.8592,3.8592,3.8592,3.8592,3.8592,3.8592,3.8281,3.8029,3.7912,3.7637,3.7266,3.6873,3.7185,3.7166,5.9578,6.3219,6.5308,6.5283,5.9904,5.2738,0.0,0.0,3.1683,2.6649,2.5594,2.577,2.6399,2.7378,2.9202,3.2562,3.4463,3.8216,4.602,4.9006,5.1858,0.0,0.0,5.984,6.2601,6.6821,6.9406,6.9406,6.9406,0.0,6.9406,6.9406,6.9406,6.9406,6.9406,6.913,6.8625,6.807,6.7794,6.7794,6.7263,6.7288,6.7769,6.7238,6.6686,6.6086,6.5534,6.4354,0.0,6.345,6.3023,6.2049,6.2576,6.2144,6.121,6.1185,6.0462,5.9483,5.9483,5.9483,5.9483,5.9483,5.9483,5.9483,5.9483,5.9483,5.9483,5.9483,5.9483,5.9357,5.8836,5.8284,5.7725,5.7136,5.6602,5.62,5.62,5.62,5.62,5.62,5.6219,5.6018,5.5465,5.5383,5.5207,5.4672,5.4077,5.3683,5.3683,5.3213,5.2485,5.1414,5.1289,4.9346,4.4492,4.4099,4.2522,3.8827,3.8592,3.8592,3.8592,3.8592,3.8592,3.8592,3.8611,3.8359,3.7912,3.7892,3.7677,3.7285,3.7305,3.7305,5.0427,5.3607,5.5458,5.4303,5.087,4.6276,4.0576,0.0,3.1286,2.7069,2.5879,2.5904,2.6859,2.7921,2.9735,3.3093,3.4703,3.7426,4.2975,0.0,0.0,5.62,6.2229,6.6345,0.0,0.0,6.9406,6.9406,6.9406,6.9406,6.9406,6.9406,6.9406,6.9406,6.9029,6.8952,6.913,6.8249,6.7995,6.8324,6.7794,6.7819,6.8324,6.7794,6.7442,6.7191,6.586,6.4354,6.2807,6.3003,6.2446,6.1542,6.245,6.2124,6.121,6.121,6.0482,5.9483,5.9483,5.9483,5.9483,5.9483,5.9483,5.9483,5.9483,5.9483,5.9483,5.9483,5.9232,5.8836,5.8284,5.7706,5.7154,5.6602,5.6326,5.62,5.62,5.62,5.62,5.62,5.62,5.6043,5.5491,5.5408,5.5207,5.4672,5.4446,5.4321,5.4321,5.3808,5.3181,5.246,5.2076,4.9737,4.4555,4.4099,4.2522,3.8827,3.8592,3.8592,3.8592,3.8592,3.8592,3.8592,3.8592,3.8534,3.8377,3.8377,3.8319,3.8182,3.7871,3.7891,0.0,4.7431,4.9565,4.8953,4.605,0.0,0.0,0.0,3.0633,2.7203,2.6532,2.6649,2.6943,2.8232,3.0046,3.2541,3.4226,3.6761,4.1242,0.0,0.0,5.6333,0.0,0.0,0.0,6.8553,6.9406,6.9406,6.9406,6.9406,6.9406,6.9205,6.918,6.9381,6.908,6.9055,6.9406,6.8525,6.8374,6.8901,6.8349,6.8274,6.8575,6.8023,6.7442,6.6789,6.5555,6.4053,0.0,6.2727,6.2275,6.1592,6.245,6.2124,6.121,6.121,6.0482,5.9483,5.9483,5.9483,5.9483,5.9483,5.9483,5.9483,5.9483,5.9483,5.9483,5.9483,5.9257,5.8911,5.8604,5.7907,5.7255,5.6922,5.6502,5.62,5.62,5.62,5.62,5.62,5.62,5.6075,5.5767,5.5691,5.5591,5.5257,5.5031,5.4906,5.4906,5.4202,5.3221,5.1935,5.1975,4.9708,4.3819,4.3986,4.2751,3.8847,3.8592,3.8592,3.8592,3.8592,3.8592,3.8592,3.8592,3.8592,3.8592,3.8592,3.8592,3.8592,3.8301,3.832,0.0,0.0,0.0,0.0,0.0,0.0,0.0,0.0,0.0,2.7052,2.7286,2.7729,2.6817,2.8341,3.0166,3.1421,3.3445,0.0,0.0,4.5051,0.0,0.0,6.0944,0.0,6.3877,6.7245,6.9406,6.9406,6.9406,6.9381,6.9356,6.8926,6.8876,6.9331,6.9381,6.9381,6.9331,6.8826,6.8801,6.928,6.8826,6.8575,6.8525,6.7945,6.684,0.0,6.4651,6.3496,6.2074,6.2551,6.245,6.2044,6.2551,6.2119,6.1185,6.116,6.0437,5.9483,5.9483,5.9483,5.9483,5.9483,5.9483,5.9483,5.9483,5.9483,5.9483,5.9483,5.9483,5.9483,5.9458,5.8679,5.7901,5.7851,5.7047,5.6251,5.6251,5.6251,5.6251,5.6251,5.6244,5.62,5.62,5.62,5.62,5.62,5.5767,5.5458,5.5458,5.4461,5.2833,5.0383,5.1329,4.9421,4.2673,4.3823,4.3089,3.8867,3.8592,3.8592,3.8592,3.8592,3.8592,3.8592,3.8592,3.8592,3.8592,3.8592,3.8592,3.8592,3.8592,3.8592,0.0,0.0,0.0,0.0,0.0,0.0,0.0,0.0,0.0,0.0,0.0,2.7169,2.8163,2.8756,3.0161,0.0,0.0,3.7237,4.0787,0.0,0.0,6.2089,6.5764,6.742,6.6334,6.8148,6.9406,6.9406,6.9406,6.9205,6.8826,6.9077,6.908,6.8801,6.918,6.9205,6.8801,6.8271,6.8045,6.8196,6.845,6.8374,6.7945,6.6965,6.6287,6.581,6.4002,6.2978,6.2601,6.23,6.2119,6.2019,6.2144,6.1793,6.116,6.0688,6.0085,5.9483,5.9483,5.9483,5.9483,5.9483,5.9483,5.9483,5.9483,5.9483,5.9483,5.9483,5.9483,5.9408,5.8987,5.8403,5.7775,5.733,5.7004,5.6809,5.6809,5.6809,5.6809,5.6809,5.6477,5.62,5.62,5.62,5.62,5.62,5.6075,5.6018,5.6018,5.5056,5.3569,5.1446,5.2115,5.0101,4.3625,4.4177,4.3089,3.8867,3.8592,3.8592,3.8592,3.8592,3.8592,3.8592,3.8592,3.8592,3.8592,3.8592,3.8592,3.8592,3.8592,3.8592,2.4782,2.7118,2.9252,0.0,0.0,0.0,0.0,0.0,0.0,0.0,0.0,0.0,2.8021,2.9408,0.0,0.0,3.6597,0.0,0.0,0.0,5.9539,6.43,6.689,6.8249,0.0,6.8901,6.9406,6.9406,6.9406,6.9255,6.8979,6.9027,6.9004,6.8977,6.8776,6.8776,6.8977,6.8424,6.817,6.817,6.8221,6.7819,6.7015,6.6388,6.571,6.4931,6.3429,6.2802,6.2777,6.2225,6.2144,6.2325,6.2094,6.1667,6.1135,6.0518,5.994,5.9483,5.9483,5.9483,5.9483,5.9483,5.9483,5.9483,5.9483,5.9483,5.9483,5.9483,5.9483,5.9433,5.9137,5.866,5.8183,5.7857,5.7606,5.733,5.706,5.6985,5.6935,5.6677,5.6401,5.62,5.62,5.62,5.62,5.62,5.62,5.62,5.62,5.5483,5.3766,5.0629,5.1268,4.9277,4.2628,4.3228,4.2487,3.9089,3.871,3.8592,3.8592,3.8592,3.8592,3.8592,3.8592,3.8592,3.8592,3.8592,3.8592,3.8592,3.8592,3.8592,2.3521,2.6263,2.9007,2.8925,0.0,0.0,0.0,0.0,0.0,0.0,0.0,0.0,0.0,3.0783,0.0,0.0,0.0,0.0,5.3231,5.7204,6.0794,6.4806,6.6535,0.0,6.8926,6.9255,6.9406,6.9406,6.9406,6.9331,6.9155,6.8876,6.8876,6.913,6.8349,6.8349,6.9255,6.8751,6.8475,6.8475,6.7844,6.699,6.5986,6.581,6.4982,6.3651,0.0,0.0,6.2777,6.2225,6.2325,6.2752,6.2119,6.1592,6.1135,6.0437,5.991,5.9483,5.9483,5.9483,5.9483,5.9483,5.9483,5.9483,5.9483,5.9483,5.9483,5.9483,5.9483,5.9483,5.9483,5.9106,5.871,5.871,5.8334,5.7876,5.728,5.7186,5.7085,5.6552,5.6394,5.6326,5.6326,5.6251,5.62,5.62,5.62,5.62,5.62,5.5717,5.3789,4.9587,5.0394,4.8475,4.1639,4.24,4.2126,3.9465,3.8866,3.8592,3.8592,3.8592,3.8592,3.8592,3.8592,3.8592,3.8592,3.8592,3.8592,3.8592,3.8592,3.8592,2.5452,2.7779,2.89,2.5686,0.0,0.0,0.0,0.0,0.0,0.0,0.0,0.0,0.0,3.4472,3.6871,0.0,0.0,5.0419,0.0,0.0,6.2952,6.5032,0.0,6.86,6.7467,6.86,6.9406,6.9406,6.9406,6.8979,6.8073,6.8826,6.8901,6.807,6.8324,6.855,6.8726,6.8173,6.7919,6.7919,6.6865,6.6036,6.5383,6.4479,6.3927,6.3626,0.0,6.2375,6.2777,6.2225,6.2325,6.2701,6.1718,6.1285,6.1085,6.001,5.9558,5.9483,5.9483,5.9483,5.9483,5.9483,5.9483,5.9483,5.9483,5.9483,5.9483,5.9483,5.9483,5.9483,5.9483,5.9106,5.871,5.871,5.8635,5.8434,5.7876,5.8108,5.8284,5.775,5.723,5.6885,5.6885,5.6502,5.62,5.62,5.62,5.62,5.62,5.5717,5.4304,5.1468,5.2418,5.0628,4.4109,4.4583,4.3683,4.0029,3.9042,3.8592,3.8592,3.8592,3.8592,3.8592,3.8592,3.8592,3.8592,3.8592,3.8592,3.8592,3.8592,3.8592,2.4373,2.6297,2.7864,2.7277,0.0,0.0,0.0,0.0,0.0,0.0,0.0,0.0,0.0,0.0,4.1797,4.8652,0.0,5.5591,5.994,6.2124,6.4028,0.0,0.0,6.817,6.8274,6.8977,6.9406,6.9406,6.9406,6.918,6.8701,6.913,6.9029,6.8271,6.8475,6.845,6.817,6.7618,6.7389,6.7364,6.6212,6.5383,6.4852,6.4073,6.3525,6.3153,0.0,6.23,6.2777,6.2225,6.2144,6.2275,6.1512,6.0989,6.0613,5.9784,5.9483,5.9483,5.9483,5.9483,5.9483,5.9483,5.9483,5.9483,5.9483,5.9483,5.9483,5.9483,5.9483,5.9483,5.9483,5.9307,5.9112,5.9112,5.9112,5.9006,5.8434,5.8535,5.8535,5.8001,5.7675,5.7481,5.7481,5.7004,5.6627,5.6627,5.6376,5.62,5.62,5.5993,5.4858,5.2344,5.2363,5.0368,4.4989,4.4521,4.2972,3.9422,3.8827,3.8592,3.8592,3.8592,3.8592,3.8592,3.8592,3.8592,3.8592,3.8592,3.8592,3.8592,3.8592,3.8592,2.393,2.5636,2.7722,0.0,0.0,0.0,0.0,0.0,0.0,0.0,0.0,0.0,0.0,4.2311,0.0,5.5146,5.8102,6.0462,6.3379,6.4404,6.5509,6.7342,6.7543,6.8045,6.928,6.9406,6.9356,6.9205,6.9331,6.928,6.9029,6.913,6.8977,6.8424,6.8148,6.7822,6.7417,6.6761,6.6535,6.6786,6.5656,6.4827,6.43,6.3726,6.3229,6.2777,6.2375,6.2425,6.2777,6.2225,6.1994,6.1943,6.124,6.0638,6.0041,5.9659,5.9483,5.9483,5.9483,5.9483,5.9483,5.9483,5.9483,5.9483,5.9483,5.9483,5.9483,5.9483,5.9483,5.9483,5.9483,5.9483,5.9483,5.9483,5.9483,5.9357,5.8811,5.8786,5.8736,5.8202,5.8102,5.8052,5.7926,5.7405,5.696,5.6835,5.6451,5.62,5.62,5.62,5.5255,5.2727,5.248,5.0576,4.5839,4.424,4.2186,3.9092,3.871,3.8592,3.8592,3.8592,3.8592,3.8592,3.8592,3.8592,3.8592,3.8592,3.8592,3.8592,3.8592,3.8592,2.6448,2.8257,2.9704,3.0372,0.0,0.0,3.6458,0.0,0.0,0.0,0.0,0.0,0.0,4.9355,5.4403,5.6602,6.0914,6.4651,6.6434,0.0,6.85,6.9155,6.923,6.9255,6.9381,6.9406,6.918,6.8701,6.9105,6.8977,6.797,6.8374,6.8399,6.7869,6.684,6.6241,6.6216,6.5204,6.5179,6.614,6.5078,6.4274,6.3747,6.3128,6.2852,6.2802,6.2777,6.2756,6.2777,6.2225,6.1994,6.1893,6.0794,6.0035,5.9558,5.9508,5.9483,5.9483,5.9483,5.9483,5.9483,5.9483,5.9483,5.9483,5.9483,5.9483,5.9483,5.9483,5.9483,5.9483,5.9483,5.9483,5.9483,5.9483,5.9483,5.9357,5.8811,5.9106,5.9282,5.8736,5.8635,5.8485,5.8001,5.7405,5.6835,5.6326,5.6226,5.62,5.62,5.62,5.5194,5.2591,5.3997,5.2937,4.7497,4.4845,4.2435,3.9956,3.9042,3.8592,3.8592,3.8592,3.8592,3.8592,3.8592,3.8592,3.8592,3.8592,3.8592,3.8592,3.8592,3.8592,2.5008,2.772,3.0683,3.2254,0.0,0.0,0.0,0.0,0.0,0.0,0.0,0.0,0.0,0.0,5.8322,6.0272,6.3375,6.6086,6.7769,6.8324,6.8675,6.8876,6.9205,6.913,6.8475,6.8701,6.8826,6.8625,6.8801,6.8876,6.8801,6.8675,6.8349,6.7819,6.6689,6.5936,6.5609,6.4877,6.4551,6.4605,6.4199,6.3898,6.3676,6.3078,6.2802,6.2802,6.245,6.23,6.225,6.1718,6.1291,6.0889,6.0111,5.9684,5.9483,5.9483,5.9483,5.9483,5.9483,5.9483,5.9483,5.9483,5.9483,5.9483,5.9483,5.9483,5.9483,5.9483,5.9483,5.9483,5.9483,5.9483,5.9483,5.9483,5.9483,5.9433,5.9257,5.9357,5.9433,5.9232,5.9207,5.9131,5.893,5.8152,5.7481,5.7298,5.6671,5.62,5.62,5.62,5.5826,5.4844,5.3705,5.2043,4.9637,4.579,4.312,4.2211,4.0138,3.8965,3.8965,3.8729,3.8592,3.8592,3.8592,3.8592,3.8592,3.8592,3.8592,3.8592,3.8592,3.8592,2.4297,2.7109,3.0563,0.0,0.0,0.0,0.0,0.0,0.0,0.0,0.0,0.0,0.0,0.0,0.0,0.0,6.4459,6.684,6.8148,6.8349,6.8349,6.8349,6.8675,6.86,6.7869,6.8123,6.8349,6.8349,6.85,6.8701,6.8879,6.855,6.7998,6.7292,6.6187,6.5333,6.4781,6.4228,6.3776,6.3425,6.3425,6.3425,6.34,6.2978,6.2701,6.2526,6.2149,6.1893,6.1692,6.114,6.0563,5.9991,5.9633,5.9483,5.9483,5.9483,5.9483,5.9483,5.9483,5.9483,5.9483,5.9483,5.9483,5.9483,5.9483,5.9483,5.9483,5.9483,5.9483,5.9483,5.9483,5.9483,5.9483,5.9483,5.9483,5.9483,5.9483,5.9483,5.9483,5.9483,5.9357,5.9207,5.9031,5.8227,5.7575,5.7399,5.6721,5.62,5.62,5.62,5.62,5.62,5.3394,5.1424,5.1086,4.7078,4.4339,4.3728,4.1005,3.9355,3.9199,3.8944,3.8729,3.8592,3.8592,3.8592,3.8592,3.8592,3.8592,3.8592,3.8729,3.8788,2.4967,2.684,0.0,0.0,0.0,0.0,0.0,0.0,0.0,0.0,0.0,0.0,0.0,0.0,0.0,6.0141,6.4053,6.7163,6.7719,6.7794,6.7794,6.7794,6.7794,6.7794,6.7769,6.7794,6.7794,6.7794,6.8274,6.8349,6.7844,6.7794,6.7267,6.6137,6.5053,6.4224,6.3701,6.3103,6.2802,6.2802,6.2802,6.2802,6.2802,6.2802,6.2501,6.1994,6.1994,6.1667,6.116,6.0543,5.9985,5.9483,5.9483,5.9483,5.9483,5.9483,5.9483,5.9483,5.9483,5.9483,5.9483,5.9483,5.9483,5.9483,5.9483,5.9483,5.9483,5.9483,5.9483,5.9483,5.9483,5.9483,5.9483,5.9483,5.9483,5.9483,5.9483,5.9483,5.9483,5.9483,5.9062,5.8535,5.8001,5.7405,5.6828,5.6301,5.62,5.62,5.62,5.62,5.62,5.62,5.3357,5.147,5.1622,4.8791,4.6164,4.4266,4.1468,3.9687,3.9219,3.9199,3.9004,3.8611,3.8592,3.8592,3.8611,3.8611,3.8611,3.8612,3.9004,3.9199,2.6231,2.9418,0.0,3.6043,0.0,0.0,0.0,0.0,0.0,0.0,0.0,0.0,0.0,0.0,0.0,6.0939,6.3345,6.5706,6.7062,6.7238,6.7238,6.7238,6.7568,6.7493,6.6689,6.7342,6.7794,6.7794,6.7945,6.8123,6.8349,6.722,6.6463,6.609,6.468,6.3873,6.3701,6.2747,6.2225,6.2225,6.1843,6.1868,6.2225,6.2225,6.1943,6.1391,6.0989,6.0693,6.0537,5.996,5.9633,5.9483,5.9483,5.9483,5.9483,5.9483,5.9483,5.9483,5.9483,5.9483,5.9483,5.9483,5.9483,5.9483,5.9483,5.9483,5.9483,5.9483,5.9483,5.9483,5.9483,5.9483,5.9483,5.9483,5.9483,5.9483,5.9483,5.9483,5.9483,5.9483,5.9382,5.9207,5.9056,5.8252,5.76,5.7424,5.6721,5.62,5.62,5.62,5.62,5.62,5.5016,5.4094,5.3735,4.998,4.7206,4.6186,4.2466,4.0118,3.9707,3.91,3.871,3.8592,3.8592,3.8749,3.9004,3.9004,3.9004,3.9023,3.9473,3.9512,2.8325,3.1999,0.0,3.9986,4.4608,4.954,5.4285,0.0,0.0,0.0,0.0,6.1492,6.0412,6.119,0.0,6.219,6.3672,6.5179,6.6183,6.651,6.6639,6.6639,6.694,6.6865,6.6187,6.6739,6.7141,6.7141,6.7342,6.7417,6.7317,6.6517,6.581,6.5183,6.4203,6.3475,6.3023,6.2345,6.1893,6.1667,6.1361,6.124,6.1341,6.1567,6.1366,6.0814,6.0236,5.9985,5.996,5.9633,5.9483,5.9483,5.9483,5.9483,5.9483,5.9483,5.9483,5.9483,5.9483,5.9483,5.9483,5.9483,5.9483,5.9483,5.9483,5.9483,5.9483,5.9483,5.9483,5.9483,5.9483,5.9483,5.9483,5.9483,5.9483,5.9483,5.9483,5.9483,5.9483,5.9483,5.9332,5.9182,5.9182,5.8478,5.7826,5.76,5.6778,5.62,5.62,5.62,5.62,5.62,5.5717,5.5282,5.4949,5.0608,4.7753,4.7383,4.38,4.1584,4.1341,3.9899,3.912,3.912,3.912,3.9237,3.9473,3.9473,3.9473,3.9492,3.9941,4.0,3.0894,3.4511,0.0,4.3237,4.8284,0.0,5.7399,6.0362,6.2446,6.3224,0.0,6.3203,6.355,6.2847,6.2546,6.3525,6.4526,6.5157,6.5229,6.5634,6.5939,6.5939,6.6011,6.6011,6.5961,6.604,6.6086,6.6036,6.6535,6.6384,6.538,6.5685,6.5183,6.3676,6.3576,6.3023,6.1943,6.1868,6.1592,6.1135,6.1085,6.0763,6.0242,6.0839,6.0788,6.0191,5.9709,5.9483,5.9483,5.9483,5.9483,5.9483,5.9483,5.9483,5.9483,5.9483,5.9483,5.9483,5.9483,5.9483,5.9483,5.9483,5.9483,5.9483,5.9483,5.9483,5.9483,5.9483,5.9483,5.9483,5.9483,5.9483,5.9483,5.9483,5.9483,5.9483,5.9483,5.9483,5.9483,5.9483,5.9106,5.8761,5.8761,5.8328,5.775,5.7085,5.6552,5.62,5.62,5.62,5.62,5.62,5.5767,5.5433,5.5333,5.0962,4.8207,4.8098,4.5379,4.3777,4.382,4.1658,4.0427,4.0427,4.0427,4.0447,4.0486,4.0318,4.0224,4.0224,4.0467,4.0547,3.2742,3.6508,0.0,0.0,5.369,5.8961,6.1221,6.2898,6.3395,6.1441,6.3375,6.4885,6.3279,6.3525,6.3898,6.3726,6.3877,6.4199,6.4601,6.4777,6.4852,6.4852,6.5229,6.5329,6.4877,6.5609,6.5936,6.5484,6.5584,6.5555,6.5308,6.4605,6.3852,6.3028,6.2596,6.2044,6.1386,6.0914,6.0593,6.0493,6.006,5.9784,5.9684,6.0261,6.0211,5.9659,5.9533,5.9483,5.9483,5.9483,5.9483,5.9483,5.9483,5.9483,5.9483,5.9483,5.9483,5.9483,5.9483,5.9483,5.9483,5.9483,5.9483,5.9483,5.9483,5.9483,5.9483,5.9483,5.9483,5.9483,5.9483,5.9483,5.9483,5.9483,5.9483,5.9483,5.9483,5.9483,5.9483,5.9483,5.9408,5.9332,5.9332,5.8861,5.8183,5.7136,5.6552,5.62,5.62,5.62,5.62,5.62,5.6118,5.5691,5.4848,5.2333,5.0444,4.9603,4.7173,4.5928,4.6231,4.5084,4.4462,4.4462,4.4462,4.4622,4.5001,4.3481,4.2741,4.2685,4.1569,4.084,3.4826,0.0,0.0,5.2812,0.0,6.2169,6.3028,6.4078,6.4475,6.2998,6.453,6.5663,6.4279,6.4479,6.4626,6.3827,6.3923,6.4099,6.4124,6.4325,6.44,6.4149,6.4375,6.4425,6.4149,6.4605,6.4831,6.4555,6.4777,6.4701,6.4128,6.3576,6.3023,6.2425,6.1893,6.1341,6.0763,6.0462,6.0166,5.989,5.9633,5.9483,5.9508,5.9784,5.9759,5.9483,5.9483,5.9483,5.9483,5.9483,5.9483,5.9483,5.9483,5.9483,5.9483,5.9483,5.9483,5.9483,5.9483,5.9483,5.9483,5.9483,5.9483,5.9483,5.9483,5.9483,5.9483,5.9483,5.9483,5.9483,5.9483,5.9483,5.9483,5.9483,5.9307,5.9207,5.9433,5.9307,5.9207,5.9433,5.9483,5.9483,5.9483,5.8855,5.8127,5.7506,5.6728,5.62,5.62,5.62,5.62,5.62,5.62,5.5968,5.539,5.3053,5.1366,5.08,4.9087,4.8211,4.8429,4.8886,4.8269,4.6352,4.6317,4.6433,4.6688,4.5684,4.4687,4.3758,4.2973,4.196,3.5755,4.1982,4.9022,5.7399,6.1391,0.0,6.35,6.4304,6.5007,6.5007,6.5459,6.571,6.5358,6.5153,6.468,6.3701,6.3847,6.3873,6.3324,6.3722,6.3898,6.345,6.3576,6.3651,6.355,6.3626,6.3651,6.355,6.3973,6.3751,6.2727,6.2676,6.2375,6.1743,6.1266,6.0763,6.0166,6.0166,5.996,5.9483,5.9483,5.9483,5.9483,5.9483,5.9483,5.9483,5.9483,5.9483,5.9483,5.9483,5.9483,5.9483,5.9483,5.9483,5.9483,5.9483,5.9483,5.9483,5.9483,5.9483,5.9483,5.9483,5.9483,5.9483,5.9483,5.9483,5.9483,5.9483,5.9483,5.9483,5.9483,5.9483,5.9483,5.9382,5.8956,5.8736,5.9357,5.9062,5.8861,5.9382,5.9483,5.9483,5.9483,5.8604,5.7901,5.7901,5.6947,5.62,5.62,5.62,5.62,5.62,5.62,5.615,5.6068,5.3711,5.2217,5.2121,5.1285,5.0781,5.0781,5.224,5.1502,4.8223,4.8081,4.8035,4.8035,4.7668,4.668,4.5108,4.4414,4.3226,3.2763,4.163,5.1406,5.7876,6.0532,6.1788,0.0,0.0,6.3902,6.3902,6.435,6.4827,6.5229,6.453,6.3701,6.3028,6.2596,6.2144,6.1612,6.1994,6.232,6.2245,6.3099,6.35,6.2978,6.34,6.3475,6.2952,6.2978,6.2752,6.2144,6.2119,6.1622,6.0568,6.0442,6.0161,5.9608,5.9608,5.9558,5.9483,5.9483,5.9483,5.9483,5.9483,5.9483,5.9483,5.9483,5.9483,5.9483,5.9483,5.9483,5.9483,5.9483,5.9483,5.9483,5.9483,5.9483,5.9483,5.9483,5.9483,5.9483,5.9483,5.9483,5.9483,5.9483,5.9483,5.9483,5.9483,5.9483,5.9483,5.9483,5.9483,5.9382,5.8911,5.8403,5.8278,5.9282,5.9062,5.8861,5.9382,5.9483,5.9483,5.9483,5.8604,5.7901,5.7901,5.6947,5.62,5.62,5.62,5.62,5.62,5.62,5.6018,5.5559,5.5124,5.468,5.4224,5.4049,5.3974,5.3974,5.3736,5.3338,5.2823,5.2359,5.2119,5.2119,5.041,4.948,4.9117,4.5701,4.3964,3.6733,4.4658,5.2226,5.77,6.0362,6.1843,6.2626,6.3274,6.3701,6.3701,6.3626,6.3726,6.4279,6.4002,6.35,6.2902,6.235,6.2019,6.2094,6.2044,6.1994,6.1994,6.2446,6.2647,6.2375,6.2596,6.2772,6.2802,6.2526,6.225,6.2019,6.1396,6.0819,6.0317,5.9991,5.9734,5.9483,5.9483,5.9483,5.9483,5.9483,5.9332,5.9037,5.9037,5.9232,5.9483,5.9483,5.9332,5.9037,5.9037,5.9037,5.9037,5.9037,5.9037,5.9106,5.9382,5.9307,5.9037,5.9037,5.9257,5.9382,5.8805,5.8805,5.9037,5.9037,5.9037,5.9112,5.9408,5.9483,5.9483,5.9483,5.9282,5.8987,5.8761,5.8284,5.8027,5.8504,5.8428,5.8504,5.9332,5.9483,5.9408,5.9106,5.8403,5.7801,5.7455,5.6702,5.62,5.62,5.62,5.62,5.62,5.62,5.61,5.5867,5.5566,5.5308,5.5056,5.4773,5.4597,5.4597,5.4353,5.4052,5.3708,5.3163,5.2895,5.2895,5.205,5.1051,4.9943,4.8235,4.6219,3.8881,4.4859,4.9941,5.5774,5.8886,6.0794,6.1923,6.2747,6.3274,6.3274,6.2923,6.2727,6.3174,6.3274,6.3023,6.2275,6.1823,6.1647,6.1923,6.1723,6.1617,6.1793,6.1918,6.1994,6.1994,6.1994,6.2119,6.2375,6.2019,6.1743,6.1592,6.0744,6.0242,6.0091,5.9709,5.9483,5.9483,5.9483,5.9433,5.9307,5.9433,5.9156,5.8485,5.8635,5.8836,5.9081,5.9081,5.888,5.8485,5.8485,5.8485,5.8485,5.8485,5.8485,5.856,5.9106,5.8956,5.8535,5.8811,5.9006,5.9006,5.8478,5.8504,5.871,5.871,5.8786,5.8961,5.9232,5.9307,5.9332,5.9458,5.9106,5.871,5.871,5.8384,5.8102,5.8102,5.8102,5.8378,5.9307,5.9483,5.9332,5.8786,5.8252,5.77,5.7085,5.6552,5.62,5.62,5.62,5.62,5.62,5.62,5.62,5.62,5.5842,5.5591,5.5591,5.5232,5.5006,5.5006,5.4873,5.4579,5.4135,5.3607,5.3188,5.2895,5.2895,5.2154,5.0734,5.0233,4.8162,3.5015,3.8856,4.3023,5.118,5.487,5.7179,5.984,6.1296,6.2094,6.2094,6.2069,6.2044,6.2094,6.2094,6.1723,6.0618,6.0417,6.0217,5.9734,6.0111,6.0613,6.1165,6.1692,6.1994,6.1994,6.1994,6.1793,6.1336,6.126,6.0989,6.0417,6.0342,6.0066,5.9558,5.9508,5.9483,5.9483,5.9483,5.9257,5.8736,5.9257,5.8956,5.7951,5.8459,5.8434,5.7976,5.7976,5.7976,5.7951,5.7951,5.7951,5.7951,5.7951,5.7951,5.8001,5.8535,5.8384,5.8077,5.9106,5.8805,5.8152,5.9106,5.9106,5.871,5.871,5.9056,5.9357,5.8886,5.8736,5.8861,5.9357,5.9106,5.871,5.871,5.8685,5.866,5.866,5.866,5.8836,5.9382,5.9483,5.9332,5.8786,5.8252,5.77,5.7085,5.6552,5.62,5.62,5.62,5.62,5.62,5.62,5.62,5.62,5.6175,5.615,5.615,5.6125,5.61,5.61,5.5616,5.5358,5.529,5.478,5.3976,5.2895,5.2895,5.2861,5.2698,5.0857,4.8866,3.2731,3.6245,4.0387,4.6602,5.0327,5.3113,5.5516,5.8033,5.989,5.989,6.0738,6.1366,6.097,6.124,6.1341,6.0939,6.0563,6.0367,6.0563,6.0758,6.109,6.1642,6.2195,6.2375,6.2044,6.1994,6.1617,6.0688,6.0638,6.0387,5.9809,5.9784,5.9709,5.9508,5.9483,5.9483,5.9483,5.9156,5.8886,5.871,5.8554,5.8077,5.733,5.7512,5.733,5.6821,5.6821,5.7004,5.733,5.733,5.733,5.733,5.733,5.733,5.7405,5.7957,5.7807,5.738,5.7757,5.8108,5.8284,5.7625,5.7983,5.8635,5.8284,5.8328,5.8579,5.9081,5.8961,5.8736,5.8936,5.8836,5.8685,5.8704,5.8133,5.7888,5.8961,5.9207,5.9182,5.9012,5.9257,5.9207,5.8353,5.8027,5.7575,5.6627,5.6326,5.62,5.62,5.62,5.62,5.62,5.62,5.62,5.62,5.62,5.62,5.62,5.62,5.62,5.62,5.6018,5.5742,5.5408,5.5207,5.4755,5.4002,5.4002,5.4002,5.3959,5.2893,5.1323,3.0638,0.0,3.7362,4.2721,4.5733,4.8369,5.2277,5.5146,5.723,5.7983,5.9458,6.0563,6.0342,6.0487,6.0632,6.0632,6.0286,6.0186,6.0563,6.0632,6.0814,6.1366,6.1748,6.1823,6.1446,6.1421,6.1045,6.0091,6.0035,5.9885,5.9508,5.9483,5.9408,5.9232,5.9056,5.8956,5.8956,5.8604,5.8334,5.8133,5.7957,5.7499,5.6753,5.691,5.6702,5.62,5.62,5.6401,5.6728,5.6728,5.6728,5.6728,5.6728,5.6728,5.6784,5.738,5.723,5.6803,5.7179,5.7556,5.7732,5.7022,5.7506,5.8359,5.8001,5.8027,5.8328,5.9031,5.8855,5.851,5.8861,5.8961,5.8981,5.8975,5.8403,5.8083,5.9031,5.9081,5.8956,5.8961,5.9257,5.9207,5.8328,5.8177,5.7851,5.6922,5.6602,5.6477,5.6477,5.6301,5.62,5.62,5.62,5.62,5.62,5.62,5.62,5.62,5.62,5.62,5.62,5.62,5.6043,5.5666,5.5666,5.5491,5.5132,5.4773,5.4597,5.4597,5.4177,5.2847,0.0,0.0,0.0,3.9521,4.1038,4.2958,5.0126,5.2603,5.4034,5.6383,5.8158,5.9508,6.0141,5.9834,5.9483,5.9483,5.9483,5.9483,5.9483,5.9483,5.9684,6.0217,6.0292,6.0292,6.0267,6.0292,6.0066,5.9508,5.9483,5.9483,5.9483,5.9483,5.9257,5.871,5.8177,5.7901,5.7901,5.7876,5.7556,5.6985,5.7531,5.7248,5.615,5.6728,5.6677,5.6194,5.6175,5.6175,5.6194,5.6194,5.6194,5.62,5.6175,5.6194,5.6251,5.6784,5.6652,5.6351,5.7474,5.7148,5.642,5.7524,5.7901,5.7926,5.7926,5.8278,5.8685,5.871,5.8328,5.8152,5.9207,5.9483,5.9483,5.9483,5.9483,5.9332,5.8836,5.8284,5.8227,5.9257,5.9483,5.9332,5.8786,5.871,5.851,5.7976,5.7405,5.7035,5.7035,5.6552,5.6226,5.6226,5.62,5.62,5.62,5.62,5.62,5.62,5.62,5.62,5.62,5.62,5.62,5.62,5.62,5.62,5.62,5.5157,5.4647,5.4647,5.4622,5.3246,2.8172,0.0,0.0,0.0,0.0,0.0,4.2521,4.4583,4.7034,5.2837,5.4418,5.5623,5.8585,5.9012,5.8911,5.8911,5.9257,5.9483,5.9483,5.9483,5.9558,5.9709,6.0041,6.0141,5.9759,6.0066,5.9915,5.8987,5.9282,5.9332,5.8936,5.8911,5.8836,5.871,5.8177,5.7901,5.7901,5.7455,5.6979,5.6426,5.6194,5.5735,5.5056,5.5591,5.5767,5.5641,5.6043,5.5993,5.5616,5.5616,5.5842,5.615,5.5767,5.5867,5.62,5.6376,5.6326,5.6269,5.657,5.6728,5.6828,5.7154,5.7807,5.8485,5.8485,5.8328,5.8278,5.9056,5.8604,5.8152,5.9207,5.9207,5.9012,5.9408,5.9207,5.9006,5.9232,5.8855,5.856,5.8861,5.9232,5.9332,5.8786,5.871,5.851,5.7976,5.775,5.765,5.765,5.7154,5.6778,5.6778,5.6426,5.62,5.62,5.62,5.62,5.62,5.62,5.62,5.62,5.62,5.62,5.62,5.62,5.62,5.62,5.5917,5.5767,5.5742,5.4956,5.377,0.0,0.0,0.0,0.0,0.0,0.0,3.9333,4.1003,4.3327,4.9841,5.1557,5.2912,5.6344,5.6778,5.6903,5.7857,5.8058,5.8378,5.9081,5.8981,5.8905,5.9156,5.9438,5.9514,5.9207,5.9639,5.9709,5.9062,5.9332,5.9357,5.9056,5.861,5.8378,5.8378,5.76,5.7072,5.6846,5.652,5.605,5.5516,5.5207,5.4906,5.4622,5.5157,5.5408,5.5433,5.5968,5.5892,5.5383,5.5157,5.5257,5.5491,5.5182,5.5408,5.5867,5.5867,5.6018,5.62,5.62,5.6401,5.6677,5.6677,5.728,5.7989,5.7989,5.7932,5.8077,5.893,5.888,5.8704,5.9332,5.9282,5.9106,5.9433,5.9257,5.9131,5.9433,5.9257,5.9037,5.9037,5.9282,5.9408,5.9106,5.9037,5.893,5.8604,5.8378,5.8133,5.7926,5.738,5.691,5.6702,5.6376,5.62,5.62,5.62,5.62,5.62,5.62,5.62,5.62,5.62,5.62,5.62,5.62,5.62,5.62,5.62,5.62,5.6175,5.5107,5.4228,0.0,0.0,0.0,0.0,0.0,0.0,3.858,3.986,4.1441,4.7085,4.8978,5.0469,5.3399,5.3625,5.3959,5.5799,5.6,5.6577,5.8434,5.8183,5.7976,5.8459,5.856,5.861,5.861,5.9156,5.9483,5.9483,5.9433,5.9382,5.9332,5.8353,5.7801,5.7801,5.6721,5.5892,5.539,5.5358,5.5031,5.4496,5.4496,5.4471,5.4446,5.4981,5.5257,5.5333,5.5817,5.5742,5.5282,5.4705,5.4547,5.4597,5.4522,5.483,5.5333,5.5383,5.5691,5.61,5.6194,5.62,5.62,5.6276,5.6602,5.701,5.7085,5.743,5.7926,5.8459,5.9056,5.9483,5.9483,5.9483,5.9483,5.9483,5.9483,5.9483,5.9483,5.9483,5.9483,5.9483,5.9483,5.9483,5.9483,5.9483,5.9483,5.9483,5.9106,5.861,5.8152,5.7506,5.6928,5.6426,5.6294,5.62,5.62,5.62,5.62,5.62,5.62,5.62,5.62,5.62,5.62,5.62,5.62,5.62,5.62,5.62,5.615,5.6093,5.5132,5.4622,0.0,0.0,0.0,0.0,0.0,0.0,3.5255,3.5832,3.7526,4.3539,4.4608,4.5562,4.9245,5.0544,5.0904,5.046,5.2528,5.5239,5.8284,5.7832,5.7211,5.7311,5.7757,5.8052,5.8052,5.893,5.9483,5.9483,5.9106,5.866,5.8227,5.7556,5.7179,5.7179,5.6118,5.5509,5.5408,5.4956,5.4454,5.3884,5.3884,5.3658,5.3239,5.3783,5.4303,5.4773,5.4873,5.4856,5.4723,5.4127,5.4152,5.4547,5.4077,5.4228,5.4823,5.5232,5.5483,5.5616,5.6068,5.62,5.6276,5.6684,5.691,5.7085,5.76,5.7455,5.7305,5.7882,5.8755,5.9483,5.9483,5.9483,5.9483,5.9483,5.9483,5.9483,5.9483,5.9483,5.9483,5.9483,5.9483,5.9483,5.9483,5.9483,5.9483,5.9483,5.9408,5.9307,5.9207,5.8328,5.7675,5.7575,5.6746,5.62,5.62,5.62,5.62,5.62,5.62,5.62,5.62,5.62,5.62,5.62,5.62,5.62,5.62,5.62,5.5993,5.5541,5.5358,5.4755,0.0,0.0,0.0,3.257,0.0,0.0,0.0,3.4488,3.5479,4.1014,4.0613,4.0551,4.4723,4.5049,4.5311,4.7245,4.8937,5.1172,5.4536,5.615,5.7211,5.7763,5.7882,5.8001,5.8259,5.8554,5.8704,5.8704,5.8453,5.8177,5.7901,5.733,5.6885,5.6602,5.5817,5.5132,5.4561,5.4303,5.3876,5.3289,5.3289,5.3163,5.2937,5.3457,5.3876,5.4177,5.4471,5.4446,5.4127,5.3808,5.3708,5.3708,5.3432,5.3658,5.4228,5.478,5.5157,5.5483,5.6,5.62,5.6251,5.6502,5.6602,5.6652,5.6972,5.7029,5.7186,5.8058,5.8504,5.883,5.9357,5.9307,5.9106,5.9106,5.9106,5.9031,5.8755,5.8704,5.878,5.9056,5.9106,5.9207,5.9458,5.9282,5.9207,5.9458,5.9282,5.9106,5.9106,5.8403,5.7775,5.7481,5.6702,5.62,5.62,5.62,5.62,5.62,5.62,5.62,5.62,5.62,5.62,5.62,5.62,5.62,5.62,5.62,5.605,5.5792,5.5516,5.5089,0.0,0.0,0.0,0.0,0.0,3.4335,0.0,0.0,0.0,3.8454,3.7237,3.661,4.0237,3.9547,3.9673,4.3449,4.497,4.6527,4.9012,5.2686,5.5555,5.6803,5.657,5.6646,5.7506,5.728,5.7223,5.7549,5.7173,5.7072,5.7399,5.6853,5.6376,5.6068,5.5415,5.4637,5.3708,5.3607,5.3314,5.2895,5.2895,5.2895,5.2895,5.3339,5.3607,5.3708,5.4102,5.4052,5.3683,5.3582,5.3289,5.2895,5.2895,5.3163,5.3632,5.4328,5.4856,5.5333,5.5993,5.62,5.62,5.62,5.62,5.62,5.62,5.6577,5.7186,5.8108,5.8208,5.8252,5.9131,5.9012,5.871,5.871,5.861,5.8434,5.8001,5.7901,5.8027,5.8459,5.8535,5.871,5.9257,5.9006,5.8811,5.9131,5.8811,5.8535,5.8535,5.8177,5.7725,5.723,5.6778,5.6527,5.6527,5.6426,5.6351,5.6351,5.6251,5.62,5.62,5.62,5.62,5.62,5.62,5.62,5.62,5.62,5.62,5.6175,5.5742,5.5509,0.0,0.0,0.0,0.0,3.6143,0.0,0.0,0.0,3.5753,3.4826,0.0,3.567,3.6172,0.0,0.0,3.6095,4.0149,4.3176,4.2532,4.5769,4.8805,5.0444,5.0569,5.1348,5.3347,5.3916,5.4787,5.6294,5.4569,5.4117,5.5591,5.5157,5.5056,5.5483,5.4461,5.3833,5.3708,5.3239,5.2945,5.2895,5.2895,5.2895,5.2895,5.2945,5.3239,5.3683,5.3264,5.3314,5.3658,5.3188,5.2945,5.2895,5.2895,5.2937,5.3113,5.4202,5.4647,5.4848,5.5842,5.62,5.62,5.62,5.62,5.62,5.62,5.6577,5.7035,5.7161,5.7882,5.8635,5.8761,5.8736,5.871,5.871,5.8334,5.7976,5.7901,5.7901,5.7926,5.7976,5.8001,5.8152,5.8685,5.8736,5.856,5.8152,5.8027,5.8001,5.8001,5.7951,5.7876,5.7801,5.775,5.77,5.77,5.723,5.691,5.691,5.6451,5.62,5.62,5.62,5.62,5.62,5.62,5.62,5.62,5.62,5.62,5.62,5.6143,5.5867,0.0,0.0,0.0,0.0,0.0,0.0,0.0,0.0,3.4048,0.0,0.0,0.0,0.0,0.0,0.0,0.0,3.7223,3.922,3.9358,4.0512,4.3288,4.8526,4.7999,4.7958,4.9825,5.0519,5.1289,5.2302,5.1222,5.1264,5.2922,5.3406,5.3858,5.4386,5.3959,5.3557,5.3239,5.2995,5.2895,5.2895,5.2895,5.2895,5.2895,5.2895,5.302,5.3213,5.3013,5.3038,5.3213,5.2988,5.2895,5.2895,5.2895,5.2895,5.3013,5.3783,5.4303,5.4723,5.5465,5.5942,5.62,5.62,5.62,5.62,5.62,5.6351,5.6602,5.691,5.7111,5.7481,5.8459,5.8208,5.7807,5.8133,5.7782,5.728,5.6997,5.6922,5.7022,5.7305,5.738,5.7455,5.7663,5.7713,5.7757,5.7876,5.7581,5.7506,5.7851,5.7581,5.738,5.738,5.738,5.738,5.738,5.7455,5.7506,5.7506,5.6979,5.6677,5.6677,5.6376,5.62,5.62,5.62,5.62,5.62,5.62,5.62,5.62,5.62,5.6093,3.927,0.0,0.0,0.0,0.0,0.0,0.0,0.0,0.0,0.0,0.0,0.0,0.0,0.0,0.0,0.0,0.0,3.6093,3.6584,3.6182,3.8278,4.4848,4.501,4.516,4.6627,4.7044,4.7672,4.8837,4.7722,4.8064,5.0485,5.1348,5.2234,5.3231,5.3389,5.3289,5.2895,5.2895,5.2895,5.2895,5.2895,5.2895,5.2895,5.2895,5.2895,5.2895,5.2895,5.2895,5.2895,5.2895,5.2895,5.2895,5.2895,5.2895,5.2945,5.349,5.3976,5.4429,5.4981,5.5516,5.6,5.615,5.62,5.62,5.62,5.62,5.6276,5.6677,5.6602,5.6728,5.8108,5.7738,5.7186,5.7932,5.743,5.6728,5.6477,5.6301,5.6301,5.6702,5.6784,5.6784,5.6784,5.7054,5.728,5.7424,5.7179,5.7104,5.7399,5.7179,5.706,5.723,5.7361,5.7512,5.7681,5.7932,5.8052,5.7901,5.7481,5.7161,5.701,5.6627,5.6351,5.62,5.62,5.62,5.62,5.62,5.62,5.62,5.62,5.62,0.0,0.0,0.0,4.0727,0.0,0.0,0.0,0.0,3.5819,0.0,0.0,0.0,0.0,0.0,0.0,0.0,0.0,0.0,0.0,3.2742,3.3671,3.7148,4.0376,4.2738,4.384,4.3478,4.4306,4.6973,4.4231,4.431,4.8642,4.8919,4.9933,5.2076,5.2661,5.2937,5.2895,5.2895,5.2895,5.2895,5.2895,5.2895,5.2895,5.2895,5.2895,5.2895,5.2895,5.2895,5.2895,5.2895,5.2895,5.2895,5.2895,5.2895,5.2945,5.349,5.3708,5.3808,5.4421,5.4981,5.5491,5.6043,5.62,5.62,5.62,5.62,5.62,5.6226,5.6602,5.7111,5.7775,5.7455,5.7286,5.8409,5.7405,5.6351,5.6878,5.6577,5.62,5.6226,5.6244,5.6244,5.6244,5.7148,5.7499,5.6401,5.6677,5.6828,5.6301,5.6702,5.7211,5.7801,5.8334,5.8861,5.9382,5.8961,5.8434,5.7926,5.7876,5.7606,5.701,5.6985,5.6728,5.62,5.62,5.62,5.62,5.62,5.62,5.62,5.62,5.62,0.0,0.0,4.9163,4.5081,0.0,0.0,0.0,0.0,0.0,0.0,0.0,0.0,0.0,0.0,0.0,0.0,0.0,0.0,0.0,3.0849,3.0849,3.3104,3.6621,0.0,3.8894,3.907,3.9861,4.1544,3.9949,4.0966,4.5773,4.6416,4.8149,5.1465,5.1749,5.2176,5.2895,5.2895,5.2895,5.2895,5.2895,5.2895,5.2895,5.2895,5.2895,5.2895,5.2895,5.2895,5.2895,5.2895,5.2895,5.2895,5.2895,5.2895,5.2937,5.3113,5.3389,5.3783,5.4378,5.4956,5.5433,5.5591,5.5917,5.62,5.62,5.62,5.62,5.62,5.6326,5.6677,5.765,5.7198,5.6753,5.7901,5.7154,5.6251,5.6426,5.6326,5.62,5.62,5.62,5.62,5.62,5.7148,5.7499,5.6351,5.6351,5.6401,5.6226,5.6351,5.6677,5.7255,5.7807,5.8403,5.8911,5.9131,5.9156,5.8956,5.8629,5.8334,5.8133,5.7387,5.7104,5.7323,5.6928,5.6728,5.6728,5.6728,5.6552,5.62,5.62,5.62,4.9464,5.0854,0.0,4.852,4.6612,0.0,4.0701,0.0,0.0,0.0,0.0,0.0,0.0,0.0,0.0,0.0,0.0,0.0,0.0,2.9935,2.9986,3.1246,3.4134,0.0,3.6381,3.6344,3.6684,3.7613,3.6671,3.8015,4.2621,4.4141,4.6592,5.0284,5.1163,5.2,5.2895,5.2895,5.2895,5.2895,5.2895,5.2895,5.2895,5.2895,5.2895,5.2895,5.2895,5.2787,5.2636,5.2837,5.2787,5.2636,5.2837,5.2895,5.2895,5.2895,5.3113,5.3532,5.4303,5.468,5.4888,5.5491,5.5792,5.5968,5.6125,5.62,5.6226,5.6426,5.6351,5.6451,5.76,5.7054,5.6495,5.7625,5.7047,5.6251,5.6451,5.6326,5.62,5.62,5.62,5.62,5.62,5.6821,5.7047,5.6301,5.6527,5.6671,5.6251,5.62,5.6401,5.6935,5.7531,5.8202,5.8911,5.9307,5.9483,5.9483,5.9182,5.8886,5.871,5.7989,5.7782,5.8177,5.7405,5.7111,5.733,5.691,5.6552,5.62,5.62,5.62]}]]